     2              OBSERVATION DATA    GPS                 RINEX VERSION / TYPE
teqc 1997Jun30 19970702                                     PGM / RUN BY / DATE
                                                            COMMENT
BIT 2 OF LLI FLAGS DATA COLLECTED UNDER A-S CONDITION       COMMENT
BIT 2 OF LLI FLAGS DATA COLLECTED UNDER A-S CONDITION       COMMENT
Original Marker Name: HMCP                                  COMMENT
Campaign Name: HMC San Gabriel Valley 1993-1996             COMMENT
4-Character Station Name: HMCP                              COMMENT
6-Character Antenna Code: DMRCHT                            COMMENT
Vertical Measurement Point: BPA                             COMMENT
Vertical Offset to Rinex Ref. Point: 0.0000                 COMMENT
Radial Measurement Point: RRP                               COMMENT
Radial Offset to Rinex Ref. Point: 0.0000                   COMMENT
Antenna Height from Field Measurement: 0.0000 m             COMMENT
Additional Antenna Identification Info.:                    COMMENT
Turborogue and Ashtech Choke Ring                           COMMENT
Fixed antenna mounting on roof of Parsons                   COMMENT
building, HMC.                                              COMMENT
Original XYZ: -2458598.5227 -4680494.7667 3556450.9953      COMMENT
New XYZ position is based on association with SCEC monument COMMENT
E1D0R2C7+0011. Position of that monument is believed to be  COMMENT
valid to within 1 m horizontally; vertical accuracy         COMMENT
should be no worse than 3-times this value.                 COMMENT
                                                            COMMENT
Revised Rinex header created by UCSD GPS archive for        COMMENT
GSAC on 13-Apr-1999 (1999:103) 18:40:12 GMT                 COMMENT
For assistance contact dagnew@ucsd.edu or hjohnson@ucsd.edu COMMENT
                                                            COMMENT
HARVEY MUDD COLLEGE PHYSICS                                 MARKER NAME
WRP HARVEY MUDD COLLEGE                                     OBSERVER / AGENCY
T-262/263 TURBOROGUE SNR-8000 95.03.08                      REC # / TYPE / VERS
260/329 DORNE-MARGOL. TYPE T                                ANT # / TYPE
 -2458598.0000 -4680494.0000  3556451.0000                  APPROX POSITION XYZ
        0.0000        0.0000        0.0000                  ANTENNA: DELTA H/E/N
     1     1     0                                          WAVELENGTH FACT L1/2
     5    L1    L2    C1    P2    P1                        # / TYPES OF OBSERV
     0                                                      INTERVAL
  1995     5    31     0     0    0.000000                  TIME OF FIRST OBS
  1995     5    31    23    59   30.000000                  TIME OF LAST OBS
     0                                                      # OF SATELLITES
                                                            END OF HEADER
 95  5 31  0  0  0.0000000  0  7G17G24G23G16G 6G20G 5
 -14387536.41144 -11211056.01344  22325256.5854   22325258.9944
                                  20880392.63544  24394212.2624
  -2897377.15144  -2257691.92544  24745138.5114   24745146.2464
 -15495012.91644 -12074024.12644  21456615.0984   21456616.7254
 -20451005.14344 -15935838.90144  20699331.9534   20699333.2054
 -20673796.92944 -16109447.65044  20964688.7334   20964691.3424
  12541862.82244   9772873.19544  22905283.4924   22905286.5864
 95  5 31  0  0 30.0000000  0  7G17G24G23G 6G16G20G 5
 -14449937.61144 -11259680.28244  22313382.1104   22313385.0474
                                  20959394.79544  24409113.2204
  -3004155.15844  -2340895.41544  24724819.5774
 -20492625.97244 -15968270.70844  20691411.8654   20691412.8814
 -15446534.30744 -12036248.60744  21465840.3984   21465842.1004
 -20617873.06544 -16065870.63444  20975330.5394   20975332.6314
  12645854.06844   9853905.27944  22925072.0604   22925074.1394
 95  5 31  0  1  0.0000000  0  6G23G 6G17G16G20G 5
  -3110837.03344  -2424024.03844  24704518.3754   24704521.5784
 -20533926.95444 -16000453.28244  20683552.5444   20683553.4674
 -14512078.61644 -11308101.80444  22301556.6484   22301559.8224
 -15397505.07644 -11998044.03644  21475170.3214   21475172.0164
 -20561413.85144 -16021876.46144  20986074.3094   20986076.3624
  12750073.63644   9935115.25744  22944904.1274   22944907.0894
 95  5 31  0  1 30.0000000  0  7G24G23G 6G17G16G20G 5
        -0.79654        -1.11854  24438866.7634   24438866.1424
  -3217485.54944  -2507126.68244  24684223.3864   24684230.5894
 -20574964.44244 -16032430.54244  20675743.2434   20675744.3344
 -14574017.73444 -11356366.01844  22289770.0304   22289773.1174
 -15348002.05744 -11959470.26244  21484590.6684   21484592.2174
 -20504494.46044 -15977523.70644  20996905.8424   20996908.2414
  12854449.09544  10016446.73444  22964766.4374   22964769.7664
 95  5 31  0  2  0.0000000  0  7G24G23G 6G17G16G20G 5
     78095.99244     60853.49044  24453728.5054   24453726.4274
  -3324043.68844  -2590158.85244  24663945.7874   24663951.7764
 -20615688.36944 -16064163.46444  20667993.6944   20667995.2164
 -14635686.27844 -11404419.38744  22278034.7244   22278037.7614
 -15297982.94344 -11920494.32244  21494109.2654   21494110.8324
 -20447060.77244 -15932770.20544  21007835.2724   21007837.6164
  12959011.09444  10097923.55544  22984664.0784   22984667.5924
 95  5 31  0  2 30.0000000  0  7G24G23G 6G17G16G20G 5
    156140.98744    121667.78644  24468579.6624   24468579.5464
  -3430537.18944  -2673140.66244  24643680.6234   24643688.3214
 -20656136.62844 -16095681.57844  20660296.9244   20660298.3454
 -14697100.32944 -11452274.44444  22266348.3474   22266351.3614
 -15247466.68844 -11881131.00244  21503721.9644   21503723.6304
 -20389124.75144 -15887625.26944  21018860.2624   21018862.5834
  13063740.89344  10179531.14344  23004593.4754   23004596.5334
 95  5 31  0  3  0.0000000  0  7G24G23G 6G17G16G20G 5
    234111.65444    182424.14144  24483416.5944   24483418.5344
  -3536991.62544  -2756092.03544  24623423.0094   24623428.7634
 -20696346.22744 -16127013.71844  20652645.1054   20652646.3034
 -14758292.59644 -11499956.69644  22254703.7834   22254706.0954
 -15196491.52144 -11841410.09344  21513422.0734   21513423.7244
 -20330712.86044 -15842109.52944  21029975.8384   21029977.9004
  13168610.95144  10261248.00344  23024549.5214   23024552.7154
 95  5 31  0  3 30.0000000  0  7G24G23G 6G17G16G20G 5
    312045.99944    243152.19544  24498246.5894   24498248.2634
  -3643381.43644  -2838993.09044  24603177.1064   24603178.8574
 -20736305.55144 -16158150.84544  20645041.1784   20645042.2444
 -14819266.03744 -11547468.43544  22243100.2534   22243103.3334
 -15145047.19744 -11801323.60744  21523211.4484   21523213.1824
 -20271808.32444 -15796209.90144  21041184.7594   21041187.0164
  13273632.44544  10343082.85344  23044534.6644   23044537.8654
 95  5 31  0  4  0.0000000  0  7G24G23G 6G17G16G20G 5
    389957.42544    303862.33544  24513072.4404   24513078.8914
  -3749696.21144  -2921835.67244  24582947.4084   24582949.0704
 -20776014.01544 -16189092.50244  20637484.9214   20637486.0564
 -14880010.15844 -11594801.47844  22231541.3714   22231544.2634
 -15093111.13044 -11760853.95344  21533094.8144   21533096.3514
 -20212398.97444 -15749916.91744  21052490.0214   21052492.5124
  13378820.18644  10425047.27144  23064551.6114   23064554.7214
 95  5 31  0  4 30.0000000  0  7G24G23G 6G17G16G20G 5
    467823.18744    364536.83844  24527886.5304   24527894.9694
  -3855971.14844  -3004647.15644  24562722.8714   24562726.8484
 -20815497.36644 -16219858.73944  20629971.5434   20629972.7054
 -14940565.09844 -11641987.10144  22220018.5564   22220021.1544
 -15040702.89544 -11720016.37744  21543068.1634   21543069.6674
 -20152522.68144 -15703260.08644  21063883.9604   21063886.3744
  13484153.58444  10507125.17944  23084595.5364   23084597.4054
 95  5 31  0  5  0.0000000  0  7G24G23G 6G17G16G20G 5
    545676.33944    425201.52144  24542703.1554   24542710.4384
  -3962172.28944  -3087401.21344  24542512.7564   24542515.8364
 -20854710.69444 -16250414.56644  20622509.4974   20622510.6434
 -15000911.79644 -11689010.46144  22208534.5354   22208536.6674
 -14987803.07444 -11678795.74944  21553134.4194   21553135.8054
 -20092153.93444 -15656219.53144  21075371.7964   21075374.3584
  13589652.79544  10589332.28144  23104671.6184   23104674.5104
 95  5 31  0  5 30.0000000  0  7G24G23G 6G17G16G20G 5
    623540.13344    485874.50744  24557523.0274   24557526.4264
  -4068275.72944  -3170079.03544  24522323.2034   24522328.7874
 -20893616.32044 -16280730.62844  20615105.9214   20615107.3064
 -15061016.61244 -11735845.34244  22197097.3734   22197099.8004
 -14934377.34044 -11637165.33444  21563300.8114   21563302.6484
 -20031254.81644 -15608765.69544  21086960.4834   21086963.0444
  13695338.61344  10671684.78844  23124783.2824   23124786.2384
 95  5 31  0  6  0.0000000  0  7G24G23G 6G17G16G20G 5
    701393.24644    546539.20344  24572337.2664   24572339.4544
  -4174289.30644  -3252686.88744  24502148.2354   24502151.2844
 -20932223.23544 -16310813.93344  20607759.2674   20607760.6144
 -15120873.97344 -11782487.40544  22185706.9094   22185709.9814
 -14880422.03244 -11595122.25444  21573568.4554   21573569.9734
 -19969837.71444 -15560908.23444  21098647.7544   21098650.1774
  13801210.34444  10754182.18244  23144929.8774   23144933.2534
 95  5 31  0  6 30.0000000  0  7G24G23G 6G17G16G20G 5
    779189.46444    607159.60244  24587142.7334   24587144.2904
  -4280266.12744  -3335266.09744  24481982.2844
 -20970590.93744 -16340710.83544  20600458.3654   20600459.7054
 -15180542.69344 -11828982.47044  22174352.5644   22174355.1844
 -14826004.13744 -11552718.71644  21583923.4644   21583925.2474
 -19907963.80144 -15512694.82244  21110422.1454   21110424.6354
  13907202.09544  10836773.11244  23165099.0914   23165102.2494
 95  5 31  0  7  0.0000000  0  7G24G23G 6G17G16G20G 5
    856974.44544    667771.29044  24601945.3204   24601944.8674
  -4386135.07444  -3417761.30744  24461835.9224   24461840.8614
 -21008650.10544 -16370367.32144  20593215.9354   20593216.9114
 -15239946.70344 -11875271.25844  22163047.7624   22163050.4944
 -14771064.71444 -11509908.78944  21594378.4244   21594380.5554
 -19845575.95644 -15464080.94244  21122294.2914   21122296.6454
  14013363.26244  10919496.02744  23185301.0654   23185302.9814
 95  5 31  0  7 30.0000000  0  7G24G23G 6G17G16G20G 5
    934720.19544    728352.47144  24616738.9834   24616735.9424
  -4491910.20344  -3500183.34744  24441707.9324   24441713.5924
 -21046435.09644 -16399810.15944  20586025.5514   20586026.7334
 -15299113.67144 -11921375.36144  22151788.0954   22151791.1664
 -14715619.43144 -11466704.67844  21604929.1934   21604930.9494
 -19782718.52444 -15415101.14944  21134255.8944   21134258.0394
  14119667.15844  11002330.17944  23205529.6824   23205535.1154
 95  5 31  0  8  0.0000000  0  7G24G23G 6G17G16G20G 5
   1012437.52644    788911.46344  24631528.4204   24631526.0264
  -4597576.49444  -3582520.59744  24421598.8754   24421600.4654
 -21083944.74044 -16429038.44944  20578887.7044   20578888.5834
 -15358039.11244 -11967291.24144  22140575.3634   22140578.1154
 -14659683.81344 -11423118.49444  21615573.3514   21615575.0564
 -19719405.70544 -15365766.50844  21146303.9354   21146306.1274
  14226112.08544  11085274.21744  23225786.6444   23225789.5014
 95  5 31  0  8 30.0000000  0  7G24G23G 6G17G16G20G 5
   1090110.80544    849436.12944  24646307.3744
  -4703146.52544  -3664782.84644  24401510.2194   24401516.1004
 -21121176.57344 -16458050.26444  20571802.8254   20571803.7794
 -15416740.94244 -12013032.88244  22129404.7914   22129406.7884
 -14603296.73844 -11379180.51144  21626303.8214   21626305.4654
 -19655650.35244 -15316087.03544  21158435.7984   21158438.4554
  14332664.11744  11168301.70944  23246062.5334   23246066.3604
 95  5 31  0  9  0.0000000  0  6G23G17G16G20G 5G 6
  -4808569.48744  -3746930.51144  24381448.7074   24381450.4954
 -15475169.43444 -12058561.55144  22118286.3344   22118289.1884
 -14546414.69944 -11334856.84844  21637127.8644   21637129.4834
 -19591411.76844 -15266031.02244  21170659.9604   21170662.8184
  14439366.02044  11251446.01444  23266367.5724   23266369.7524
 -21158074.06744 -16486801.55444  20564781.5084   20564782.4234
 95  5 31  0  9 30.0000000  0  6G23G 6G17G16G20G 5
  -4913917.90944  -3829020.05044  24361401.6484   24361408.0744
 -21194699.07344 -16515340.51744  20557811.9574   20557813.0194
 -15533388.25944 -12103926.83244  22107207.7044   22107210.7904
 -14489117.73344 -11290209.87644  21648031.1604   21648033.2644
 -19526758.24344 -15215651.67944  21182963.1574   21182965.6474
  14546161.47244  11334663.18944  23286690.2104   23286693.7444
 95  5 31  0 10  0.0000000  0  7G24G23G 6G17G16G20G 5
        -0.67354        -0.07754  24690609.3894   24690611.1174
  -5019182.54244  -3911044.32544  24341369.9244   24341372.2404
 -21231015.29644 -16543638.86844  20550901.2064   20550902.1974
 -15591356.01444 -12149096.46044  22096176.7324   22096179.7094
 -14431385.36544 -11245223.63944  21659017.3044   21659019.0864
 -19461649.52444 -15164917.63244  21195353.1914   21195355.5564
  14653071.54344  11417969.64944  23307034.3974   23307036.9114
 95  5 31  0 10 30.0000000  0  8G24G26G23G 6G17G16G20G 5
     77558.23244     60435.40444  24705369.5874   24705372.1124
        -0.26554                  24047510.8284
  -5124305.19544  -3992957.94244  24321365.6544   24321370.8244
 -21266968.92244 -16571654.67544  20544059.4404   20544060.5774
 -15649018.49844 -12194028.22544  22085203.9084   22085206.9004
 -14373147.01044 -11199843.11544  21670099.8014   21670101.3344
 -19396029.17844 -15113784.92044  21207840.5124   21207842.6744
  14760148.82144  11501406.41244  23327410.3224   23327412.9544
 95  5 31  0 11  0.0000000  0  8G24G26G23G 6G17G16G20G 5
    155060.58344    120826.76844  24720117.9444   24720122.5664
    -78581.58444                  24032555.8324
  -5229349.56144  -4074810.57744  24301374.9624   24301378.9604
 -21302640.07944 -16599450.37744  20537271.4614   20537272.5754
 -15706450.89144 -12238780.69644  22074275.2124   22074278.0354
 -14314459.78144 -11154112.82644  21681267.4384   21681269.2404
 -19329965.87544 -15062307.04444  21220411.8694   21220414.0594
  14867333.70144  11584927.03644  23347806.7344   23347811.3274
 95  5 31  0 11 30.0000000  0  8G24G26G23G 6G17G16G20G 5
    232442.13944    181124.02044  24734843.1394   24734847.7054
   -157171.85044                  24017600.0104
  -5334379.00644  -4156651.60144  24281390.4124   24281393.6094
 -21338094.88944 -16627077.49844  20530524.6964   20530525.6964
 -15763723.37944 -12283408.58044  22063376.2164   22063378.4684
 -14255367.33144 -11108066.78144  21692512.5654   21692514.2884
 -19263512.76144 -15010525.41644  21233057.3464   21233059.6254
  14974564.38344  11668483.34444  23368212.4194   23368216.0144
 95  5 31  0 12  0.0000000  0  8G24G26G23G 6G17G16G20G 5
    309743.26644    241358.63744  24749554.1094
   -235728.84644                  24002651.1464
  -5439343.48444  -4238441.98244  24261414.8524   24261421.1024
 -21373300.49344 -16654510.43244  20523825.0814   20523826.1674
 -15820819.32344 -12327898.88644  22052511.7384   22052513.3714
 -14195815.54744 -11061662.80644  21703844.8074   21703846.7354
 -19196623.03944 -14958403.57444  21245786.2504   21245788.2454
  15081871.11744  11752098.91144  23388631.6774   23388633.8564
 95  5 31  0 12 30.0000000  0  8G24G26G23G 6G17G16G20G 5
    386993.80144                  24764253.7044
   -314208.89644                  23987718.4084
  -5544194.82244  -4320144.17244  24241463.0564   24241468.1644
 -21408226.68944 -16681725.64744  20517178.9624   20517180.0104
 -15877728.67644 -12372243.78744  22041682.1554   22041683.9464
 -14135791.76944 -11014891.03044  21715266.8274   21715268.9214
 -19129274.12144 -14905923.92044  21258602.4914   21258604.9854
  15189295.97644  11835806.55344  23409074.6184   23409077.3424
 95  5 31  0 13  0.0000000  0  7G26G23G 6G17G16G20G 5
   -392710.82344                  23972779.3444
  -5649031.47244  -4401834.97844  24221514.2104   24221519.6364
 -21442964.05844 -16708793.72344  20510568.7234   20510569.7684
 -15934550.53944 -12416520.52544  22030869.0444   22030871.7504
 -14075407.78144 -10967838.57844  21726757.5974   21726759.5444
 -19061561.57444 -14853160.92144  21271487.8134   21271489.9204
  15296751.01544  11919537.67944  23429522.5934   23429526.4304
 95  5 31  0 13 30.0000000  0  7G26G23G 6G17G16G20G 5
   -471196.80644                  23957843.9594
  -5753832.60744  -4483498.07044  24201570.5814   24201573.4074
 -21477480.20844 -16735689.42144  20504000.4564   20504001.4154
 -15991252.50344 -12460703.83044  22020079.3914   22020081.2854
 -14014651.87344 -10920496.31244  21738319.2204   21738320.8754
 -18993458.31544 -14800093.47644  21284447.3954   21284449.9074
  15404265.39344  12003315.06944  23449982.0874   23449983.2244
 95  5 31  0 14  0.0000000  0  7G26G23G 6G17G16G20G 5
   -549531.77744                  23942935.7844
  -5858470.26944  -4565033.75544  24181658.6244   24181663.7644
 -21511639.23044 -16762306.83644  20497500.5394   20497501.5724
 -16047705.40744 -12504693.06044  22009336.2724   22009338.5214
 -13953426.01144 -10872787.85344  21749970.0444   21749971.8314
 -18924839.88744 -14746624.60044  21297504.9884   21297507.2194
  15511960.90144  12087233.59044  23470476.6004   23470479.7664
 95  5 31  0 14 30.0000000  0  8G24G26G23G 6G17G16G20G 5
        -0.03954         0.59054  24822878.6214   24822881.8944
   -627651.06544                  23928070.9134
  -5962875.09744  -4646388.07844  24161790.9524   24161797.5564
 -21545366.07844 -16788587.49444  20491082.1234   20491083.5244
 -16103824.03444 -12548421.83844  21998656.8864   21998659.6624
 -13891670.96144 -10824667.03544  21761721.9694   21761723.3364
 -18855647.96344 -14692708.84044  21310671.8124   21310674.4344
  15619899.46144  12171341.49444  23491015.8514   23491018.9254
 95  5 31  0 15  0.0000000  0  8G24G26G23G 6G17G16G20G 5
     77022.79044     60018.33644  24837535.8074   24837538.8464
   -705649.61244                  23913227.7524
  -6067153.64044  -4727643.93444  24141946.9564   24141952.4984
 -21578750.85644 -16814601.60344  20484729.2104   20484730.2794
 -16159683.62144 -12591948.75744  21988027.8964   21988029.9134
 -13829453.44344 -10776185.85344  21773561.1344   21773562.9544
 -18785983.42644 -14638424.81144  21323928.1044   21323931.0294
  15727967.14344  12255550.01144  23511580.3134   23511582.2834
 95  5 31  0 15 30.0000000  0  8G24G26G23G 6G17G16G20G 5
    154012.35244    120010.12844  24852185.3944   24852189.4804
   -783532.24544                  23898408.7844
  -6171335.69044  -4808824.63444  24122122.0984   24122125.7074
 -21611806.24744 -16840359.04744  20478439.1924   20478440.2744
 -16215302.81844 -12635288.35244  21977443.5754   21977445.9024
 -13766781.71244 -10727350.74544  21785487.1014   21785488.7794
 -18715866.76444 -14583788.47944  21337271.1794   21337274.0104
  15836124.06644  12339828.07944  23532162.4434   23532166.7464
 95  5 31  0 16  0.0000000  0  8G24G26G23G 6G17G16G20G 5
    231030.59344    180024.29344  24866842.7134   24866842.7314
   -861236.80644                  23883619.7754
  -6275338.68944  -4889865.81444  24102330.3024   24102333.8614
 -21644457.40244 -16865801.50044  20472225.7114   20472226.9704
 -16270611.46644 -12678385.97244  21966918.1494   21966920.9624
 -13703583.63644 -10678105.49944  21797513.6694   21797515.5044
 -18645235.74144 -14528751.35044  21350711.9624   21350714.4084
  15944425.02944  12424218.38144  23552771.4434   23552775.0034
 95  5 31  0 16 30.0000000  0  7G26G23G 6G17G16G20G 5
   -938764.28044                  23868869.0524
  -6379158.61844  -4970764.32244  24082572.9874   24082578.5314
 -21676712.33844 -16890935.21344  20466087.8474   20466089.0894
 -16325593.83144 -12721229.34144  21956455.6174   21956458.0364
 -13639857.03144 -10628448.40644  21809640.5384   21809642.0474
 -18574104.39644 -14473324.35144  21364247.8724   21364250.4114
  16052874.73844  12508724.58644  23573408.9854   23573410.0824
 95  5 31  0 17  0.0000000  0  7G26G23G 6G17G16G20G 5
  -1016209.95644                  23854131.0114
  -6482921.56444  -5051618.43844  24062828.4044   24062833.5274
 -21708692.56244 -16915854.86844  20460002.2284   20460003.1504
 -16380366.88344 -12763909.60644  21946032.8644   21946035.0184
 -13575725.87344 -10578476.07644  21821843.8734   21821845.3334
 -18502577.79244 -14417589.36244  21377858.6664   21377861.4494
  16161361.23444  12593259.43144  23594052.7624   23594054.9474
 95  5 31  0 17 30.0000000  0  7G26G23G 6G17G16G20G 5
  -1093629.03944                  23839398.6164
  -6586663.68144  -5132456.32944  24043086.8934   24043093.5494
 -21740462.10944 -16940610.35744  20453956.7444   20453957.4024
 -16435009.25944 -12806488.05244  21935634.8314   21935636.8504
 -13511278.41744 -10528257.28444  21834107.9344   21834109.4134
 -18430707.40044 -14361586.48844  21391534.6774   21391537.5714
  16269833.18744  12677782.97044  23614694.8984   23614698.7784
 95  5 31  0 18  0.0000000  0  7G26G23G 6G17G16G20G 5
  -1170852.55944                  23824702.7164
  -6690182.64144  -5213120.32144  24023386.9514   24023393.5294
 -21771853.40144 -16965071.10144  20447983.1914   20447984.1634
 -16489351.30744 -12848832.47944  21925293.4424   21925295.8074
 -13446354.36944 -10477667.12744  21846462.2154   21846464.2474
 -18358340.46544 -14305196.69644  21405306.0994   21405308.9604
  16378480.72444  12762443.32544  23635369.0834   23635370.7384
 95  5 31  0 18 30.0000000  0  8G24G26G23G 6G17G16G20G 5
        -0.44454                  24940032.1194
  -1247885.36344                  23810043.5024
  -6793494.05744  -5293622.60444  24003728.6204   24003733.2704
 -21802879.61044 -16989247.36344  20442079.0684   20442079.9704
 -16543404.21244 -12890951.59044  21915007.3194   21915010.0894
 -13380963.14144 -10426712.93344  21858905.9384   21858907.3704
 -18285505.94744 -14248442.54544  21419166.7584   21419169.1124
  16487298.36744  12847236.19844  23656076.5154   23656081.7504
 95  5 31  0 19  0.0000000  0  8G24G26G23G 6G17G16G20G 5
     76810.78344     59852.50744  24954648.3494   24954651.5384
  -1324812.83744                  23795406.9524
  -6896660.11944  -5374011.64644  23984096.7994   23984102.4424
 -21833596.56344 -17013182.65044  20436233.7944   20436234.8584
 -16597258.69344 -12932916.08844  21904759.2104   21904762.2754
 -13315173.94044 -10375448.62944  21871425.2674   21871427.1264
 -18212278.91044 -14191382.53444  21433101.0504   21433103.3984
  16596195.18344  12932090.82744  23676799.2904   23676800.8224
 95  5 31  0 19 30.0000000  0  8G24G26G23G 6G17G16G20G 5
    153565.07544    119660.96544  24969254.0044   24969257.6774
  -1401624.41044                  23780789.0694
  -6999638.31444  -5454254.27844  23964500.1334   23964504.7494
 -21863966.24144 -17036847.32944  20430454.5324   20430455.7834
 -16650884.33644 -12974702.28044  21894554.8504   21894557.1634
 -13248948.57344 -10323844.46144  21884027.5974   21884029.3354
 -18138655.30944 -14134013.51944  21447111.3104   21447113.6014
  16705188.58044  13017020.64244  23697538.8194   23697541.5184
 95  5 31  0 20  0.0000000  0  8G24G26G23G 6G17G16G20G 5
    230223.29344    179394.57444  24983840.6754   24983846.1184
  -1478362.59544                  23766185.5044
  -7102482.62744  -5534392.62444  23944930.1214   23944933.4664
 -21894018.45944 -17060264.63744  20424735.9934   20424736.8754
 -16704299.22844 -13016324.24844  21884390.2104   21884392.4524
 -13182311.49544 -10271919.47544  21896708.1764   21896709.7104
 -18064680.97744 -14076371.21644  21461188.0554   21461190.2754
  16814224.43444  13101983.56544  23718288.9814   23718293.5304
 95  5 31  0 20 30.0000000  0  7G26G23G 6G17G16G20G 5
  -1555056.59144                  23751592.6284
  -7205241.34844  -5614464.21844  23925375.2074   23925377.5344
 -21923777.52444 -17083453.51844  20419072.9834   20419074.0784
 -16757523.05044 -13057797.33244  21874262.2924   21874264.2834
 -13115285.45544 -10219691.40744  21909462.5474   21909464.3684
 -17990367.95744 -14018465.00144  21475329.2254   21475331.8914
  16923253.89744  13186941.49644  23739037.4924   23739041.5154
 95  5 31  0 21  0.0000000  0  7G26G23G 6G17G16G20G 5
  -1631674.18644                  23737012.0154
  -7307891.62044  -5694451.31244  23905841.7644   23905846.1504
 -21953228.55644 -17106402.36944  20413468.5354   20413469.5814
 -16810546.38644 -13099114.19544  21864172.2604   21864174.5044
 -13047842.95244 -10167138.82144  21922296.9694   21922298.6554
 -17915677.16844 -13960264.42544  21489542.3004   21489545.0674
  17032283.24544  13271899.37344  23759784.5234   23759787.7194
 95  5 31  0 21 30.0000000  0  7G26G23G 6G17G16G20G 5
  -1708114.90344                  23722463.9324
  -7410362.24644  -5774298.45744  23886342.5474   23886345.3934
 -21982302.61444 -17129057.47544  20407936.0084   20407936.9414
 -16863293.53744 -13140215.84344  21854134.4894   21854136.8154
 -12979900.80744 -10114196.89844  21935226.0254   21935227.3904
 -17840527.88144 -13901706.57744  21503842.6234   21503845.3954
  17141415.35044  13356937.28544  23780551.6434   23780556.7314
 95  5 31  0 22  0.0000000  0  7G26G23G 6G17G16G20G 5
  -1784429.23144  -1390461.40744  23707942.7824
  -7512731.75944  -5854066.79944  23866861.6604   23866864.7214
 -22011073.84444 -17151476.61344  20402460.8034   20402461.8534
 -16915855.86644 -13181173.48144  21844132.0614   21844134.5564
 -12911538.77844 -10060927.79544  21948234.4614   21948236.5644
 -17764986.21844 -13842842.97544  21518217.8844   21518220.6674
  17250582.32544  13442002.38544  23801326.1994   23801327.7014
 95  5 31  0 22 30.0000000  0  8G24G26G23G 6G17G16G20G 5
        -0.17454         4.31154  25056590.1694   25056593.0794
  -1860633.51844                  23693440.5044
  -7615029.47544  -5933779.19744  23847394.9254   23847398.5034
 -22039580.69544 -17173689.74144  20397036.3714   20397037.4254
 -16968286.28744 -13222028.33144  21834155.0654   21834157.6274
 -12842797.10144 -10007362.87544  21961315.7534   21961317.7984
 -17689094.49044 -13783706.59344  21532660.0504   21532662.9154
  17359757.87644  13527074.14444  23822101.3124   23822105.5864
 95  5 31  0 23  0.0000000  0  7G26G23G 6G17G16G20G 5
  -1936617.99844                  23678983.0124
  -7717145.31744  -6013349.88644  23827962.9454   23827966.4234
 -22067718.63644 -17195615.40644  20391682.0644   20391682.8494
 -17020498.47144 -13262713.12344  21824219.9614   21824222.5414
 -12773585.73144  -9953431.95944  21974486.5534   21974487.9514
 -17612761.91644 -13724226.68944  21547185.8184   21547188.3274
  17469045.96044  13612233.58444  23842898.3174   23842902.5184
 95  5 31  0 23 30.0000000  0  7G26G23G 6G17G16G20G 5
  -2012422.31344                  23664556.7084
  -7819101.71644  -6092796.32444  23808561.5074   23808566.2044
 -22095501.07044 -17217264.05144  20386394.8424   20386395.8914
 -17072505.13544 -13303237.77944  21814323.3684   21814325.6334
 -12703957.79644  -9899176.43444  21987736.1004   21987737.7274
 -17536025.06944 -13664431.76444  21561788.1284   21561790.0874
  17578421.78144  13697461.44744  23863710.9604   23863713.9054
 95  5 31  0 24  0.0000000  0  7G26G23G 6G17G16G20G 5
  -2088138.21244                  23650148.0214
  -7920979.34544  -6172181.37744  23789173.8564   23789179.4134
 -22123017.21544 -17238705.20044  20381159.1804   20381160.2344
 -17124377.11144 -13343657.47844  21804452.0874   21804454.2794
 -12634017.74144  -9844677.70344  22001045.2134   22001046.7604
 -17458969.23244 -13604388.27844  21576451.5504   21576453.5074
  17687764.19444  13782663.27144  23884518.2614   23884522.6464
 95  5 31  0 24 30.0000000  0  7G26G23G 6G17G16G20G 5
  -2163723.98544  -1686015.47544  23635766.2374
  -8022690.83144  -6251436.98344  23769818.5114   23769822.1614
 -22150198.26844 -17259885.23844  20375986.4774   20375987.5964
 -17176025.05944 -13383902.60644  21794623.7544   21794626.1104
 -12563722.73944  -9789902.38544  22014421.8104   22014423.5574
 -17381519.58144 -13544037.93044  21591189.5794   21591191.7834
  17797134.29544  13867886.65644  23905330.7674   23905334.2444
 95  5 31  0 25  0.0000000  0  7G26G23G 6G17G16G20G 5
  -2239178.46644                  23621406.4684
  -8124216.54644  -6330547.82944  23750499.3284   23750502.4474
 -22177030.94044 -17280793.80644  20370880.2454   20370881.2394
 -17227423.81844 -13423953.56144  21784842.4274   21784845.2464
 -12493075.00544  -9734852.21144  22027865.5484   22027867.6254
 -17303652.26644 -13483362.13344  21606006.8874   21606009.5374
  17906533.98244  13953133.05744  23926148.5694   23926152.7404
 95  5 31  0 25 30.0000000  0  7G26G23G 6G17G16G20G 5
  -2314476.10644  -1803484.53244  23607078.0174
  -8225536.74844  -6409498.52944  23731219.7784   23731222.3174
 -22203486.33844 -17301408.40044  20365846.2734   20365846.9904
 -17278540.78844 -13463784.94744  21775115.4714   21775117.7884
 -12422056.62844  -9679513.22644  22041380.1734   22041381.6384
 -17225338.88644 -13422338.74844  21620909.6784   21620912.8174
  18015979.49844  14038415.16644  23946975.0494   23946978.6804
 95  5 31  0 26  0.0000000  0  7G26G23G 6G17G16G20G 5
  -2389569.06044  -1861998.44244  23592787.5404
  -8326620.79244  -6488265.21444  23711984.3764   23711986.9334
 -22229546.60144 -17321715.09144  20360887.0384   20360888.1394
 -17329358.09144 -13503382.82044  21765445.2324   21765447.6594
 -12350631.90644  -9623857.60744  22054972.1074   22054974.3784
 -17146561.80744 -13360954.03244  21635900.6754   21635903.2874
  18125494.10544  14123751.17944  23967816.0314   23967820.3464
 95  5 31  0 26 30.0000000  0  7G26G23G 6G17G16G20G 5
  -2464467.51444  -1920360.84744  23578535.0194
  -8427506.23844  -6566877.16644  23692786.0564   23692789.6404
 -22255227.20344 -17341725.94344  20356000.0764   20356001.0874
 -17379922.66044 -13542783.76644  21755822.9734   21755825.2464
 -12278823.33044  -9567902.89144  22068636.5304   22068638.4384
 -17067360.23044 -13299238.54244  21650971.7074   21650974.8184
  18235065.55044  14209131.44644  23988666.9344   23988670.6804
 95  5 31  0 27  0.0000000  0  7G26G23G 6G17G16G20G 5
  -2539116.97744  -1978529.17144  23564329.2734   23564333.1634
  -8528190.55144  -6645332.37444  23673625.6584   23673628.6324
 -22280517.29844 -17361432.50944  20351187.6914   20351188.7584
 -17430228.89144 -13581983.40644  21746250.1254   21746252.6704
 -12206583.73144  -9511612.31144  22082383.1134   22082384.7184
 -16987738.53044 -13237195.69044  21666123.4514   21666126.3704
  18344708.54844  14294567.44744  24009530.2664   24009536.0044
 95  5 31  0 27 30.0000000  0  7G26G23G 6G17G16G20G 5
  -2613567.44144  -2036542.49644  23550163.1254   23550166.3354
  -8628737.99844  -6723680.92144  23654492.0074   23654495.6034
 -22305484.78844 -17380887.69344  20346436.2344   20346437.3654
 -17480345.45844 -13621035.25544  21736713.2054   21736715.4124
 -12133958.61144  -9455021.31944  22096203.0324   22096205.1254
 -16907787.91344 -13174896.54344  21681337.3844   21681340.1644
  18454372.48844  14380019.82044  24030400.7524
 95  5 31  0 28  0.0000000  0  7G26G23G 6G17G16G20G 5
  -2687787.75344  -2094376.42144  23536039.1534
  -8729106.30544  -6801889.91544  23635392.7014   23635394.9504
 -22330101.54744 -17400069.57744  20341752.1454   20341753.1324
 -17530236.48844 -13659911.36544  21727219.5904   21727221.4914
 -12060901.52844  -9398093.73944  22110105.9644   22110107.3844
 -16827485.69444 -13112323.42444  21696618.6734   21696621.3274
  18564114.13544  14465532.70944  24051282.8204
 95  5 31  0 28 30.0000000  0  7G26G23G 6G17G16G20G 5
  -2761779.57344  -2152032.37344  23521958.0394   23521959.8574
  -8829275.40844  -6879943.67244  23616329.8664   23616332.9404
 -22354335.65344 -17418953.29144  20337140.4084   20337141.1444
 -17579877.84844 -13698592.92744  21717772.6644   21717774.9344
 -11987392.02744  -9340813.62744  22124093.8084   22124095.7324
 -16746803.77844 -13049454.43944  21711972.1324   21711974.3234
  18673947.28944                  24072183.8474
 95  5 31  0 29  0.0000000  0  7G26G23G 6G17G16G20G 5
  -2835563.16944  -2209525.98644  23507917.6384   23507919.3534
  -8929235.49744  -6957834.54544  23597308.4974   23597312.1134
 -22378190.66844 -17437541.61044  20332600.7854   20332601.7064
 -17629252.69844 -13737066.81944  21708376.9094   21708379.9124
 -11913435.95444  -9283185.54544  22138167.3244   22138169.4614
 -16665748.47744 -12986294.49144  21727396.3324   21727398.7284
  18783859.49044                  24093099.9584
 95  5 31  0 29 30.0000000  0  7G26G23G 6G17G16G20G 5
  -2909235.35544  -2266932.82744  23493898.9834   23493903.9884
  -9029052.47144  -7035613.93544  23578313.7884   23578317.1814
 -22401712.18944 -17455870.06344  20328124.9204   20328125.8714
 -17678422.52844 -13775380.95244  21699020.5384   21699023.5234
 -11839126.42644  -9225282.03644  22152308.0574   22152309.7014
 -16584377.89544 -12922888.86944  21742880.6874   21742883.7174
  18893778.19544                  24114015.2984
 95  5 31  0 30  0.0000000  0  7G26G23G 6G17G16G20G 5
  -2982773.03844  -2324234.84944  23479905.9084   23479907.3984
  -9128702.80344  -7113263.45244  23559351.1874   23559354.1934
 -22424865.05544 -17473911.25644  20323719.1034   20323720.0724
 -17727366.04044 -13813518.74144  21689706.6054   21689709.3874
 -11764459.03444  -9167099.66844  22166516.9674   22166518.6304
 -16502642.64644 -12859199.09544  21758434.5794   21758437.6804
  19003703.60544                  24134936.9224
 95  5 31  0 30 30.0000000  0  6G26G23G 6G17G16G20
  -3056192.56544  -2381444.83244  23465933.9504   23465934.7594
  -9228219.33244  -7190808.72244  23540414.9054   23540417.1434
 -22447679.28844 -17491688.57644  20319377.6254   20319378.3894
 -17776126.37044 -13851513.78844  21680428.0284   21680429.9434
 -11689479.18944  -9108673.82944  22180785.1024   22180787.1394
 -16420578.48544 -12795253.03244  21774050.5594   21774053.5554
 95  5 31  0 31  0.0000000  0  6G26G23G 6G17G16G20
  -3129493.42144  -2438562.30644  23451984.3434   23451986.1004
  -9327635.69944  -7268275.94844  23521495.8674   23521499.4984
 -22470189.14644 -17509228.72644  20315094.1494   20315095.1174
 -17824738.05244 -13889393.00144  21671177.5924   21671179.7544
 -11614220.93944  -9050031.06544  22195106.0934   22195107.7494
 -16338232.97144 -12731087.73244  21789720.3934   21789723.4514
 95  5 31  0 31 30.0000000  0  6G26G23G 6G17G16G20
  -3202648.88844  -2495566.50144  23438063.7874   23438063.2104
  -9426949.28644  -7345663.10144  23502596.4344   23502599.6164
 -22492390.35644 -17526528.37244  20310869.3044   20310870.5534
 -17873218.57544 -13927170.01644  21661952.0214   21661954.0694
 -11538685.82744  -8991172.56044  22209480.1984   22209481.8804
 -16255590.62644 -12666691.14144  21805446.9354   21805449.5114
 95  5 31  0 32  0.0000000  0  6G26G23G 6G17G16G20
  -3275485.10744  -2552321.94044  23424203.8574   23424206.2594
  -9526001.42144  -7422846.50844  23483747.0984   23483751.3534
 -22514146.44544 -17543481.16644  20306729.3254   20306730.2764
 -17921432.88944 -13964739.59244  21652776.7404   21652779.3554
 -11462712.81044  -8931972.82144  22223937.1614   22223939.0904
 -16172507.15144 -12601950.80244  21821257.3814   21821259.9954
 95  5 31  0 32 30.0000000  0  6G26G23G 6G17G16G20
  -3348083.44844  -2608892.03644  23410387.7244   23410391.9004
  -9624860.34344  -7499879.34744  23464934.7824   23464939.6934
 -22535531.66644 -17560144.97744  20302660.0404   20302660.8644
 -17969462.40544 -14002165.17044  21643637.2734   21643639.6804
 -11386385.12144  -8872496.73044  22238461.9344   22238464.1334
 -16089081.49544 -12536943.82144  21837132.7604   21837135.0414
 95  5 31  0 33  0.0000000  0  6G26G23G 6G17G16G20
  -3420423.25944  -2665260.71044  23396622.4964   23396625.7024
  -9723489.63044  -7576733.26444  23446166.3514   23446171.0894
 -22556510.96344 -17576492.48644  20298667.6624   20298668.6534
 -18017258.27844 -14039408.68244  21634541.6524   21634544.0304
 -11309674.87144  -8812722.52344  22253059.3014   22253060.7564
 -16005277.34044 -12471641.90344  21853080.0984   21853081.9874
 95  5 31  0 33 30.0000000  0  6G26G23G 6G17G16G20
  -3492503.78944  -2721427.28944  23382905.7114   23382906.3104
  -9821855.56944  -7653381.97444  23427448.0244   23427451.1734
 -22577060.27244 -17592504.93644  20294757.4124   20294758.0224
 -18064798.98144 -14076453.36444  21625495.0824   21625497.4434
 -11232563.25544  -8752635.55944  22267733.3494   22267734.9504
 -15921072.00844 -12406027.38444  21869103.8534   21869105.9784
 95  5 31  0 34  0.0000000  0  6G26G23G 6G17G16G20
  -3564327.15644  -2777393.47444  23369238.7014   23369241.6284
  -9919945.31944  -7729815.48544  23408781.2574   23408785.8194
 -22597170.67244 -17608175.38144  20290930.2454   20290931.1574
 -18112065.15344 -14113284.14544  21616500.4544   21616502.8024
 -11155044.37344  -8692231.26144  22282484.7924   22282486.1524
 -15836486.40244 -12340116.55844  21885199.8444   21885202.6704
 95  5 31  0 34 30.0000000  0  6G26G23G 6G17G16G20
  -3635956.08244  -2833208.19344  23355608.1414   23355611.5094
 -10017827.61544  -7806087.30644  23390156.1144   23390159.9464
 -22616898.28244 -17623547.54344  20287176.2094   20287177.2944
 -18159092.85444 -14149929.08744  21607552.0904   21607554.1624
 -11077185.77744  -8631562.25344  22297300.6984   22297301.9334
 -15751589.81844 -12273963.41944  21901354.8064   21901358.1844
 95  5 31  0 35  0.0000000  0  6G26G23G 6G17G16G20
  -3707374.35144  -2888858.72744  23342017.2794   23342020.4594
 -10115500.94844  -7882196.33944  23371569.1434   23371571.8494
 -22636245.82444 -17638623.54944  20283494.6154   20283495.6874
 -18205867.66344 -14186376.97644  21598651.1424   21598653.0074
 -10998965.39944  -8570611.32844  22312185.4374   22312187.6974
 -15666379.21244 -12207565.58644  21917569.7124   21917572.9264
 95  5 31  0 35 30.0000000  0  6G26G23G 6G17G16G20
  -3778557.84944  -2944326.33144  23328471.8814   23328474.5474
 -10212953.02944  -7958132.96444  23353025.1284   23353027.4634
 -22655191.32044 -17653386.27344  20279889.4214   20279890.1384
 -18252391.52644 -14222629.32244  21589797.6564   21589799.9184
 -10920367.73844  -8509366.41744  22327142.0284   22327143.8424
 -15580845.85444 -12140916.25044  21933846.3064   21933849.4734
 95  5 31  0 36  0.0000000  0  6G26G23G 6G17G16G20
  -3849490.95944  -2999598.84844  23314973.0904   23314975.2204
 -10310193.41344  -8033904.59444  23334520.2354   23334523.6844
 -22673739.60944 -17667839.48544  20276359.8924   20276360.7404
 -18298652.73944 -14258677.00544  21580994.2804   21580996.4404
 -10841389.96044  -8447825.30644  22342171.1124   22342173.1344
 -15494974.81944 -12074003.78644  21950187.1064   21950190.2454
 95  5 31  0 36 30.0000000  0  6G26G23G 6G17G16G20
  -3920245.39744  -3054732.11444  23301509.5204   23301511.5944
 -10407296.33544  -8109569.14844  23316041.9124   23316044.3874
 -22691970.33144 -17682045.24044  20272890.6854   20272891.4104
 -18344730.75844 -14294581.93744  21572226.0144   21572228.1904
 -10762107.83944  -8386047.05744  22357258.1054   22357260.4344
 -15408823.17444 -12006872.66544  21966581.2924   21966584.2854
 95  5 31  0 37  0.0000000  0  6G26G23G 6G17G16G20
  -3990805.92144  -3109714.28444  23288081.9274   23288083.4574
 -10504239.53944  -8185109.23544  23297594.5244   23297596.9014
 -22709871.12244 -17695993.90744  20269484.0604   20269484.9504
 -18390642.36344 -14330357.19844  21563488.9454   21563491.3974
 -10682524.38644  -8324033.98944  22372402.2204   22372403.8804
 -15322382.93844 -11939516.66944  21983030.8824   21983033.3654
 95  5 31  0 37 30.0000000  0  6G26G23G 6G17G16G20
  -4061170.88144  -3164544.04944  23274691.7034   23274693.3714
 -10601020.59144  -8260522.98544  23279178.4114   23279179.5894
 -22727434.55344 -17709679.69544  20266141.9594   20266142.9484
 -18436397.87644 -14366010.83544  21554781.8094   21554784.2654
 -10602660.00344  -8261802.02044  22387599.9084   22387602.4554
 -15235661.04244 -11871941.20044  21999533.7934   21999535.8624
 95  5 31  0 38  0.0000000  0  6G26G23G 6G17G16G20
  -4131226.07744  -3219132.45944  23261361.2624   23261361.9324
 -10697520.85844  -8335717.94944  23260814.9644   23260816.7304
 -22744559.37644 -17723023.70844  20262883.1434   20262884.1154
 -18481888.69744 -14401458.22244  21546125.6674   21546128.0384
 -10522413.62544  -8199272.39544  22402870.1434   22402872.4974
 -15148557.53744 -11804068.37944  22016108.5304   22016110.8564
 95  5 31  0 38 30.0000000  0  7G22G26G23G 6G17G16G20
        -0.39454                  25013473.3734
  -4201024.85044  -3273521.07844  23248078.6054   23248080.0174
 -10793784.06444  -8410728.16344  23242496.2324   23242499.2734
 -22761279.28944 -17736052.20744  20259701.5474   20259702.4024
 -18527180.90044 -14436750.83444  21537507.0274   21537509.0514
 -10441853.22544  -8136498.08444  22418200.6094   22418202.6844
 -15061143.76344 -11735953.77944  22032742.9404   22032745.8064
 95  5 31  0 39  0.0000000  0  6G26G23G 6G17G16G20
  -4270586.13044  -3327724.61244  23234841.7764   23234843.7564
 -10889826.24644  -8485566.17644  23224220.1784   23224223.1254
 -22777609.33144 -17748776.90944  20256594.0344   20256594.9804
 -18572288.63444 -14471899.70644  21528923.4254   21528925.1104
 -10360998.48144  -8073494.40944  22433586.8064   22433588.9184
 -14973445.73344 -11667617.68344  22049431.1644   22049434.0084
 95  5 31  0 39 30.0000000  0  6G26G23G 6G17G16G20
  -4339921.53144  -3381752.15244  23221647.3634   23221649.5734
 -10985661.08544  -8560242.61944  23205982.9344   23205987.3384
 -22793562.37144 -17761207.84144  20253558.2004   20253559.0094
 -18617198.66844 -14506894.52644  21520377.0334   21520379.3344
 -10279840.40144  -8010254.35944  22449030.6084   22449032.9394
 -14885463.78244 -11599060.34544  22066173.6604   22066176.4434
 95  5 31  0 40  0.0000000  0  6G26G23G 6G17G16G20
  -4409018.56244  -3435593.96044  23208498.4664   23208500.5424
 -11081279.18644  -8634750.16144  23187788.0814   23187791.1124
 -22809123.69844 -17773333.54744  20250596.9464   20250597.7214
 -18661883.38944 -14541713.77944  21511873.8074   21511875.8454
 -10198351.19844  -7946756.30144  22464537.3764   22464539.4434
 -14797170.77144 -11530260.61944  22082975.6024   22082978.1564
 95  5 31  0 40 30.0000000  0  6G26G23G 6G17G16G20
  -4477905.42844  -3489271.99944  23195389.6704   23195391.8714
 -11176706.76944  -8709109.25944  23169628.3274   23169631.4004
 -22824315.05444 -17785170.96144  20247705.9024   20247706.7114
 -18706360.24544 -14576371.05644  21503410.1954   21503412.1394
 -10116547.35244  -7883013.07044  22480104.2654   22480105.9054
 -14708587.28144 -11461234.54444  22099832.2884   22099835.2584
 95  5 31  0 41  0.0000000  0  7G22G26G23G 6G17G16G20
        -0.25054         0.76154  24938725.6564
  -4546523.96744  -3542740.97144  23182332.6324   23182333.9574
 -11271900.54644  -8783286.17644  23151513.2824   23151516.4914
 -22839106.05444 -17796696.41144  20244891.6844   20244892.4554
 -18750582.65944 -14610830.06544  21494994.9254   21494996.7134
 -10034385.63844  -7818990.98244  22495739.3134   22495740.8214
 -14619675.56744 -11391952.71944  22116751.6614   22116754.8714
 95  5 31  0 41 30.0000000  0  7G22G26G23G 6G17G16G20
    -77552.71444                  24923967.9894
  -4614868.04744  -3595996.04244  23169326.0844   23169327.7284
 -11366869.08744  -8857287.56944  23133440.7314   23133444.3454
 -22853495.61344 -17807909.05444  20242153.3554   20242154.2454
 -18794568.95044 -14645105.08144  21486624.5794   21486626.7584
  -9951881.34844  -7754701.93744  22511438.8744   22511440.9654
 -14530443.64444 -11322421.38544  22133732.0874   22133735.0234
 95  5 31  0 42  0.0000000  0  6G26G23G 6G17G16G20
  -4682935.03744  -3649035.20044  23156373.9044   23156374.6614
 -11461612.93344  -8931113.89244  23115411.7624   23115414.9844
 -22867479.95544 -17818805.94044  20239492.1784   20239492.9094
 -18838342.00844 -14679213.94144  21478294.9294   21478296.9044
  -9869074.31544  -7690177.00644  22527196.3644   22527198.6884
 -14440912.01044 -11252656.50144  22150769.2024   22150772.2864
 95  5 31  0 42 30.0000000  0  6G26G23G 6G17G16G20
  -4750757.79744  -3701884.06544  23143467.2274   23143468.9364
 -11556166.76244  -9004792.14944  23097418.8044   23097421.8194
 -22881100.84444 -17829419.61944  20236900.1814   20236901.1854
 -18881956.51044 -14713199.25444  21469995.3144   21469997.2914
  -9786023.41944  -7625462.04244  22543000.8954   22543002.8064
 -14351139.11344 -11182703.63344  22167851.9414   22167855.1774
 95  5 31  0 43  0.0000000  0  7G22G26G23G 6G17G16G20
         0.01254                  24880083.8854
  -4818246.58944  -3754472.67844  23130624.2084   23130626.2674
 -11650445.86144  -9078256.32944  23079477.9694   23079481.3864
 -22894267.18644 -17839679.10644  20234394.6834   20234395.6824
 -18925333.23744 -14746999.28344  21461740.8224   21461743.2224
  -9702652.83444  -7560497.97544  22558865.7704   22558867.0314
 -14261045.01744 -11112500.47444  22184996.6984   22184999.8964
 95  5 31  0 43 30.0000000  0  7G22G26G23G 6G17G16G20
    -76153.43044    -59340.14444  24865592.6424
  -4885434.37344  -3806826.75544  23117839.4934   23117841.4454
 -11744469.48644  -9151521.43344  23061585.2564   23061589.9034
 -22907000.23744 -17849600.96244  20231971.9314   20231972.5854
 -18968488.38944 -14780626.65644  21453528.7224   21453530.9704
  -9618973.65044  -7495293.43344  22574789.7474   22574791.2914
 -14170648.76244 -11042061.87044  22202198.8094   22202201.2744
 95  5 31  0 44  0.0000000  0  7G22G26G23G 6G17G16G20
   -151966.30744   -118415.04144  24851167.2684
  -4952352.85444  -3858970.96344  23105105.3664   23105106.4444
 -11838260.22544  -9224605.07444  23043738.1064   23043741.2304
 -22919329.19844 -17859207.94744  20229625.5494   20229626.5034
 -19011430.36144 -14814087.91644  21445357.1434   21445359.2974
  -9535002.80744  -7429861.63344  22590768.6704   22590770.2924
 -14079982.89144 -10971413.17544  22219452.1874   22219455.2924
 95  5 31  0 44 30.0000000  0  7G22G26G23G 6G17G16G20
   -227440.07244                  24836806.1614
  -5018999.72944  -3910903.55244  23092422.7424   23092423.4584
 -11931829.94544  -9297516.50744  23025932.6134   23025935.7484
 -22931257.95844 -17868503.08344  20227355.6494   20227356.5184
 -19054161.97244 -14847385.25944  21437225.4574   21437227.7854
  -9450724.18044  -7364190.00444  22606806.6384   22606808.2134
 -13989056.35444 -10900561.35544  22236754.4954   22236757.5714
 95  5 31  0 45  0.0000000  0  7G22G26G23G 6G17G16G20
   -302587.94044                  24822508.2674
  -5085371.39944  -3962621.68344  23079792.1104   23079794.4074
 -12025186.30644  -9370261.69344  23008167.5104   23008169.9054
 -22942793.93344 -17877492.15644  20225160.3594   20225161.1594
 -19096677.25144 -14880514.03444  21429135.0214   21429137.3894
  -9366143.43644  -7298282.94844  22622901.8884   22622902.7194
 -13897874.54644 -10829510.64044  22254105.7104   22254108.9124
 95  5 31  0 45 30.0000000  0  7G22G26G23G 6G17G16G20
   -377410.79444                  24808268.7554
  -5151468.69644  -4014126.03044  23067214.8714   23067216.9734
 -12118334.87844  -9442844.95444  22990442.4744   22990444.2184
 -22953942.84344 -17886179.61644  20223038.8434   20223039.6444
 -19138981.30644 -14913478.22044  21421084.7924   21421087.4594
  -9281278.20944  -7232154.22544  22639051.3024   22639052.9014
 -13806453.31344 -10758273.35544  22271502.8084   22271505.8554
 95  5 31  0 46  0.0000000  0  7G22G26G23G 6G17G16G20
   -451882.75644                  24794096.5384
  -5217276.07044  -4065404.47244  23054691.3914   23054693.3704
 -12211263.02044  -9515256.46044  22972758.0954   22972760.4914
 -22964681.13044 -17894547.11344  20220995.5254   20220996.4714
 -19181070.13044 -14946274.69344  21413075.9284   21413078.0674
  -9196139.60644  -7165812.47444  22655252.5104   22655254.0214
 -13714795.74444 -10686851.91444  22288944.7274   22288947.8334
 95  5 31  0 46 30.0000000  0  7G22G26G23G 6G17G16G20
   -526006.90544   -409875.05444  24779989.5394
  -5282781.40244  -4116447.53844  23042226.3214   23042228.3374
 -12303957.34744  -9587485.77044  22955118.3774   22955122.4864
 -22974999.34344 -17902587.27844  20219031.9644   20219032.9414
 -19222950.07044 -14978908.39844  21405106.4164   21405108.5694
  -9110727.39544  -7099257.53844  22671505.5254   22671507.9614
 -13622903.68444 -10615247.74544  22306431.4944   22306434.3474
 95  5 31  0 47  0.0000000  0  7G22G26G23G 6G17G16G20
   -599744.93844                  24765963.3764
  -5347967.38844  -4167241.77144  23029822.4204   23029823.6574
 -12396364.38344  -9659491.20244  22937534.2604   22937536.6714
 -22984864.87644 -17910274.71044  20217154.6704   20217155.4404
 -19264583.15344 -15011349.74944  21397183.6034   21397185.7154
  -9025008.13544  -7032463.34144  22687817.3414   22687819.7014
 -13530737.51544 -10543429.98544  22323969.8834   22323972.8904
 95  5 31  0 47 30.0000000  0  7G22G26G23G 6G17G16G20
   -673119.14944   -524507.79644  24751990.8734
  -5412870.28444  -4217815.41744  23017471.5334   23017473.4834
 -12488497.33444  -9731283.05544  22920001.7244   22920005.6504
 -22994282.89944 -17917613.42944  20215362.3744   20215363.1994
 -19306001.78044 -15043623.98944  21389301.8474   21389303.9154
  -8939002.06844  -6965445.65944  22704184.5774   22704186.3334
 -13438318.53644 -10471415.23644  22341556.8714   22341559.7044
 95  5 31  0 48  0.0000000  0  7G22G26G23G 6G17G16G20
   -746117.07344                  24738101.5294
  -5477478.00444  -4268159.05544  23005176.7444   23005178.0354
 -12580340.24744  -9802848.90844  22902524.9944   22902528.3084
 -23003237.96044 -17924591.40644  20213658.3704   20213658.9864
 -19347186.99844 -15075716.35244  21381464.6964   21381466.9344
  -8852681.10244  -6898182.58444  22720610.3664   22720612.1754
 -13345621.41644 -10399183.75144  22359196.6254   22359199.7884
 95  5 31  0 48 30.0000000  0  7G22G26G23G 6G17G16G20
   -818725.40944                  24724281.2484
  -5541761.08744  -4318249.73644  22992943.8874   22992945.9174
 -12671876.05744  -9874175.46744  22885106.4474   22885109.2654
 -23011711.59144 -17931194.24044  20212045.8744   20212046.8214
 -19388122.40744 -15107614.05344  21373674.8124   21373676.8294
  -8766017.59044  -6830652.60644  22737101.9054   22737103.8994
 -13252609.87744 -10326707.26544  22376895.8314   22376899.1554
 95  5 31  0 49  0.0000000  0  6G26G23G 6G17G16G20
  -5605775.62544  -4368131.16044  22980762.5984   22980763.8854
 -12763160.98444  -9945306.53344  22867735.5564   22867738.7544
 -23019764.90244 -17937469.54644  20210513.5974   20210514.3444
 -19428856.67744 -15139355.02544  21365923.7524   21365925.8654
  -8679080.02144  -6762909.06744  22753645.3254   22753648.1924
 -13159338.22244 -10254028.09044  22394644.9624   22394647.5474
 95  5 31  0 49 30.0000000  0  6G26G23G 6G17G16G20
  -5669525.32944  -4417806.20044  22968631.5584   22968632.8624
 -12854231.23844 -10016270.31644  22850405.1504   22850408.1164
 -23027433.09644 -17943444.76844  20209054.0824   20209054.9534
 -19469419.91544 -15170962.72444  21358204.9404   21358207.0004
  -8591906.87744  -6694981.96644  22770233.6224   22770236.5784
 -13065847.92344 -10181178.54344  22412435.8064   22412438.9314
 95  5 31  0 50  0.0000000  0  6G26G23G 6G17G16G20
  -5732902.15544  -4467190.69944  22956571.0554   22956571.5214
 -12944994.86244 -10086995.15644  22833133.3204   22833136.4794
 -23034645.37544 -17949064.73044  20207681.7614   20207682.5954
 -19509719.78444 -15202365.20344  21350535.7354   21350537.9704
  -8504405.97444  -6626799.47944  22786884.8594   22786887.2984
 -12972055.09644 -10108093.26044  22430284.1294   22430286.6824
 95  5 31  0 50 30.0000000  0  6G17G26G23G 6G16G20
 -19549818.16744 -15233610.67544  21342904.9724   21342907.4934
  -5795957.88144  -4516324.98144  22944572.0474   22944573.5284
 -13035503.00144 -10157520.93544  22815910.1904   22815913.3764
 -23041469.90944 -17954382.55544  20206383.2594   20206384.0344
  -8416648.21344  -6558416.82344  22803584.8794   22803587.9894
 -12878034.76744 -10034830.69644  22448175.6844   22448178.3314
 95  5 31  0 51  0.0000000  0  6G17G26G23G 6G16G20
 -19589686.98644 -15264677.27044  21335318.2084   21335320.3294
  -5858670.08844  -4565191.60744  22932638.0274   22932639.2604
 -13125725.69244 -10227824.28444  22798741.4324   22798743.8594
 -23047890.37444 -17959385.51444  20205161.3064   20205162.1444
  -8328616.62144  -6489820.80444  22820336.2294   22820339.3384
 -12783780.78244  -9961386.06344  22466111.2234   22466114.3814
 95  5 31  0 51 30.0000000  0  6G17G26G23G 6G16G20
 -19629373.82144 -15295602.06344  21327766.2614   21327768.3874
  -5921073.75944  -4613817.80244  22920763.0164   22920764.1724
 -13215709.97044 -10297941.85844  22781617.1394   22781620.0824
 -23053936.74144 -17964096.96844  20204010.6754   20204011.5504
  -8240351.71644  -6421042.98344  22837132.8574   22837134.8574
 -12689335.53144  -9887792.40244  22484083.3094   22484086.6444
 95  5 31  0 52  0.0000000  0  6G17G26G23G 6G16G20
 -19668874.97744 -15326382.15544  21320249.5164   21320251.4434
  -5983173.56144  -4662207.23344  22908946.0014   22908947.9254
 -13305443.12244 -10367863.74544  22764541.1024   22764544.3694
 -23059583.98344 -17968497.41644  20202936.1774   20202936.7724
  -8151856.66544  -6352085.83644  22853972.5904   22853974.2904
 -12594684.31444  -9814038.25044  22502094.8464   22502098.0134
 95  5 31  0 52 30.0000000  0  6G17G26G23G 6G16G20
 -19708160.66244 -15356994.36044  21312773.5874   21312775.5924
  -6044942.00644  -4710338.45944  22897192.1294   22897193.9764
 -13394896.43644 -10437567.57644  22747519.0044   22747521.4224
 -23064781.81244 -17972547.66844  20201946.9264   20201947.9544
  -8063113.05144  -6282934.99244  22870860.6054   22870862.4134
 -12499798.47844  -9740101.27444  22520150.8674   22520154.0424
 95  5 31  0 53  0.0000000  0  6G17G26G23G 6G16G20
 -19747301.61544 -15387493.78844  21305325.3744   21305327.2534
  -6106445.23344  -4758263.00544  22885488.0504   22885489.4594
 -13484135.98044 -10507104.84044  22730537.4924   22730540.1474
 -23069583.91244 -17976289.56044  20201033.2044   20201033.9094
  -7974184.19644  -6213639.80944  22887782.8504   22887785.6454
 -12404747.56544  -9666035.65444  22538238.9984   22538242.2814
 95  5 31  0 53 30.0000000  0  6G17G26G23G 6G16G20
 -19786255.47244 -15417847.42744  21297912.6934   21297914.5574
  -6167628.06544  -4805937.91044  22873844.8874   22873845.9354
 -13573112.68344 -10576437.28444  22713605.9044   22713609.3254
 -23073928.07344 -17979674.62044  20200206.5674   20200207.2074
  -7885011.69044  -6144154.76644  22904752.3544   22904754.6794
 -12309477.19144  -9591799.03044  22556368.6954   22556371.6084
 95  5 31  0 54  0.0000000  0  6G17G26G23G 6G16G20
 -19824982.59044 -15448024.38544  21290543.2254   21290545.0544
  -6228448.94244  -4853330.76244  22862271.4414   22862273.0714
 -13661792.64144 -10645538.50344  22696730.0954   22696733.4024
 -23077777.53044 -17982674.19344  20199474.0294   20199474.6964
  -7795551.46944  -6074445.51644  22921775.7514   22921777.8014
 -12213956.26844  -9517367.18444  22574546.1594   22574549.3374
 95  5 31  0 54 30.0000000  0  6G17G26G23G 6G16G20
 -19863477.07844 -15478020.07344  21283217.9814   21283219.6314
  -6288905.66144  -4900439.84744  22850767.1104   22850769.6694
 -13750182.01544 -10714413.29444  22679911.0654   22679914.2004
 -23081144.35444 -17985297.69244  20198833.1514   20198833.8434
  -7705795.22644  -6004505.60344  22938855.4354   22938857.7674
 -12118201.00944  -9442752.73244  22592767.3264   22592770.5224
 95  5 31  0 55  0.0000000  0  6G17G26G23G 6G16G20
 -19901807.14944 -15507887.64644  21275923.7634   21275925.4874
  -6349067.62044  -4947319.25344  22839318.6254   22839321.1544
 -13838344.12144 -10783111.00544  22663134.5304   22663137.6834
 -23084110.47244 -17987608.95144  20198268.9464   20198269.6284
  -7615820.20644  -5934395.21644  22955977.5864   22955980.1274
 -12022278.10144  -9368007.65744  22611020.6374   22611023.8564
 95  5 31  0 55 30.0000000  0  7G17G22G26G23G 6G16G20
 -19939901.50144 -15537571.54544  21268674.6914   21268676.7374
        -0.51354        -0.72654  24538304.5954   24538305.6064
  -6408859.07544  -4993909.97144  22827940.7524   22827941.9574
 -13926214.23644 -10851581.17944  22646413.0924   22646416.2784
 -23086608.68244 -17989555.61044  20197793.5794   20197794.3674
  -7525568.10644  -5864068.92744  22973151.6994   22973154.2704
 -11926106.99044  -9293069.17944  22629321.3994   22629324.6674
 95  5 31  0 56  0.0000000  0  7G17G22G26G23G 6G16G20
 -19977730.29044 -15567048.50744  21261476.1114   21261478.0744
    -66875.48544                  24525576.4304
  -6468260.77644  -5040196.97744  22816637.1314   22816637.9644
 -14013768.45944 -10919805.21644  22629752.2874   22629754.4294
 -23088634.52144 -17991134.18544  20197407.9764   20197408.6284
  -7435045.08744  -5793531.53844  22990378.1254   22990379.9374
 -11829683.66044  -9217934.14744  22647669.9414   22647672.9574
 95  5 31  0 56 30.0000000  0  7G17G22G26G23G 6G16G20
 -20015366.74044 -15596375.60044  21254314.0724   21254316.0624
   -133418.51644   -103962.73944  24512913.7924
  -6527336.73144  -5086230.13044  22805394.9324   22805396.5104
 -14101063.88544 -10987827.59344  22613140.2034   22613142.4474
 -23090270.63144 -17992409.07944  20197096.7764   20197097.5744
  -7344338.83444  -5722851.36244  23007638.7584   23007640.2264
 -11733092.76444  -9142668.55444  22666051.0234   22666053.7814
 95  5 31  0 57  0.0000000  0  7G17G22G26G23G 6G16G20
 -20052818.28844 -15625558.61644  21247187.4314   21247189.2734
   -199617.51044   -155546.40544  24500317.2244   24500319.1714
  -6586063.05244  -5131990.84844  22794219.5394   22794220.7774
 -14188098.40944 -11055646.66644  22596577.6634   22596580.7174
 -23091509.54544 -17993374.47044  20196860.9424   20196861.6204
  -7253444.06044  -5652024.27744  23024934.9404   23024936.3224
 -11636324.58944  -9067264.79844  22684465.0024   22684467.9094
 95  5 31  0 57 30.0000000  0  7G17G22G26G23G 6G16G20
 -20090047.15644 -15654568.11544  21240103.0734   21240104.8754
   -265427.68244   -206826.99144  24487794.9734   24487797.5604
  -6644396.76244  -5177445.62444  22783119.1144   22783120.9234
 -14274848.79244 -11123244.32544  22580069.2154   22580072.2704
 -23092313.17244 -17994000.67744  20196707.9744   20196708.7784
  -7162318.75344  -5581017.55944  23042275.8324   23042277.9104
 -11539372.77044  -8991717.95644  22702914.3744   22702917.7394
 95  5 31  0 58  0.0000000  0  7G17G22G26G23G 6G16G20
 -20127045.25944 -15683397.79344  21233062.2714   21233064.5614
   -330825.24444   -257786.04444  24475349.5864   24475353.8974
  -6702329.96344  -5222588.32644  22772094.4494   22772096.2724
 -14361293.45344 -11190603.75344  22563619.4754   22563622.8104
 -23092674.38844 -17994282.14644  20196639.2134   20196639.8574
  -7070943.79944  -5509816.32444  23059664.2984   23059666.3864
 -11442248.12544  -8916036.45044  22721396.6754   22721400.5594
 95  5 31  0 58 30.0000000  0  7G17G22G26G23G 6G16G20
 -20163813.01744 -15712047.98644  21226065.4064   21226067.5134
   -395777.63744   -308398.24644  24462990.8634   24462993.9074
  -6759860.90144  -5267417.57844  22761147.1204   22761148.9604
 -14447419.32144 -11257714.78344  22547230.2814   22547233.3464
 -23092570.84444 -17994201.46644  20196658.9784   20196659.5994
  -6979289.42644  -5438397.36044  23077105.3834   23077107.7944
 -11344930.69044  -8840204.72744  22739915.6974   22739919.5314
 95  5 31  0 59  0.0000000  0  7G17G22G26G23G 6G16G20
 -20200391.41344 -15740550.62344  21219104.9204   21219107.1254
   -460312.79244   -358685.35344  24450708.7524   24450710.1644
  -6817042.43944  -5311974.57844  22750265.7424   22750267.4864
 -14533262.69644 -11324605.68144  22530895.4304   22530898.5274
 -23092030.51944 -17993780.43844  20196761.8574   20196762.5894
  -6887401.26544  -5366796.20944  23094590.6924   23094593.1504
 -11247445.91544  -8764242.59744  22758466.7904   22758469.6644
 95  5 31  0 59 30.0000000  0  7G17G22G26G23G 6G16G20
 -20236763.99744 -15768892.88744  21212183.4574   21212185.7414
   -524429.38644   -408646.27544  24438508.3294   24438511.2864
  -6873872.40444  -5356257.62144  22739451.6024   22739452.2954
 -14618795.23544 -11391254.37144  22514619.4244   22514622.2354
 -23091034.06244 -17993003.98144  20196951.4674   20196952.1004
  -6795281.58844  -5295014.65244  23112120.9494   23112123.5014
 -11149782.37744  -8688141.17044  22777051.8044   22777054.3254
 95  5 31  1  0  0.0000000  0  7G17G22G26G23G 6G16G20
 -20272986.88244 -15797118.50544  21205290.3694   21205292.6284
   -588193.27344   -458332.37644  24426372.2114   24426378.1844
  -6930405.79744  -5400309.55744  22728693.5704   22728694.8114
 -14704063.39044 -11457697.04544  22498393.0614   22498395.6044
 -23089626.10744 -17991906.88044  20197219.2734   20197220.1494
  -6702990.83944  -5223099.83744  23129682.5384   23129685.6974
 -11051961.26744  -8611916.96844  22795666.6564   22795669.7474
 95  5 31  1  0 30.0000000  0  7G17G22G26G23G 6G16G20
 -20308987.47244 -15825170.90744  21198439.7394   21198441.9864
   -651539.83044   -507693.29344  24414318.9384   24414322.1844
  -6986576.08944  -5444078.56644  22718004.0354   22718005.9754
 -14789014.40844 -11523892.60244  22482227.7424   22482230.1474
 -23087728.61544 -17990428.31544  20197580.5944   20197581.3134
  -6610476.71444  -5151010.93644  23147288.1794   23147290.2444
 -10953908.86244  -8535512.53244  22814325.2174   22814327.6094
 95  5 31  1  1  0.0000000  0  7G17G22G26G23G 6G16G20
 -20344839.48044 -15853107.52844  21191617.3444   21191619.1524
   -714534.05044   -556779.61544  24402329.9944   24402334.0414
  -7042437.77644  -5487607.12044  22707373.7664   22707375.2234
 -14873734.10644 -11589907.91744  22466106.4554   22466108.3614
 -23085412.32744 -17988623.41944  20198021.1954   20198021.9364
  -6517826.05644  -5078815.63544  23164919.7014   23164921.1084
 -10855704.82544  -8458989.93844  22833012.7874   22833016.0574
 95  5 31  1  1 30.0000000  0  7G17G22G26G23G 6G16G20
 -20380500.45444 -15880895.29644  21184831.5324   21184833.5874
   -777130.46244   -605555.99244  24390418.1274   24390422.6124
  -7097935.73544  -5530852.25844  22696813.6904   22696815.1364
 -14958198.16744 -11655724.03544  22450032.3864   22450035.1954
 -23082636.59144 -17986460.51144  20198549.4334   20198550.1194
  -6424989.37444  -5006475.37844  23182585.4134   23182587.0834
 -10757310.81244  -8382319.31744  22851735.9754   22851739.6624
 95  5 31  1  2  0.0000000  0  7G17G22G26G23G 6G16G20
 -20415898.58544 -15908478.24844  21178095.5004   21178097.3954
   -839236.10444   -653949.97544  24378598.4544   24378606.8934
  -7152993.79844  -5573754.60444  22686335.8474   22686337.7444
 -15042331.85644 -11721282.70244  22434022.4074   22434025.1194
 -23079341.39344 -17983892.82544  20199176.3674   20199177.1794
  -6331893.15244  -4933932.90744  23200300.9714   23200303.5704
 -10658667.06044  -8305454.10544  22870506.7994   22870510.9604
 95  5 31  1  2 30.0000000  0  7G17G22G26G23G 6G16G20
 -20451070.37144 -15935884.81944  21171402.4294   21171404.5804
   -900866.41744   -701973.60544  24366872.1904   24366872.1064
  -7207638.24144  -5616334.62744  22675937.7934   22675938.5894
 -15126157.02044 -11786600.96444  22418071.3424   22418074.3444
 -23075558.43744 -17980945.07344  20199896.5114   20199896.9714
  -6238571.38544  -4861214.67544  23218059.9244   23218061.0544
 -10559835.70644  -8228442.70144  22889314.8354   22889318.5144
 95  5 31  1  3  0.0000000  0  7G17G22G26G23G 6G16G20
 -20486072.12144 -15963158.90144  21164741.9504   21164744.1794
   -962083.03344   -749674.81344  24355223.3334   24355228.5544
  -7261905.65144  -5658620.87044  22665610.6324   22665611.6524
 -15209706.23344 -11851704.21144  22402171.8454   22402174.6964
 -23071348.66444 -17977664.73044  20200697.4454   20200698.4674
  -6145075.42344  -4788360.68544  23235851.8784   23235853.9194
 -10460875.31544  -8151330.75644  22908146.0744   22908150.1134
 95  5 31  1  3 30.0000000  0  7G17G22G26G23G 6G16G20
 -20520877.13744 -15990279.68744  21158118.4114   21158120.6184
  -1022887.01344   -797054.55944  24343652.3694   24343654.0964
  -7315784.38144  -5700604.25244  22655357.8994   22655359.0864
 -15292938.53344 -11916560.50744  22386333.5784   22386336.0004
 -23066704.77844 -17974046.12344  20201581.2954   20201581.7494
  -6051386.51344  -4715356.37444  23253680.4774   23253682.3354
 -10361785.81944  -8074118.19644  22927002.7444   22927005.9574
 95  5 31  1  4  0.0000000  0  7G17G22G26G23G 6G16G20
 -20555471.47344 -16017236.30544  21151535.4284   21151537.5174
  -1083272.01444   -844107.76944  24332161.7544   24332163.9804
  -7369268.23744  -5742279.92444  22645180.6944   22645181.8254
 -15375828.51744 -11981150.06444  22370559.4534   22370562.5154
 -23061620.53244 -17970084.37244  20202548.6544   20202549.5474
  -5957505.55644  -4642202.42144  23271545.0534   23271546.8994
 -10262575.96144  -7996811.84844  22945881.2614   22945884.4304
 95  5 31  1  4 30.0000000  0  7G17G22G26G23G 6G16G20
 -20589831.34044 -16044010.22144  21144996.9834   21144999.1784
  -1143238.65944   -890835.02944  24320750.8424   24320750.4734
  -7422339.45944  -5783634.06844  22635080.4104   22635082.3704
 -15458375.29744 -12045472.18844  22354851.2924   22354854.4104
 -23056069.76344 -17965759.09944  20203605.0364   20203605.6344
  -5863425.71844  -4568893.47044  23289448.0414   23289449.8894
 -10163231.90844  -7919400.94444  22964786.2044   22964789.4084
 95  5 31  1  5  0.0000000  0  7G17G22G26G23G 6G16G20
 -20623936.12044 -16070585.36244  21138507.0524   21138509.4324
  -1202775.64744   -937227.45244  24309420.7894   24309423.2614
  -7474974.42044  -5824648.27944  22625065.2674   22625066.5504
 -15540571.74944 -12109521.32444  22339210.3044   22339212.8364
 -23050048.51444 -17961067.21544  20204750.7764   20204751.4064
  -5769135.33744  -4495420.47444  23307390.2034   23307392.2084
 -10063730.07444  -7841867.07944  22983720.8914   22983724.2784
 95  5 31  1  5 30.0000000  0  7G17G22G26G23G 6G16G20
 -20657806.84644 -16096978.12744  21132061.7224   21132063.6874
  -1261899.84444   -983298.22144  24298170.7024   24298170.5924
  -7527206.75044  -5865348.76044  22615125.7354   22615127.0574
 -15622461.27744 -12173331.30944  22323627.0454   22323630.2124
 -23043567.44144 -17956017.03044  20205983.9874   20205985.0014
  -5674660.90844  -4421804.08544  23325368.6684   23325370.2254
  -9964093.79044  -7764228.45844  23002680.8754   23002684.0404
 95  5 31  1  6  0.0000000  0  7G17G22G26G23G 6G16G20
 -20691489.58244 -16123224.41244  21125651.9454   21125653.8454
  -1320636.18944  -1029066.84944  24286994.2144   24286995.4964
  -7579066.95044  -5905759.25944  22605256.4734   22605258.1864
 -15704096.69344 -12236943.28344  22308092.8524   22308095.5514
 -23036646.83744 -17950624.35044  20207301.1414   20207301.6294
  -5580038.26444  -4348072.16344  23343374.9504   23343376.7614
  -9864353.40944  -7686508.73344  23021660.5064   23021663.5714
 95  5 31  1  6 30.0000000  0  7G17G22G26G23G 6G16G20
 -20724935.29844 -16149285.99844  21119287.6204   21119289.8684
  -1378914.12344  -1074478.21244  24275903.7694   24275906.9564
  -7630487.10944  -5945826.86944  22595471.9554   22595472.6734
 -15785419.55744 -12300311.71044  22292617.7564   22292620.0084
 -23029210.26844 -17944829.62544  20208716.0024   20208716.8274
  -5485190.42644  -4274164.79444  23361423.4454   23361425.2574
  -9764433.85344  -7608649.38944  23040674.8224   23040677.9854
 95  5 31  1  7  0.0000000  0  7G17G22G26G23G 6G16G20
 -20758161.15944 -16175176.27544  21112964.8214   21112966.8714
  -1436728.75144  -1119528.54044  24264901.8494   24264901.9294
  -7681464.76844  -5985549.67544  22585770.7524   22585772.2594
 -15866416.70444 -12363426.32944  22277204.0664   22277206.5444
 -23021262.77244 -17938636.77144  20210228.6564   20210229.2834
  -5390103.66844  -4200071.23944  23379517.4744   23379519.2794
  -9664329.47744  -7530646.01844  23059724.1934   23059727.2784
 95  5 31  1  7 30.0000000  0  7G17G22G26G23G 6G16G20
 -20791228.06944 -16200942.70144  21106672.6284   21106674.5154
  -1494136.74044  -1164262.00344  24253977.2184   24253977.9594
  -7732071.50744  -6024983.45044  22576140.7744   22576142.5554
 -15947134.74144 -12426323.45444  22261843.9224   22261846.8774
 -23012848.23844 -17932079.99744  20211829.5424   20211830.4934
  -5294826.06544  -4125828.97344  23397648.7664   23397649.7904
  -9564106.46044  -7452550.19544  23078796.1964   23078799.3704
 95  5 31  1  8  0.0000000  0  7G17G22G26G23G 6G16G20
 -20824123.53644 -16226575.53144  21100412.8964   21100414.8384
  -1551119.02044  -1208663.75544  24243133.6144   24243134.5064
  -7782289.28744  -6064114.16244  22566585.1584   22566585.9784
 -16027542.32144 -12488978.66944  22246543.1314   22246546.1014
 -23003970.74144 -17925162.47044  20213519.1724   20213519.9754
  -5199347.44344  -4051430.08044  23415817.9134   23415820.2394
  -9463751.20344  -7374351.33244  23097893.2884   23097897.9014
 95  5 31  1  8 30.0000000  0  7G17G22G26G23G 6G16G20
 -20856824.32344 -16252056.66544  21094189.9374   21094191.9404
  -1607664.97144  -1252725.53844  24232373.0944   24232374.8144
  -7832102.06144  -6102929.26544  22557105.6304   22557106.9204
 -16107617.76344 -12551375.07544  22231305.2894   22231307.9594
 -22994630.81844 -17917884.61144  20215296.2674   20215296.9804
  -5103661.73344  -3976869.83644  23434025.4644   23434027.5644
  -9363249.23744  -7296038.14944  23117017.3414   23117020.4684
 95  5 31  1  9  0.0000000  0  7G17G22G26G23G 6G16G20
 -20889293.17844 -16277357.05844  21088011.2764   21088013.2444
  -1663752.73244  -1296430.31744  24221699.6384   24221702.3664
  -7881488.25444  -6141411.96244  22547707.8674   22547708.4284
 -16187326.47944 -12613485.72244  22216137.1584   22216139.7504
 -22984815.54344 -17910236.35144  20217164.0994   20217164.9584
  -5007766.48444  -3902146.28844  23452273.9484   23452276.1264
  -9262592.38944  -7217604.28444  23136172.3874   23136175.4524
 95  5 31  1  9 30.0000000  0  7G17G22G26G23G 6G16G20
 -20921539.04344 -16302483.69644  21081875.0974   21081877.1494
  -1719393.04544  -1339786.32844  24211111.7554   24211114.1334
  -7930472.96644  -6179581.81244  22538386.4444   22538387.4654
 -16266700.51444 -12675335.58444  22201032.9104   22201035.2814
 -22974540.92944 -17902230.16344  20219119.3864   20219119.9844
  -4911709.74544  -3827296.91044  23470553.6784   23470556.3954
  -9161818.73744  -7139079.41044  23155349.1404   23155352.1514
 95  5 31  1 10  0.0000000  0  8G17G22G26G23G 6G16G20G21
 -20953588.53144 -16327457.31844  21075776.1824   21075778.3724
  -1774604.36344  -1382808.08844  24200605.7484   24200608.9364
  -7979055.71144  -6217438.47944  22529141.3774   22529143.2224
 -16345769.17744 -12736947.50144  22185986.2174   22185988.7624
 -22963831.71344 -17893885.33144  20221157.3534   20221157.9684
  -4815532.89944  -3752353.95244  23488855.3354   23488856.9424
  -9060944.36644  -7060476.06644  23174545.2804   23174547.6504
        -0.69954                  25582839.5884
 95  5 31  1 10 30.0000000  0  8G17G22G26G23G 6G16G20G21
 -20985425.70844 -16352265.50544  21069717.7864   21069719.6994
  -1829352.19544  -1425468.70544  24190188.5314   24190191.7534
  -8027204.16344  -6254956.71144  22519979.0344   22519980.3564
 -16424504.09744 -12798299.35344  22171003.4764   22171006.5734
 -22952645.03344 -17885168.44344  20223286.0074   20223286.7704
  -4719214.76344  -3677300.91044  23507183.9954   23507186.1204
  -8959961.27944  -6981787.99444  23193761.8764   23193764.0874
   -100492.96944    -78305.98344  25563716.9714
 95  5 31  1 11  0.0000000  0  8G17G22G26G23G 6G16G20G21
 -21017069.50644 -16376923.00144  21063696.2424   21063698.5434
  -1883634.57644  -1467766.64944  24179858.6204   24179859.3484
  -8074926.62044  -6292143.01044  22510897.5554   22510898.4284
 -16502911.43944 -12859395.94044  22156082.6864   22156085.7624
 -22940980.14844 -17876078.93044  20225505.8024   20225506.4904
  -4622763.94844  -3602144.44644  23525537.9134   23525540.3754
  -8858887.82744  -6903029.51644  23212994.6794   23212997.4674
   -200929.97944   -156568.41944  25544604.2104   25544606.0344
 95  5 31  1 11 30.0000000  0  8G17G22G26G23G 6G16G20G21
 -21048503.22344 -16401416.80344  21057714.5304   21057716.7474
  -1937423.29544  -1509679.87744  24169623.9994   24169625.5694
  -8122188.07344  -6328970.08144  22501903.9554   22501905.1294
 -16580975.60644 -12920225.12344  22141227.5514   22141230.4674
 -22928807.44844 -17866593.71344  20227822.3004   20227822.9084
  -4526147.03044  -3526858.57544  23543922.9694   23543925.1864
  -8757698.10444  -6824180.42444  23232250.1784   23232253.9974
   -301293.29944   -234773.45244  25525504.8574   25525508.0834
 95  5 31  1 12  0.0000000  0  8G17G22G26G23G 6G16G20G21
 -21079713.86444 -16425736.78944  21051775.1844   21051777.5774
  -1990719.32144  -1551209.22544  24159480.5914   24159483.5384
  -8168974.37244  -6365426.89644  22493000.9174   22493001.6474
 -16658675.11244 -12980770.16544  22126441.4454   22126444.4194
 -22916118.77044 -17856706.44044  20230236.6934   20230237.4264
  -4429337.26044  -3451422.42444  23562345.1194   23562347.2304
  -8656374.65944  -6745227.15244  23251531.8834   23251534.7304
   -401584.69844   -312922.49144  25506419.4254   25506421.0554
 95  5 31  1 12 30.0000000  0  8G17G22G26G23G 6G16G20G21
 -21110805.57144 -16449964.07844  21045858.5234   21045860.8874
  -2043636.46044  -1592443.35844  24149409.4124   24149411.7154
  -8215410.32544  -6401610.70744  22484164.3494   22484165.7504
 -16736125.30344 -13041120.91844  22111703.1134   22111706.3054
 -22903030.23744 -17846507.58844  20232727.5924   20232728.3464
  -4332438.07544  -3375916.61144  23580785.3814   23580787.7734
  -8555041.67144  -6666266.43644  23270815.1474   23270819.1454
   -501914.61444   -391101.49644  25487326.9254   25487331.5784
 95  5 31  1 13  0.0000000  0  8G22G26G23G 6G17G16G20G21
  -2096147.02744  -1633360.65644  24139417.6734   24139421.0624
  -8261448.60844  -6437484.64744  22475403.1294   22475404.4124
 -16813294.99244 -13101253.10544  22097018.1814   22097021.3274
 -22889507.83044 -17835970.65444  20235300.7704   20235301.4764
 -21141711.18044 -16474046.36844  21039977.4594   21039979.6494
  -4235402.54544  -3300304.54344  23599250.5394   23599253.0214
  -8453644.20544  -6587255.46344  23290110.6814   23290113.2404
   -602235.89444                  25468232.5704
 95  5 31  1 13 30.0000000  0  8G22G26G23G 6G17G16G20G21
  -2148197.51744  -1673919.45244  24129511.9214   24129514.3964
  -8307012.88644  -6472989.24144  22466732.9484   22466734.6564
 -16890117.25344 -13161114.56444  22082399.1744   22082402.1814
 -22875487.83844 -17825045.99244  20237968.6984   20237969.6604
 -21172357.84044 -16497926.88444  21034145.4164   21034147.5364
  -4138171.15244  -3224539.83344  23617752.5394   23617754.3154
  -8352107.50044  -6508135.98644  23309431.0214   23309435.5034
   -702466.79744                  25449156.2254
 95  5 31  1 14  0.0000000  0  8G22G26G23G 6G17G16G20G21
  -2199782.71244  -1714115.68444  24119695.3174   24119699.1374
  -8352090.69244  -6508114.76244  22458154.6144   22458155.9234
 -16966578.84844 -13220694.98444  22067849.2454   22067852.1894
 -22860952.58744 -17813719.82744  20240734.6334   20240735.2814
 -21202737.04044 -16521598.97744  21028364.8524   21028366.6254
  -4040741.52544  -3148620.70044  23636293.1364   23636295.8774
  -8250425.44844  -6428903.28344  23328781.2444   23328784.9564
   -802581.55344                  25430103.8104
 95  5 31  1 14 30.0000000  0  8G22G26G23G 6G17G16G20G21
  -2250947.27044  -1753984.15044  24109959.8284   24109962.2994
  -8396726.61144  -6542895.95144  22449660.8674   22449662.1904
 -17042736.78144 -13280038.79044  22053357.2394   22053359.5554
 -22845948.50044 -17802028.34244  20243589.8864   20243590.5874
 -21232916.75744 -16545115.63744  21022621.9544   21022623.7324
  -3943181.43144  -3072599.89244  23654858.3024   23654860.2694
  -8148653.76744  -6349600.71944  23348148.1104   23348151.5474
   -902614.06544                  25411068.5244
 95  5 31  1 15  0.0000000  0  8G22G26G23G 6G17G16G20G21
  -2301715.60544  -1793543.85144  24100300.9204   24100302.5614
  -8440949.12244  -6577355.01044  22441245.7644   22441246.3064
 -17118609.38644 -13339160.26844  22038919.4794   22038921.7714
 -22830499.93644 -17789990.50444  20246529.7044   20246530.3114
 -21262936.67044 -16568507.76844  21016909.0424   21016910.9594
  -3845532.71244  -2996510.03644  23673440.1844   23673441.8764
  -8046814.81744  -6270245.76144  23367527.8384   23367532.6974
  -1002583.46844                  25392046.7134
 95  5 31  1 15 30.0000000  0  8G22G26G23G 6G17G16G20G21
  -2352009.29644  -1832733.70044  24090730.3604   24090731.7214
  -8484703.87644  -6611449.57644  22432919.4944   22432919.9804
 -17194125.44744 -13398003.91844  22024549.1154   22024551.4724
 -22814533.79744 -17777549.36644  20249567.7894   20249568.4964
 -21292762.97444 -16591749.03044  21011233.2974   21011235.4394
  -3747734.44444  -2920303.62044  23692050.3194   23692052.9554
  -7944850.82144  -6190793.34944  23386929.9294   23386933.1204
  -1102422.03244                  25373050.5374
 95  5 31  1 16  0.0000000  0  8G22G26G23G 6G17G16G20G21
  -2401796.79544  -1871529.15944  24081255.9794   24081258.7364
  -8527978.80144  -6645170.26144  22424683.8924   22424684.5844
 -17269274.35644 -13456561.47044  22010248.5634   22010251.5044
 -22798041.26444 -17764698.04444  20252706.0394   20252706.9034
 -21322393.79544 -16614837.97144  21005594.7914   21005597.0484
  -3649770.03644  -2843967.75544  23710692.7024   23710696.7344
  -7842761.54644  -6111243.33244  23406357.7924   23406362.1704
  -1202119.13044   -936714.15844  25354080.1784   25354079.9214
 95  5 31  1 16 30.0000000  0  8G22G26G23G 6G17G16G20G21
  -2451104.90244  -1909951.04144  24071871.7444   24071873.2664
  -8570811.17944  -6678546.09944  22416533.2834   22416534.2784
 -17344087.24544 -13514857.18544  21996011.9644   21996014.8124
 -22781076.79544 -17751478.98544  20255934.3964   20255934.9754
 -21351859.62044 -16637798.35344  20999987.7444   20999990.0094
  -3551677.95744  -2767532.40244  23729359.0604   23729360.8254
  -7740588.88644  -6031628.32844  23425801.1424   23425804.7794
  -1301726.85044  -1014330.42444  25335126.6774   25335126.4904
 95  5 31  1 17  0.0000000  0  8G22G26G23G 6G17G16G20G21
  -2499936.79544  -1948001.80544  24062579.3544   24062579.3794
  -8613200.30844  -6711576.54944  22408467.1344   22408468.0524
 -17418553.96444 -13572883.15644  21981841.4294   21981844.1334
 -22763646.25244 -17737896.74644  20259251.4414   20259252.2204
 -21381157.64844 -16660627.97644  20994412.6134   20994414.5384
  -3453444.77444  -2690987.10944  23748052.0304   23748055.3404
  -7638348.71244  -5951960.71944  23445256.8574   23445259.8634
  -1401268.33944  -1091895.07144  25316185.6084   25316187.4054
 95  5 31  1 17 30.0000000  0  8G22G26G23G 6G17G16G20G21
  -2548275.52944  -1985668.34244  24053380.9004   24053381.7364
  -8655117.73144  -6744239.41744  22400490.2634   22400490.9904
 -17492659.58144 -13630627.74544  21967739.7824   21967741.8244
 -22745738.39844 -17723942.58544  20262659.0984   20262659.8274
 -21410261.04244 -16683305.93644  20988874.3764   20988876.1774
  -3355044.42944  -2614311.56744  23766777.5784   23766780.6714
  -7536043.24144  -5872242.22844  23464724.5194   23464727.2574
  -1500742.81244  -1169407.49644  25297256.0894   25297257.2384
 95  5 31  1 18  0.0000000  0  8G22G26G23G 6G17G16G20G21
  -2596127.39144  -2022955.49944  24044274.5674   24044277.9044
  -8696558.21644  -6776530.66044  22392604.4254   22392604.9884
 -17566398.27144 -13688086.43344  21953708.1744   21953709.5974
 -22727362.70444 -17709623.86644  20266156.0184   20266156.6674
 -21439150.79644 -16705817.41444  20983376.9774   20983378.6194
  -3256490.33344  -2537516.20844  23785531.7314   23785534.1744
  -7433685.47644  -5792482.98144  23484202.5624   23484206.3324
  -1600157.09744  -1246873.02544  25278336.8884   25278341.3814
 95  5 31  1 18 30.0000000  0  7G22G26G23G 6G17G16G20
  -2643642.84644  -2059980.47644  24035233.5894   24035236.7814
  -8737665.89944  -6808562.58644  22384781.7284   22384783.5594
 -17639899.33844 -13745359.96244  21939721.1984   21939723.3184
 -22708650.50744 -17695042.93744  20269716.7754   20269717.4134
 -21467950.19544 -16728258.48744  20977896.5054   20977898.5024
  -3157937.89744  -2460722.13444  23804285.3744   23804288.6954
  -7331408.89444  -5712787.01844  23503664.8384   23503668.1964
 95  5 31  1 19  0.0000000  0  7G22G26G23G 6G17G16G20
  -2690465.93244  -2096465.98244  24026322.2344   24026326.5624
  -8778076.05844  -6840050.99244  22377091.9964   22377093.2344
 -17712798.89844 -13802164.78144  21925848.4344   21925850.5404
 -22689229.50444 -17679909.69644  20273412.3344   20273413.2364
 -21496297.81644 -16750347.53544  20972501.9174   20972504.0404
  -3059024.72244  -2383646.96444  23823107.0594   23823109.7514
  -7228846.23744  -5632868.11744  23523181.3204   23523184.7654
 95  5 31  1 19 30.0000000  0  7G22G26G23G 6G17G16G20
  -2736020.06644  -2131962.68044  24017653.3034   24017657.3274
  -8817208.92244  -6870544.09644  22369645.3604   22369646.9854
 -17784527.75944 -13858057.36544  21912198.1824   21912200.7324
 -22668519.83644 -17663772.29644  20277353.2194   20277353.9474
 -21523612.33244 -16771631.55944  20967304.1704   20967305.8004
  -2959199.20744  -2305860.93244  23842104.1624   23842106.1114
  -7125411.93744  -5552270.01644  23542864.6394   23542866.3464
 95  5 31  1 20  0.0000000  0  7G22G26G23G 6G17G16G20
  -2781681.23044  -2167542.75544  24008963.6884
  -8856436.03944  -6901110.65544  22362180.6024   22362180.5044
 -17856452.96244 -13914102.94544  21898511.0084   21898514.1144
 -22647878.16744 -17647687.88144  20281281.2224   20281282.2564
 -21551265.40144 -16793179.39044  20962041.8174   20962043.8794
  -2859842.70144  -2228440.32944  23861010.5714   23861013.0614
  -7022462.14644  -5472049.42644  23562455.5604   23562462.0924
 95  5 31  1 20 30.0000000  0  7G22G26G23G 6G17G16G20
  -2828086.82044  -2203703.01544  24000133.6144
  -8896388.74344  -6932242.57844  22354578.0054   22354578.3854
 -17929216.17844 -13970801.52244  21884665.1994   21884668.3664
 -22627939.26044 -17632151.06944  20285075.4354   20285075.8074
 -21579914.43944 -16815503.31044  20956589.8534   20956591.7794
  -2761579.71344  -2151871.79944  23879709.1774   23879712.7584
  -6920632.59444                  23581832.4704
 95  5 31  1 21  0.0000000  0  7G22G26G23G 6G17G16G20
  -2874273.80844  -2239692.85544  23991342.8714   23991346.9194
  -8936099.32444  -6963185.86544  22347021.1764   22347023.1844
 -18001875.52144 -14027419.17644  21870838.5464   21870841.5444
 -22607742.68044 -17616413.47344  20288918.7664   20288919.4674
 -21608609.15944 -16837862.82144  20951129.4354   20951131.3084
  -2663443.43344  -2075402.01344  23898384.4304   23898385.4244
  -6818984.59344  -5313495.63644  23601176.0074   23601178.0524
 95  5 31  1 21 30.0000000  0  8G22G26G23G 6G17G16G20G21
  -2919336.23044  -2274806.40644  23982768.9864   23982772.4704
  -8974679.43544  -6993248.25844  22339680.0324   22339681.1994
 -18073546.54644 -14083266.72144  21857200.0394   21857202.9294
 -22586385.36644 -17599771.42744  20292983.1584   20292983.8144
 -21636462.98844 -16859567.10844  20945829.1514   20945831.0224
  -2564542.95744  -1998336.77744  23917204.9044   23917208.3314
  -6716624.15544  -5233734.33644  23620654.6114   23620659.9404
        -1.04054        -0.30954  25146146.4194   25146147.4434
 95  5 31  1 22  0.0000000  0  8G22G26G23G 6G17G16G20G21
  -2963272.85044  -2309042.75244  23974407.5154   23974412.6504
  -9012141.12244  -7022439.14844  22332550.6124   22332551.8154
 -18144238.19844 -14138351.09544  21843747.6204   21843750.6914
 -22563885.66244 -17582239.20044  20297264.6064   20297265.3224
 -21663494.82244 -16880630.86444  20940685.3944   20940687.1994
  -2464875.48344  -1920673.85444  23936171.2864   23936173.9514
  -6613570.74144  -5153432.99544  23640265.1734   23640267.8764
    -98504.82144    -76756.43744  25127398.7064   25127398.1454
 95  5 31  1 22 30.0000000  0  8G22G26G23G 6G17G16G20G21
  -3006795.30044  -2342956.36844  23966125.9654   23966127.0364
  -9049205.86944  -7051320.73544  22325497.6914   22325498.4564
 -18214685.03844 -14193244.69944  21830342.4984   21830345.2834
 -22540978.21344 -17564389.24844  20301623.6864   20301624.5234
 -21690428.54644 -16901618.17144  20935559.8734   20935561.8274
  -2365172.04844  -1842982.91744  23955144.0594   23955147.0704
  -6510568.37244  -5073171.50444  23659865.8354   23659870.8824
   -197021.98644   -153522.94544  25108650.7424   25108648.0954
 95  5 31  1 23  0.0000000  0  8G22G26G23G 6G17G16G20G21
  -3049787.48944  -2376456.73744  23957945.0524   23957946.4064
  -9085766.56144  -7079809.55944  22318540.3924   22318540.7994
 -18284783.83544 -14247867.10444  21817003.0644   21817006.0194
 -22517549.90844 -17546133.43244  20306081.8114   20306082.5504
 -21717135.82644 -16922429.02444  20930477.6994   20930479.4144
  -2265338.84244  -1765190.86144  23974141.1204   23974144.9094
  -6407517.79344  -4992872.39844  23679475.4654   23679480.8724
   -295435.08944   -230208.44244  25089923.9064   25089917.4544
 95  5 31  1 23 30.0000000  0  8G22G26G23G 6G17G16G20G21
  -3092326.97144  -2409604.38044  23949850.0304   23949852.9044
  -9121885.34844  -7107954.04944  22311667.1004   22311667.6174
 -18354584.68044 -14302257.34144  21803720.1894   21803723.0714
 -22493673.41444 -17527528.37144  20310625.4734   20310626.2554
 -21743681.57444 -16943114.01244  20925426.3454   20925428.1194
  -2165444.04944  -1687350.80544  23993151.4944   23993154.9224
  -6304475.93844  -4912580.09944  23699084.0034   23699088.5264
   -393797.92044   -306854.70544  25071205.9194   25071202.8744
 95  5 31  1 24  0.0000000  0  8G22G26G23G 6G17G16G20G21
  -3134425.26844  -2442408.22744  23941838.8614   23941841.5684
  -9157546.37044  -7135741.83644  22304880.9874   22304881.9194
 -18424069.71744 -14356401.49244  21790497.8334   21790500.3234
 -22469359.64244 -17508582.57944  20315252.3304   20315253.0574
 -21770053.41244 -16963663.48944  20920407.6294   20920409.4884
  -2065492.97544  -1609466.92044  24012171.6134   24012174.1214
  -6201455.46244  -4832304.48644  23718688.3374   23718691.8544
   -492098.37844   -383452.32244  25052500.0344   25052498.5224
 95  5 31  1 24 30.0000000  0  8G26G22G23G 6G17G16G20G21
  -9192711.07444  -7163142.87344  22298189.5184   22298190.6594
  -3176055.85644  -2474847.60244  23933917.1804   23933920.3254
 -18493200.51044 -14410269.61044  21777342.7844   21777345.4854
 -22444569.88444 -17489265.89244  20319969.7044   20319970.2144
 -21796208.36444 -16984043.96744  20915430.5724   20915432.4314
  -1965455.06944  -1531515.36144  24031207.9724   24031209.7624
  -6098426.04944  -4752021.87544  23738294.4664   23738296.6764
   -590292.63644                  25033812.3774
 95  5 31  1 25  0.0000000  0  8G26G22G23G 6G17G16G20G21
  -9227445.69344  -7190208.78444  22291579.0624   22291580.4444
  -3217282.74944  -2506972.44744  23926072.7614   23926074.3394
 -18562018.96244 -14463894.34644  21764246.9104   21764249.4484
 -22419374.38844 -17469633.04444  20324763.9124   20324764.8804
 -21822221.73144 -17004314.12444  20910480.3204   20910482.4544
  -1865384.78844  -1453538.57544  24050250.6314   24050252.5974
  -5995432.99344  -4671767.62244  23757893.4324   23757896.5054
   -688438.97844                  25015130.7594
 95  5 31  1 25 30.0000000  0  7G26G22G23G 6G17G16G20
  -9261677.97144  -7216883.25444  22285065.3324   22285066.2904
  -3258032.72744  -2538725.65044  23918319.4014   23918320.6934
 -18630428.64844 -14517200.57244  21751228.8844   21751231.4974
 -22393711.65044 -17449636.10444  20329647.6784   20329648.3754
 -21848036.74144 -17024429.71444  20905567.8564   20905569.8974
  -1765204.50244  -1375476.08644  24069314.8134   24069320.3604
  -5892381.95644  -4591468.16344  23777504.0004   23777507.1364
 95  5 31  1 26  0.0000000  0  8G26G22G23G 6G17G16G20G21
  -9295400.84144  -7243160.78144  22278648.3124   22278648.7924
  -3298265.53344  -2570075.87444  23910662.9394   23910662.8704
 -18698417.40644 -14570178.80344  21738291.1164   21738293.4694
 -22367559.92044 -17429258.13344  20334624.1414   20334624.9804
 -21873640.61344 -17044380.77744  20900695.6734   20900697.7514
  -1664906.44644  -1297321.77744  24088400.0434   24088403.7684
  -5789264.14944  -4511116.71844  23797125.0424   23797128.1844
        -0.52354                  24977853.9844
 95  5 31  1 26 30.0000000  0  8G26G22G23G 6G17G16G20G21
  -9328640.87544  -7269062.08644  22272323.0634   22272323.5594
  -3338006.16144  -2601042.59544  23903100.6634   23903101.6084
 -18766026.06244 -14622860.84044  21725425.4044   21725427.8754
 -22340935.25644 -17408511.65044  20339690.5484   20339691.3384
 -21899066.70844 -17064193.31844  20895857.2094   20895859.4054
  -1564519.04944  -1219097.88844  24107503.1084   24107506.4254
  -5686106.46144  -4430734.17444  23816756.4364   23816760.3584
    -97736.32544    -76157.71244  24959259.2134   24959264.2354
 95  5 31  1 27  0.0000000  0  8G26G22G23G 6G17G16G20G21
  -9361397.47544  -7294586.69544  22266089.2084   22266090.6714
  -3377256.92444  -2631627.62144  23895630.8024   23895630.3124
 -18833264.28444 -14675254.21744  21712630.6384   21712632.5934
 -22313822.35944 -17387384.72444  20344849.9494   20344850.8304
 -21924315.98544 -17083868.07344  20891052.5544   20891054.6604
  -1464043.56944  -1140805.37244  24126622.9354   24126627.8744
  -5582909.15144  -4350320.74244  23836393.7194   23836396.6254
   -195342.01744   -152213.98644  24940686.6344   24940693.9224
 95  5 31  1 27 30.0000000  0  8G26G22G23G 6G17G16G20G21
  -9393691.46844  -7319750.83744  22259943.9704   22259944.6974
  -3416050.21644  -2661856.17644  23888247.8504   23888250.9184
 -18900179.15244 -14727395.64244  21699897.1044   21699899.1534
 -22286225.18844 -17365880.44344  20350101.6444   20350102.2094
 -21949407.56344 -17103419.94744  20886277.8424   20886279.8684
  -1363517.04944  -1062473.09044  24145752.4494   24145755.4934
  -5479722.65944  -4269915.75044  23856029.7784   23856034.5134
   -292854.22544   -228197.44444  24922131.6804   24922136.4744
 95  5 31  1 28  0.0000000  0  8G26G23G22G 6G17G16G20G21
  -9425486.73444  -7344526.36544  22253892.9464   22253893.3264
 -18966754.24144 -14779272.30344  21687228.1634   21687230.1424
  -3454358.93144  -2691707.09844  23880957.5594   23880959.4654
 -22258097.60144 -17343962.84744  20355454.0254   20355454.6674
 -21974297.68544 -17122814.84844  20881541.5524   20881543.3374
  -1262911.22444   -984079.00544  24164897.7084   24164900.0854
  -5376546.14444  -4189518.54344  23875663.5144   23875667.0844
   -390260.49844   -304098.36544  24903597.6004   24903602.1574
 95  5 31  1 28 30.0000000  0  8G26G23G22G 6G17G16G20G21
  -9456767.24344  -7368900.78044  22247940.8184   22247940.9204
 -19032968.90944 -14830868.11944  21674628.0264   21674630.1354
  -3492175.39444  -2721174.46144  23873762.3244   23873765.3754
 -22229434.71144 -17321628.13244  20360908.3844   20360909.1944
 -21998970.38444 -17142040.32144  20876846.5944   20876848.3054
  -1162201.30344   -905603.77644  24184062.2344   24184065.3594
  -5273365.89644  -4109118.39144  23895298.6884   23895302.5004
   -487559.20444   -379915.43644  24885081.1594   24885082.5744
 95  5 31  1 29  0.0000000  0  8G26G23G22G 6G17G16G20G21
  -9487582.79844  -7392912.88644  22242077.0394   22242078.2014
 -19098848.03144 -14882202.47944  21662091.7024   21662093.6754
  -3529522.62444  -2750276.19544  23866656.0174   23866658.1014
 -22200280.19244 -17298910.33444  20366456.4204   20366457.0004
 -22023458.22244 -17161121.74644  20872186.5234   20872188.2624
  -1061420.44644   -827073.29444  24203239.7504   24203242.4894
  -5170217.75344  -4028743.28844  23914926.5304   23914930.3114
   -584784.63844   -455675.40944  24866580.7344   24866582.0834
 95  5 31  1 29 30.0000000  0  8G26G23G22G 6G17G16G20G21
  -9517939.18144  -7416567.19644  22236300.2794   22236301.1474
 -19164386.49244 -14933271.39344  21649620.0754   21649622.1054
  -3566395.19544  -2779008.04344  23859638.1114   23859641.6764
 -22170657.75744 -17275827.92244  20372093.4504   20372094.3884
 -22047766.52244 -17180063.27044  20867560.7884   20867562.8784
   -960580.18444   -748496.54444  24222428.8564   24222432.5154
  -5067114.29744  -3948403.02044  23934546.9764   23934552.1204
   -681954.65144   -531392.22344  24848089.7274   24848092.2084
 95  5 31  1 30  0.0000000  0  8G26G23G22G 6G17G16G20G21
  -9547760.52444  -7439804.59344  22230625.5714   22230626.2174
 -19229516.61144 -14984022.11044  21637225.9274   21637227.9354
  -3602723.84644  -2807316.06044  23852724.5174   23852726.7764
 -22140515.92844 -17252340.79044  20377829.3094   20377830.1604
 -22071826.80244 -17198811.53044  20862982.3314   20862984.2234
   -859620.50744   -669826.71344  24241641.7834   24241644.9374
  -4963979.11444  -3868038.02444  23954172.9234   23954177.1534
   -778992.00344   -607005.67744  24829624.2404   24829623.2324
 95  5 31  1 30 30.0000000  0  8G26G22G23G 6G17G16G20G21
  -9577039.09344  -7462619.04944  22225054.1994   22225054.5844
  -3638508.46544  -2835200.14844  23845914.8514   23845919.0024
 -19294247.02544 -15034461.36644  21624907.8434   21624910.2024
 -22109854.70544 -17228448.93644  20383663.5814   20383664.4324
 -22095653.18444 -17217377.53344  20858448.1484   20858450.2734
   -758553.08044   -591072.91944  24260874.1154   24260876.9614
  -4860806.03244  -3787643.48744  23973805.7804   23973808.6364
   -875877.90844   -682501.11644  24811186.4854   24811184.1914
 95  5 31  1 31  0.0000000  0  8G26G23G22G 6G17G16G20G21
  -9605821.88044  -7485047.17744  22219576.4374   22219577.5674
 -19358653.27844 -15084648.03244  21612652.1144   21612654.4824
  -3673822.23744  -2862717.36844  23839195.6694   23839198.5354
 -22078735.82844 -17204200.46644  20389585.5674   20389586.2524
 -22119318.60744 -17235818.10844  20853944.8364   20853946.9694
   -657452.75144   -512293.50544  24280112.2544   24280114.2744
  -4757676.51344  -3707282.88844  23993431.0124   23993436.4424
   -972665.48644   -757919.94244  24792767.3754   24792765.5734
 95  5 31  1 31 30.0000000  0  8G26G23G22G 6G17G16G20G21
  -9634059.54944  -7507050.55044  22214203.5014   22214203.9944
 -19422719.16544 -15134569.48944  21600460.9344   21600463.2364
  -3708651.60844  -2889857.11644  23832568.2674   23832570.8094
 -22047126.14244 -17179569.54444  20395600.4254   20395601.4014
 -22142804.44744 -17254118.74744  20849475.5084   20849477.5584
   -556297.53844   -433471.33644  24299361.9654   24299366.7794
  -4654574.28744  -3626943.54544  24013050.8284   24013055.9314
  -1069321.42044   -833236.18044  24774373.8064   24774376.1074
 95  5 31  1 32  0.0000000  0  8G26G23G22G 6G17G16G20G21
  -9661743.42844  -7528622.37744  22208934.9444   22208935.9164
 -19486437.10544 -15184219.80744  21588335.4944   21588338.0894
  -3742998.01244  -2916620.54944  23826032.9324   23826034.1384
 -22015013.89644 -17154547.01244  20401711.5654   20401712.1454
 -22166107.62944 -17272277.06344  20845041.1594   20845043.0584
   -455080.53444   -354601.00644  24318622.6824   24318625.2434
  -4551490.51044  -3546618.61344  24032666.6724   24032668.8124
  -1165815.61644   -908426.38844  24756009.0224
 95  5 31  1 32 30.0000000  0  8G26G23G22G 6G17G16G20G21
  -9688896.38444  -7549780.50744  22203768.1434   22203768.7584
 -19549803.27444 -15233596.00744  21576277.1194   21576279.8914
  -3776865.74244  -2943011.01144  23819587.7164   23819588.2014
 -21982416.58444 -17129146.50344  20407914.6344   20407915.3544
 -22189233.91744 -17290297.53744  20840640.2004   20840642.2704
   -353794.56844   -275676.93044  24337897.1214   24337900.2474
  -4448450.78044  -3466328.00444  24052274.4764   24052277.6984
  -1262162.45244   -983501.74844  24737672.4284
 95  5 31  1 33  0.0000000  0  8G26G23G22G 6G17G16G20G21
  -9715514.01544  -7570521.50744  22198703.0404   22198703.7024
 -19612792.07644 -15282678.15244  21564290.8084   21564293.4324
  -3810234.68444  -2969012.81044  23813237.9784   23813240.3534
 -21949325.09744 -17103360.93044  20414211.4534   20414212.2114
 -22212158.66744 -17308160.96944  20836277.8414   20836279.9434
   -252420.01744   -196683.78544  24357187.8274   24357191.0134
  -4345433.56744  -3386054.91944  24071878.3044   24071882.9464
  -1358360.05244  -1058460.74644  24719367.0074   24719378.1774
 95  5 31  1 33 30.0000000  0  8G26G23G22G 6G17G16G20G21
  -9741606.13644  -7590853.01044  22193737.7794   22193738.2644
 -19675386.08644 -15331452.66744  21552379.6414   21552381.9294
  -3843100.86244  -2994622.80444  23806982.1124   23806985.5714
 -21915731.38044 -17077184.00844  20420604.1694   20420605.1124
 -22234862.58744 -17325852.32944  20831957.5144   20831959.4074
   -150963.24544   -117626.62544  24376494.5074   24376496.8624
  -4242405.62744  -3305773.47844  24091483.8474   24091489.0544
  -1454410.82344  -1133305.43944  24701091.3754   24701101.3044
 95  5 31  1 34  0.0000000  0  8G26G23G22G 6G17G16G20G21
  -9767224.19044  -7610815.10944  22188863.1584   22188863.7264
 -19737608.89744 -15379937.94944  21540539.1354   21540541.2284
  -3875502.08044  -3019870.44544  23800816.1484   23800819.3394
 -21881690.99344 -17050659.04044  20427081.7654   20427082.4974
 -22257370.81644 -17343391.20444  20827674.4384   20827676.3704
    -49470.63144    -38541.50744  24395808.3084   24395810.5624
  -4139392.27944  -3225503.38444  24111087.2794   24111090.6864
  -1550368.58144  -1208077.62144  24682831.1924   24682840.8724
 95  5 31  1 34 30.0000000  0  8G26G23G22G 6G17G16G20G21
  -9792368.56444  -7630408.10744  22184078.0094   22184078.3624
 -19799470.30244 -15428141.62544  21528767.4114   21528769.5244
  -3907446.01644  -3044761.82544  23794738.1624   23794741.3384
 -21847209.53244 -17023790.37244  20433643.5584   20433644.5744
 -22279697.74544 -17360788.80444  20823425.7494   20823427.7224
     52037.56444     40555.72844  24415122.6994   24415125.3024
  -4036403.05644  -3145252.10344  24130685.6304   24130693.1854
  -1646257.96544  -1282796.52844  24664584.6624   24664591.2654
 95  5 31  1 35  0.0000000  0  8G26G23G22G 6G17G16G20G21
  -9816996.35344  -7649598.57644  22179391.5794   22179392.4004
 -19860942.20844 -15476041.78444  21517070.0164   21517071.9624
  -3938912.00044  -3069280.75944  23788749.8764   23788753.0134
 -21812240.38444 -16996541.69644  20440298.0844   20440298.8384
 -22301821.38844 -17378027.99644  20819215.6784   20819217.6304
    153574.27444    119675.19444  24434445.4144   24434446.8034
  -3933401.03844  -3064990.87144  24150285.6104   24150288.0974
  -1742030.72244  -1357424.55644  24646360.7224   24646367.1134
 95  5 31  1 35 30.0000000  0  8G26G23G22G 6G17G16G20G21
  -9841098.18844  -7668379.21644  22174805.1714   22174805.5464
 -19922016.19144 -15523631.87144  21505447.8794   21505449.8184
  -3969893.91844  -3093422.50244  23782854.9504   23782857.9904
 -21776780.47744 -16968910.60744  20447045.6804   20447046.5664
 -22323739.43644 -17395106.98144  20815045.0164   20815046.9124
    255149.23344    198824.43444  24453775.6794   24453779.0994
  -3830401.40944  -2984731.50144  24169886.6934   24169890.5814
  -1837672.25744  -1431950.32144  24628161.3124   24628167.0294
 95  5 31  1 36  0.0000000  0  8G26G23G22G 6G17G16G20G21
  -9864683.03944  -7686757.01044  22170316.7434   22170317.4854
 -19982706.61844 -15570923.08844  21493898.7584   21493900.9944
  -4000384.24344  -3117181.20844  23777052.6464   23777055.4624
 -21740834.48644 -16940900.75544  20453886.0624   20453886.8334
 -22345483.01544 -17412050.02844  20810907.2964   20810909.5104
    356762.16544    278003.31344  24473111.9694   24473116.2994
  -3727449.13744  -2904509.01744  24189477.4724   24189480.5514
  -1933186.01444  -1506376.54044  24609986.6264   24609988.1084
 95  5 31  1 36 30.0000000  0  8G26G23G22G 6G17G16G20G21
  -9887711.15744  -7704700.98144  22165935.0474   22165936.5014
 -20042979.74144 -15617889.12944  21482429.1494   21482431.4864
  -4030330.52544  -3140515.95944  23771354.1664   23771355.6714
 -21704338.83444 -16912462.59144  20460831.0194   20460831.6314
 -22367026.81044 -17428837.39844  20806807.5414   20806809.6884
    458462.93444    357250.63044  24492465.3054   24492468.8414
  -3624535.30444  -2824316.46744  24209061.9774   24209064.1444
  -2028515.17444  -1580658.97144  24591845.4714   24591848.0934
 95  5 31  1 37  0.0000000  0  8G26G23G22G 6G17G16G20G21
  -9910217.18244  -7722238.13744  22161651.8954   22161652.3694
 -20102843.80744 -15664536.42044  21471037.2794   21471039.4954
  -4059738.35444  -3163431.18444  23765758.1724   23765760.4244
 -21667322.37044 -16883618.60544  20467874.7684   20467875.3334
 -22388381.30444 -17445477.26344  20802743.8844   20802745.8694
    560241.32244    436558.38244  24511831.5084   24511834.7144
  -3521679.38644  -2744169.05944  24228634.1474   24228637.9524
  -2123684.02344  -1654816.42444  24573735.4774   24573737.6494
 95  5 31  1 37 30.0000000  0  8G26G23G22G 6G17G16G20G21
  -9932201.16044  -7739368.50644  22157468.5194   22157469.6794
 -20162290.76244 -15710858.68644  21459724.5464   21459727.0234
  -4088586.66344  -3185910.38844  23760268.3024   23760271.7034
 -21629780.70344 -16854365.37144  20475018.8454   20475019.7314
 -22409530.68644 -17461957.29844  20798719.2404   20798721.4024
    662105.13544    515932.74744  24531216.1974   24531221.6514
  -3418874.48744  -2664061.43244  24248197.5924   24248200.7584
  -2218704.80644  -1728858.50144  24555654.0154   24555655.7304
 95  5 31  1 38  0.0000000  0  8G26G23G22G 6G17G16G20G21
  -9953664.24444  -7756092.97644  22153384.3754   22153384.8884
 -20221343.54044 -15756873.82244  21448487.2244   21448489.2864
  -4116895.40744  -3207969.14144  23754881.0474   23754885.1614
 -21591726.15744 -16824712.49144  20482260.5724   20482261.1594
 -22430471.43744 -17478274.75244  20794734.2274   20794736.0524
    764032.32644    595356.50144  24550612.9074   24550615.8994
  -3316119.56244  -2583992.74844  24267751.4114   24267757.2774
  -2313590.10144  -1802795.00644  24537598.1394   24537598.7304
 95  5 31  1 38 30.0000000  0  8G26G23G22G 6G17G16G20G21
  -9974609.10744  -7772413.63444  22149398.5294   22149399.3914
 -20280029.42644 -15802603.07644  21437319.8404   21437321.6964
  -4144694.71144  -3229630.91044  23749591.4034   23749594.4724
 -21553185.18744 -16794680.57744  20489594.6314   20489595.5044
 -22451198.79544 -17494425.93244  20790790.1874   20790791.8374
    866007.04844    674817.25644  24570016.5804   24570020.7984
  -3213419.47144  -2503966.76744  24287293.7254   24287298.5594
  -2408356.11644  -1876638.60944  24519564.3884   24519564.5954
 95  5 31  1 39  0.0000000  0  8G26G23G22G 6G17G16G20G21
  -9995029.35844  -7788325.48044  22145512.4534   22145512.8024
 -20338362.73844 -15848057.58544  21426219.6174   21426221.2214
  -4172003.83244  -3250910.69944  23744395.0504   23744396.8734
 -21514180.11344 -16764287.03944  20497017.0034   20497017.8314
 -22471710.17944 -17510408.81844  20786886.9134   20786888.5314
    968010.66544    754300.54844  24589429.1214   24589431.2944
  -3110763.21744  -2423974.95944  24306828.7054   24306834.9654
  -2503014.73144  -1950398.52844  24501550.7334   24501551.6644
 95  5 31  1 39 30.0000000  0  8G26G23G22G 6G17G16G20G21
 -10014891.87344  -7803802.77644  22141733.1594   22141733.9964
 -20396345.02544 -15893238.55744  21415185.7024   21415187.5914
  -4198818.87344  -3271805.51344  23739291.5484   23739295.2934
 -21474691.41544 -16733516.64544  20504531.3754   20504532.2804
 -22491980.95844 -17526204.22644  20783029.6654   20783031.4174
   1070049.88944    833811.62744  24608847.5554   24608851.7794
  -3008148.84044  -2344015.79644  24326355.3084   24326357.8634
  -2597539.65444  -2024054.25444  24483561.6054   24483562.4934
 95  5 31  1 40  0.0000000  0  8G26G23G22G 6G17G16G20G21
 -10034207.31244  -7818853.75844  22138057.5174   22138058.0714
 -20453988.68444 -15938155.65044  21404216.2294   21404218.4334
  -4225170.95444  -3292339.57844  23734277.5294   23734281.3694
 -21434743.30844 -16702388.26744  20512133.2394   20512134.2544
 -22512036.18744 -17541831.67244  20779213.1224   20779214.9774
   1172100.69144    913331.70944  24628265.9594   24628269.0004
  -2905600.79044  -2264108.30544  24345871.1444   24345875.3204
  -2691940.17344  -2097613.01244  24465594.6004
 95  5 31  1 40 30.0000000  0  8G26G23G22G 6G17G16G20G21
 -10052946.24344  -7833455.50344  22134491.7604   22134492.2624
 -20511239.21544 -15982766.42544  21393322.0124   21393324.5974
  -4251023.99544  -3312484.83744  23729358.5224   23729359.6444
 -21394297.21544 -16670871.84844  20519830.0294   20519830.6824
 -22531868.41444 -17557285.35544  20775439.0444   20775441.2344
   1274184.04544    992877.19244  24647690.1094   24647692.8204
  -2803098.89844  -2184236.76644  24365376.4174   24365379.7384
  -2786183.31044                  24447659.3784
 95  5 31  1 41  0.0000000  0  8G26G23G22G 6G17G16G20G21
 -10071098.95944  -7847600.47444  22131037.1894   22131038.1274
 -20568067.75644 -16027048.38544  21382507.7214   21382510.0974
  -4276358.85144  -3332226.30844  23724536.9304   23724538.8604
 -21353342.82444 -16638959.35544  20527623.3974   20527624.3544
 -22551472.96444 -17572561.62444  20771708.3394   20771710.6124
   1376297.82644   1072446.31144  24667122.9604   24667125.2174
  -2700626.30644  -2104388.07744  24384876.4124   24384878.9134
  -2880251.54044  -2244348.89244  24429760.1894   24429767.1554
 95  5 31  1 41 30.0000000  0  8G26G23G22G 6G17G16G20G21
 -10088739.38844  -7861346.24344  22127680.5344   22127681.1754
 -20624537.43544 -16071050.71144  21371761.9354   21371764.0634
  -4301242.90244  -3351616.51944  23719800.8694   23719803.8904
 -21311937.31444 -16606695.33044  20535502.4934   20535503.1724
 -22570928.43044 -17587721.72544  20768006.1314   20768008.1764
   1478372.89644   1151985.27044  24686548.2224   24686551.2164
  -2598255.43444  -2024618.65944  24404357.3514   24404360.2044
  -2974207.16644  -2317561.01844  24411883.4904   24411887.7924
 95  5 31  1 42  0.0000000  0  8G26G23G22G 6G17G16G20G21
 -10105818.00044  -7874654.24744  22124430.3374   22124430.9644
 -20680593.65744 -16114730.87844  21361094.8394   21361096.8264
  -4325625.21944  -3370615.72644  23715160.9984   23715162.5644
 -21270031.36344 -16574041.35944  20543476.9804   20543477.8404
 -22590209.63544 -17602746.03944  20764337.0624   20764338.7214
   1580461.64344   1231534.91244  24705975.6524   24705980.6054
  -2495933.65744  -1944887.47444  24423827.1954   24423830.3904
  -3067988.71944  -2390637.50544  24394038.3734   24394041.4254
 95  5 31  1 42 30.0000000  0  8G26G23G22G 6G17G16G20G21
 -10122310.50344  -7887505.53744  22121291.4934   22121292.5124
 -20736213.61644 -16158071.10244  21350510.8924   21350512.8114
  -4349453.34644  -3389183.10444  23710627.5674   23710629.1134
 -21227601.15144 -16540978.87544  20551551.2284   20551552.3484
 -22609285.49744 -17617610.34344  20760707.2014   20760708.9124
   1682603.51744   1311125.84044  24725412.6064
  -2393627.90744  -1865168.81644  24443297.0694   24443298.1114
  -3161561.73244  -2463551.44144  24376233.6354   24376235.3314
 95  5 31  1 43  0.0000000  0  8G26G23G22G 6G17G16G20G21
 -10138271.57944  -7899942.72744  22118255.2904   22118256.2424
 -20791453.97344 -16201115.51644  21339998.9024   21340001.0114
  -4372761.76344  -3407345.48644  23706191.4234   23706195.6544
 -21184695.06544 -16507545.58244  20559716.0284   20559716.8024
 -22628190.16844 -17632341.25344  20757109.6684   20757111.6714
   1784769.99744   1390736.12444  24744853.5734   24744852.0094
  -2291384.73644  -1785498.88644  24462750.6434   24462752.7694
  -3254975.97644  -2536341.70944  24358457.1344   24358458.1774
 95  5 31  1 43 30.0000000  0  8G26G23G22G 6G17G16G20G21
 -10153695.15144  -7911961.08744  22115319.3994   22115320.6114
 -20846301.67144 -16243853.95444  21329561.5384   21329563.5354
  -4395539.84344  -3425094.64344  23701857.6314   23701860.8224
 -21141295.95644 -16473728.11344  20567974.6584   20567975.7344
 -22646915.22944 -17646932.20644  20753546.4584   20753548.3344
   1886976.43744   1470377.44744  24764303.5844   24764307.1604
  -2189207.70444  -1705880.49444  24482196.4814   24482200.3594
  -3348220.76544  -2608999.92644  24340713.6904   24340716.5444
 95  5 31  1 44  0.0000000  0  8G26G23G22G 6G17G16G20G21
 -10168598.44344  -7923574.03044  22112483.6924   22112484.2094
 -20900771.98544 -16286298.32944  21319196.0864   21319198.2954
  -4417802.40844  -3442442.11544  23697621.2454   23697623.0734
 -21097438.82844 -16439553.75744  20576320.3614   20576321.0814
 -22665482.36044 -17661400.10744  20750013.3544   20750015.0744
   1989193.72244   1550027.17544  24783754.0464   24783756.7334
  -2087128.30444  -1626338.20444  24501621.3594   24501625.6394
  -3441323.92044  -2681547.76844  24322996.6704   24322998.6244
 95  5 31  1 44 30.0000000  0  8G26G23G22G 6G17G16G20G21
 -10183005.70344  -7934800.46144  22109742.1574   22109742.4704
 -20954880.73044 -16328460.96444  21308899.6424   21308901.6794
  -4439571.80244  -3459405.30644  23693479.2304   23693481.1484
 -21053135.63244 -16405031.81844  20584750.9434   20584752.0614
 -22683902.46844 -17675753.43644  20746508.3264   20746509.9414
   2091394.99844   1629664.44044  24803202.5924   24803207.5634
  -1985174.95044  -1546894.07844  24521021.6184   24521025.7644
  -3534320.11744  -2754012.29644  24305300.4774   24305300.8924
 95  5 31  1 45  0.0000000  0  8G26G23G22G 6G17G16G20G21
 -10196851.33244  -7945589.24444  22107107.2934   22107108.4844
 -21008583.67344 -16370307.38744  21298680.2384   21298682.3444
  -4460826.07344  -3475967.07044  23689434.2334   23689435.8594
 -21008326.20744 -16370115.40944  20593278.0394   20593278.7254
 -22702121.81444 -17689950.32944  20743041.2854   20743042.9454
   2193616.46344   1709317.51644  24822655.1754   24822657.5034
  -1883310.73644  -1467519.45644  24540406.6094   24540410.2964
  -3627167.41544  -2826360.77244  24287632.1174   24287634.6824
 95  5 31  1 45 30.0000000  0  8G26G23G22G 6G17G16G20G21
 -10210103.63544  -7955915.70044  22104585.7344   22104586.6904
 -21061867.54344 -16411827.27044  21288540.7054   21288542.5764
  -4481564.08944  -3492126.55444  23685488.2844   23685490.7034
 -20962999.87844 -16334796.22444  20601903.1534   20601903.8074
 -22720125.82144 -17703979.42944  20739615.1594   20739616.7514
   2295860.35944   1788988.04444  24842110.2174   24842113.4484
  -1781517.91444  -1388200.45844  24559777.6054
  -3719841.29344  -2898574.12244  24269995.4294   24269999.3464
 95  5 31  1 46  0.0000000  0  7G26G23G22G 6G17G20G21
 -10222755.38244  -7965774.18344  22102177.5424   22102178.9534
 -21114738.17244 -16453025.16844  21278480.1764   21278481.7384
  -4501782.84844  -3507881.42344  23681640.6534   23681642.9114
 -20917161.02444 -16299077.67744  20610626.0724   20610626.8624
 -22737907.42844 -17717835.22844  20736231.2474   20736232.8904
  -1679803.06244  -1308942.23144  24579132.4484
  -3812347.80944  -2970657.04344  24252389.2894   24252398.2244
 95  5 31  1 46 30.0000000  0  7G26G23G22G 6G17G20G21
 -10234850.36044  -7975198.83544  22099876.1944   22099876.7264
 -21167220.20844 -16493920.25444  21268492.7704   21268494.7214
  -4521513.38444  -3523255.85144  23677886.1704   23677889.2884
 -20870831.58144 -16262976.85344  20619442.2204   20619443.2354
 -22755483.72444 -17731531.04444  20732886.6204   20732888.2914
  -1578198.15644  -1229769.64044  24598467.9184
  -3904714.94244  -3042631.34844  24234811.5614   24234820.0014
 95  5 31  1 47  0.0000000  0  8G26G23G22G 6G17G16G20G21
 -10246378.20144  -7984181.54744  22097682.5064   22097683.5244
 -21219295.34144 -16534498.26144  21258583.1164   21258585.3284
  -4540727.28644  -3538227.71244  23674229.7994   23674231.0714
 -20824003.79844 -16226487.70444  20628353.4574   20628354.4194
 -22772827.44944 -17745045.63944  20729586.1244   20729587.6954
        -0.27754         0.34654  24900508.3634   24900512.0954
  -1476685.61744  -1150669.03644  24617784.8614
  -3996909.15844  -3114470.93344  24217266.8164   24217273.2894
 95  5 31  1 47 30.0000000  0  8G26G23G22G 6G17G16G20G21
 -10257388.28744  -7992760.82244  22095588.1534   22095588.5134
 -21270982.02444 -16574773.57244  21248747.3124   21248749.6894
  -4559434.01244  -3552804.41044  23670668.6354   23670675.8244
 -20776716.65844 -16189640.61044  20637351.8924   20637352.8204
 -22789973.67944 -17758406.33744  20726323.4674   20726324.9524
    102325.09644     79734.48544  24919980.2044
  -1375294.77344  -1071663.30844  24637077.0094
  -4088939.31144  -3186182.63744  24199755.8074   24199762.2594
 95  5 31  1 48  0.0000000  0  8G26G23G22G 6G17G16G20G21
 -10267884.80044  -8000939.90744  22093590.1514   22093591.0724
 -21322277.13244 -16614743.75644  21238986.2214   21238988.5724
  -4577622.64944  -3566977.41044  23667208.0814
 -20728952.24744 -16152421.61944  20646441.3784   20646442.4064
 -22806923.32544 -17771613.85044  20723097.9774   20723099.6874
    204667.18144    159481.51544  24939454.5784
  -1274018.02244   -992746.48544  24656351.0904
  -4180797.34144  -3257760.26544  24182276.0164   24182281.1344
 95  5 31  1 48 30.0000000  0  7G26G23G22G 6G17G20G21
 -10277890.28344  -8008736.37644  22091686.2344   22091687.0174
 -21373210.45644 -16654432.03244  21229293.6544   21229296.0364
  -4595318.37344                  23663840.5734
 -20680724.15944 -16114841.32244  20655618.6424   20655619.6764
 -22823695.55244 -17784683.11744  20719906.2854   20719907.9684
  -1172862.67344   -913924.27444  24675601.7684
  -4272492.11944  -3329210.69044  24164827.7694   24164833.1734
 95  5 31  1 49  0.0000000  0  8G26G23G22G 6G17G16G20G21
 -10287333.64944  -8016094.83244  22089888.5384   22089889.5524
 -21423753.97344 -16693816.57244  21219676.1864   21219678.1304
  -4612469.20544  -3594131.34744  23660576.8434   23660577.1464
 -20631982.43044 -16076860.77744  20664893.8354   20664894.8924
 -22840239.97644 -17797574.87544  20716757.9624   20716759.7224
         0.01354         0.41454  24978403.8234   24978407.4324
  -1071771.63444                  24694837.9704
  -4363965.71744  -3400488.75144  24147421.3774   24147426.9234
 95  5 31  1 49 30.0000000  0  8G26G23G22G 6G17G16G20G21
 -10296198.83744  -8023002.74844  22088201.8824   22088202.3234
 -21473916.38644 -16732904.13744  21210130.2614   21210132.5204
  -4629097.73844  -3607094.04244  23657412.5194   23657414.4524
 -20582721.91944 -16038475.98744  20674267.9004   20674268.8694
 -22856571.44644 -17810300.68444  20713650.0234   20713651.9234
    102353.65744                  24997879.7724
   -970754.90444   -756437.79144  24714061.3064
  -4455243.75944  -3471614.44744  24130051.0634   24130052.8654
 95  5 31  1 50  0.0000000  0  7G26G23G22G20G 6G17G21
 -10304391.05744  -8029386.29344  22086643.0574   22086644.1044
 -21523621.97044 -16771635.73844  21200671.4874   21200673.6054
  -4645132.86244  -3619589.89944  23654361.7314   23654363.4234
   -869739.49344   -677724.60844  24733282.9714
 -20532858.10944 -15999621.08844  20683756.6024   20683757.3204
 -22872602.84444 -17822792.67444  20710599.4864   20710601.0414
  -4546269.69444  -3542543.68144  24112729.8904   24112733.1874
 95  5 31  1 50 30.0000000  0  7G26G23G22G 6G17G20G21
 -10312070.32044  -8035370.12444  22085181.4484   22085181.9014
 -21573020.31444 -16810127.93444  21191271.4504   21191273.4274
  -4660741.75544                  23651391.6614
 -20482565.43744 -15960432.01244  20693327.0894   20693327.9484
 -22888486.81544 -17835169.79044  20707577.0394   20707578.7564
   -768901.83244                  24752471.3274
  -4637213.84244  -3613409.18744  24095425.3424   24095427.2464
 95  5 31  1 51  0.0000000  0  8G26G23G22G 6G17G16G20G21
 -10319178.31744  -8040908.81744  22083829.2824   22083830.0224
 -21622039.21844 -16848324.45344  21181943.4024   21181945.3274
  -4675870.86144  -3643539.45144  23648512.4434   23648512.4544
 -20431803.86544 -15920877.56144  20702986.8224   20702987.6674
 -22904184.28244 -17847401.57444  20704589.8274   20704591.7194
        -0.64654                  25056316.0554
   -668204.39044   -520684.40544  24771635.9354
  -4728034.20144  -3684178.27744  24078143.7354   24078142.6494
 95  5 31  1 51 30.0000000  0  8G26G23G22G 6G17G16G20G21
 -10325783.51144  -8046055.71644  22082572.5684   22082572.8444
 -21670710.81144 -16886250.35244  21172681.2964   21172683.3534
  -4690583.94544  -3655004.17644  23645712.9804   23645713.9704
 -20380637.26344 -15881007.51244  20712723.2944   20712724.4464
 -22919759.82944 -17859538.35744  20701625.8364   20701627.5834
    102219.69144                  25075769.9044
   -567708.35444   -442375.94444  24790758.3484   24790761.4334
  -4818793.91144  -3754900.09544  24060872.6084   24060873.1864
 95  5 31  1 52  0.0000000  0  7G26G23G22G20G21G 6G17
 -10331835.78244  -8050771.77944  22081420.5884   22081421.0364
 -21718967.07744 -16923852.61344  21163498.6664   21163500.9034
  -4704807.23644  -3666087.29344  23643005.9674   23643010.2144
   -467343.72044   -364169.83744  24809856.0034   24809859.0544
  -4909416.19544  -3825514.83544  24043627.5974   24043628.7064
 -20329012.18544 -15840780.20544  20722547.3574   20722548.3134
 -22935143.54844 -17871525.66444  20698698.3434   20698700.2474
 95  5 31  1 52 30.0000000  0  7G26G23G22G 6G17G20G21
 -10337258.18244  -8054997.01744  22080388.6734   22080389.2064
 -21766723.97544 -16961065.74744  21154410.8724   21154412.6914
  -4718459.14244  -3676725.15744  23640408.0614   23640411.2184
 -20276852.51944 -15800136.34444  20732472.8554   20732473.9404
 -22950255.42144 -17883301.14344  20695822.4074   20695824.3934
   -367028.71544   -286002.41244  24828945.8064   24828948.9394
  -4999799.31644  -3895943.15744  24026426.3954   24026429.8664
 95  5 31  1 53  0.0000000  0  8G26G23G22G 6G17G16G20G21
 -10342053.48344  -8058733.60344  22079476.0654   22079476.4974
 -21814007.47844 -16997910.00744  21145412.9034   21145414.7564
  -4731539.82144  -3686917.94744  23637918.2594   23637921.6014
 -20224173.44444 -15759087.74844  20742497.4254   20742498.2244
 -22965106.50444 -17894873.41344  20692996.3914   20692998.3854
         0.22354                  25134159.3284
   -266772.25844   -207880.62044  24848024.6454   24848029.7914
  -5089933.50444  -3966177.55144  24009274.1644   24009276.5934
 95  5 31  1 53 30.0000000  0  7G26G23G22G20G 6G17G21
 -10346325.16144  -8062062.17044  22078663.2804   22078663.8414
 -21860927.98244 -17034471.40544  21136484.2444   21136486.2324
  -4744146.13844  -3696741.06044  23635519.1344   23635523.9064
   -166668.59344   -129877.86444  24867073.1744   24867077.3604
 -20171065.20944 -15717704.73544  20752603.7044   20752604.4734
 -22979791.96244 -17906316.62144  20690201.8474   20690203.8644
  -5179903.51344  -4036284.02844  23992152.6664   23992156.1474
 95  5 31  1 54  0.0000000  0  7G26G23G22G20G 6G17G21
 -10350028.88344  -8064948.17544  22077958.4394   22077959.1974
 -21907468.89244 -17070737.02844  21127627.6244   21127629.6234
  -4756235.17744  -3706161.06544  23633218.2294   23633221.4154
    -66692.98444    -51974.86844  24886098.5154   24886103.3774
 -20117497.57544 -15675963.75144  20762797.2804   20762798.3484
 -22994282.54444 -17917607.97944  20687444.5294   20687446.3164
  -5269672.64044  -4106233.93144  23975069.8704   23975073.9914
 95  5 31  1 54 30.0000000  0  7G26G23G22G20G21G 6G17
 -10353165.56144  -8067392.31844  22077361.6284   22077362.2674
 -21953649.49244 -17106721.90244  21118839.6794   21118841.7114
  -4767816.01344  -3715185.06944  23631015.2424   23631018.0334
     33139.60544     25816.60644  24905095.6014   24905100.0804
  -5359253.42244  -4176037.06244  23958023.0314   23958027.9354
 -20063481.52844 -15633873.35044  20773076.3574   20773077.3324
 -23008597.79044 -17928762.71744  20684720.4764   20684722.1424
 95  5 31  1 55  0.0000000  0  7G26G23G22G20G 6G17G21
 -10355666.63344  -8069341.19644  22076885.3904   22076886.3734
 -21999411.93144 -17142380.93944  21110131.4714   21110133.4404
  -4778816.23844  -3723756.68544  23628922.5884   23628925.5234
    132893.13744    103546.52144  24924077.7444   24924084.0154
 -20008948.07444 -15591379.77944  20783453.9534   20783454.7624
 -23022682.23044 -17939737.60144  20682040.2804   20682042.2414
  -5448602.47444  -4245659.66044  23941020.1334   23941025.4264
 95  5 31  1 55 30.0000000  0  7G26G23G22G20G 6G17G21
 -10357574.67644  -8070827.96644  22076522.5494   22076523.1054
 -22044790.95944 -17177741.20944  21101496.1964   21101498.1424
  -4789274.80844  -3731906.22944  23626931.7634   23626934.7894
    232525.72244    181182.19244  24943038.4844   24943044.9404
 -19953923.35044 -15548503.39744  20793924.5024   20793925.7594
 -23036576.39144 -17950564.21944  20679396.2904   20679398.0084
  -5537786.07844  -4315153.33844  23924048.4014   23924054.9114
 95  5 31  1 56  0.0000000  0  7G26G23G22G 6G17G20G21
 -10358902.14644  -8071862.34344  22076269.5344   22076269.9494
 -22089796.00644 -17212810.06144  21092932.1164   21092933.9514
  -4799215.42144  -3739652.16844  23625040.9944   23625042.7374
 -19898419.71444 -15505253.85444  20804486.1964   20804487.4304
 -23050283.37144 -17961244.97844  20676787.8334   20676789.6464
    332019.04244    258709.36044  24961970.5104   24961976.5694
  -5626824.37544  -4384533.76544  23907104.0054   23907112.1964
 95  5 31  1 56 30.0000000  0  8G26G23G22G 6G17G28G20G21
 -10359715.25444  -8072495.91944  22076115.0354   22076116.1734
 -22134472.14944 -17247622.62044  21084430.4994   21084432.2734
  -4808701.81944  -3747044.17744  23623235.3404   23623236.9144
 -19842483.20144 -15461666.99644  20815130.8504   20815131.8974
 -23063842.83044 -17971810.78444  20674207.5594   20674209.4294
        -0.56814        -0.81614  25370742.613    25370741.795
    431316.54344    336083.92044  24980866.8054   24980870.2354
  -5715756.47744  -4453831.44844  23890182.1144   23890187.8254
 95  5 31  1 57  0.0000000  0  8G26G23G22G 6G17G28G20G21
 -10359969.46544  -8072693.99444  22076066.6054   22076066.9704
 -22178744.58744 -17282120.59844  21076005.6424   21076007.5514
  -4817681.06544  -3754041.02444  23621526.8174   23621528.7454
 -19786057.52944 -15417698.98044  20825868.4384   20825869.5054
 -23077184.74244 -17982207.08044  20671668.5444   20671670.4484
   -107724.302 4    -83941.383 4  25350242.287    25350242.571
    530469.70544    413345.99844  24999735.0074   24999739.9484
  -5804514.96444  -4522993.88344  23873293.3074   23873296.3424
 95  5 31  1 57 30.0000000  0  8G26G23G22G 6G17G28G20G21
 -10359706.73444  -8072489.25844  22076116.4934   22076117.5154
 -22222633.73544 -17316319.90644  21067653.5944   21067655.8554
  -4826210.21944  -3760687.13444  23619904.9434   23619905.3754
 -19729183.91644 -15373381.90444  20836691.1404   20836692.3514
 -23090350.19844 -17992465.87244  20669163.1244   20669164.8254
   -215501.753 4   -167923.735 4  25329733.172    25329732.769
    629441.21444    490466.53944  25018569.5264   25018575.4414
  -5893120.50744  -4592037.13844  23856432.3624   23856436.5544
 95  5 31  1 58  0.0000000  0  8G26G23G22G 6G17G28G20G21
 -10358880.58244  -8071845.49944  22076273.5904   22076274.6664
 -22266080.78344 -17350174.73544  21059385.9034   21059388.0074
  -4834249.42344  -3766951.48744  23618374.4784   23618375.8174
 -19671820.20344 -15328682.95144  20847607.1624   20847608.2434
 -23103299.52944 -18002556.25644  20666699.3414   20666700.8584
   -323279.289 4   -251906.219 4  25309223.558    25309223.871
    728274.63744    567479.49544  25037376.6054   25037381.1604
  -5981503.73544  -4660907.12744  23839613.1424   23839617.9864
 95  5 31  1 58 30.0000000  0  8G26G23G22G 6G17G28G20G21
 -10357521.42144  -8070786.39244  22076532.4934   22076532.8134
 -22309110.96944 -17383704.74044  21051197.6284   21051199.5624
  -4841806.01644  -3772839.75344  23616936.4014   23616936.9584
 -19613993.93144 -15283623.53844  20858610.8744   20858611.8364
 -23116068.50944 -18012506.10444  20664269.4034   20664270.9934
   -431075.558 4   -335903.248 4  25288710.529    25288710.932
    826942.91444    644363.74544  25056152.0074   25056155.9454
  -6069687.44344  -4729621.65844  23822831.3964   23822836.7394
 95  5 31  1 59  0.0000000  0  8G26G23G22G 6G17G28G20G21
 -10355586.71544  -8069278.82644  22076900.6144   22076901.1444
 -22351693.59444 -17416885.99844  21043094.6044   21043096.5484
  -4848838.44344  -3778319.59144  23615598.2584   23615599.8694
 -19555666.61144 -15238173.70144  20869710.0714   20869711.3024
 -23128637.00344 -18022299.72744  20661877.8354   20661879.6074
   -538851.602 4   -419884.539 4  25268201.091    25268202.620
    925480.07844    721145.91544  25074904.3524   25074907.8114
  -6157655.30844  -4798167.98944  23806092.6074   23806096.7584
 95  5 31  1 59 30.0000000  0  8G23G26G22G 6G17G28G20G21
 -22393837.95944 -17449725.74544  21035074.7494   21035076.5924
 -10353053.94644  -8067305.23244  22077382.3284   22077382.6234
  -4855334.49344  -3783381.45644  23614361.7414   23614362.0274
 -19496814.14944 -15192314.66244  20880909.8924   20880910.9244
 -23140999.11444 -18031932.53644  20659525.4364   20659526.9484
   -646583.987 4   -503831.860 4  25247700.412    25247702.478
   1023894.38444    797832.28144  25093631.6164   25093637.5164
  -6245388.51644  -4866531.48844  23789398.4254   23789401.6794
 95  5 31  2  0  0.0000000  0  8G26G23G22G 6G17G28G20G21
 -10349971.65044  -8064903.44244  22077968.9074   22077969.5264
 -22435613.68444 -17482278.23744  21027124.8994   21027126.9004
  -4861330.19544  -3788053.45944  23613220.5304   23613222.9324
 -19437489.01844 -15146087.30444  20892198.7204   20892199.9404
 -23153180.01644 -18041424.14344  20657207.2624   20657208.9434
   -754312.654 4   -587776.238 4  25227200.214    25227202.266
   1122127.25744    874377.31044  25112323.9614
  -6332929.78444  -4934745.43944  23772740.2954   23772741.7054
 95  5 31  2  0 30.0000000  0  8G26G23G22G 6G17G28G20G21
 -10346337.90444  -8062071.94644  22078660.6044   22078661.3594
 -22477034.69344 -17514554.33544  21019242.5674   21019244.5144
  -4866823.78744  -3792334.21344  23612175.3584   23612176.9034
 -19377699.83444 -15099498.36944  20903576.3764   20903577.6414
 -23165164.63444 -18050762.79944  20654926.5074   20654928.4014
   -862033.982 4   -671714.946 4  25206701.696    25206703.474
   1220176.77244    950779.46844  25130981.7884
  -6420276.48944  -5002807.80444  23756118.3844   23756121.9224
 95  5 31  2  1  0.0000000  0  8G26G23G22G 6G17G28G20G21
 -10342216.57444  -8058860.51144  22079444.6594   22079445.1724
 -22518179.57544 -17546615.27244  21011413.0294   21011414.9844
  -4871913.00544  -3796299.80744  23611206.4694   23611208.8984
 -19317533.30944 -15052615.41444  20915025.8424   20915027.1014
 -23177021.61144 -18060001.99644  20652670.0544   20652672.0324
   -969827.929 4   -755710.112 4  25186189.660    25186193.241
   1317958.09344                  25149589.3674
  -6507508.56644  -5070780.79644  23739518.4364   23739520.8044
 95  5 31  2  1 30.0000000  0  8G26G23G22G 6G17G28G20G21
 -10337441.02944  -8055139.29944  22080353.3334   22080354.4234
 -22558871.90144 -17578323.56244  21003669.3524   21003671.6074
  -4876423.16644  -3799814.28744  23610347.8674   23610351.0304
 -19256837.89544 -15005320.31944  20926575.4714   20926576.7014
 -23188574.36344 -18069004.13144  20650471.8064   20650473.5604
  -1077526.435 4   -839630.989 4  25165695.321    25165696.303
   1415636.48744                  25168177.4474
  -6594456.26444  -5138532.20944  23722973.1794   23722975.8664
 95  5 31  2  2  0.0000000  0  7G26G23G22G20G 6G17G21
 -10332049.03944  -8050937.74244  22081379.6584   22081380.1894
 -22599139.69044 -17609701.03544  20996006.8364   20996008.7444
  -4880388.42144  -3802904.12044  23609593.0124   23609595.0144
   1513171.85744                  25186737.6354
 -19195677.07244 -14957662.60044  20938214.4974   20938215.5344
 -23199867.96644 -18077804.33644  20648322.7424   20648324.6814
  -6681181.15844  -5206110.02844  23706469.9274   23706471.0304
 95  5 31  2  2 30.0000000  0  7G26G22G23G 6G17G20G21
 -10326072.42744  -8046280.62244  22082517.1454   22082517.5674
  -4883854.47544  -3805604.94144  23608934.2424   23608936.5424
 -22639018.98844 -17640775.78244  20988417.9694   20988419.7454
 -19134086.76244 -14909670.19944  20949934.6644   20949935.9384
 -23210963.12444 -18086449.90644  20646211.2674   20646213.2024
   1610526.76344                  25205264.5414
  -6767739.70444  -5273558.22844  23689998.2074   23689999.9804
 95  5 31  2  3  0.0000000  0  7G26G22G23G 6G17G20G21
 -10319465.67144  -8041132.49344  22083774.1284   22083774.8034
  -4886772.63444  -3807878.83544  23608378.8664   23608381.9884
 -22678453.11144 -17671503.64744  20980913.8714   20980915.7754
 -19072014.16944 -14861301.98644  20961746.7224   20961747.9294
 -23221823.58644 -18094912.59544  20644144.5924   20644146.4624
   1707748.14344                  25223765.5364
  -6854097.28444  -5340849.80444  23673564.3334   23673567.5154
 95  5 31  2  3 30.0000000  0  8G26G22G23G 6G17G28G20G21
 -10312239.06444  -8035501.36644  22085149.4144   22085149.9554
  -4889129.62444  -3809715.47044  23607930.3914   23607934.1484
 -22717449.11944 -17701890.13444  20973493.3674   20973495.0624
 -19009455.18744 -14812554.74244  20973651.1514   20973652.5404
 -23232455.83244 -18103197.45444  20642121.5474   20642123.4554
        -0.02714         0.25414  25083780.357    25083777.148
   1804839.92444                  25242240.2164
  -6940246.55144  -5407979.07644  23657169.6974   23657173.2024
 95  5 31  2  4  0.0000000  0  7G26G 6G22G20G23G17G21
 -10304406.63644  -8029398.15444  22086639.8204   22086640.6574
 -18946409.00244 -14763427.87844  20985648.2224   20985649.6604
  -4890958.89744  -3811140.91444  23607581.7454   23607585.3674
   1901794.86644                  25260690.7694
 -22756030.33744 -17731953.42244  20966151.5574   20966153.2664
 -23242871.41744 -18111313.48744  20640139.4784   20640141.3434
  -7026193.65744  -5474950.78344  23640814.4364   23640819.8214
 95  5 31  2  4 30.0000000  0  7G26G 6G22G23G17G20G21
 -10296122.33044  -8022942.85144  22088216.3004   22088217.2824
 -18883007.66744 -14714024.29244  20997713.3534   20997714.5334
  -4892409.80944  -3812271.50544  23607306.2904   23607309.0674
 -22794333.58244 -17761800.09144  20958862.5654   20958864.3024
 -23253202.30644 -18119363.52744  20638173.5404   20638175.4804
   1998460.83744                  25279086.3234
  -7112069.98144  -5541867.35444  23624472.0954   23624476.7734
 95  5 31  2  5  0.0000000  0  6G26G 6G22G21G23G17
 -10287344.75244  -8016103.16844  22089886.4124   22089887.4464
 -18819213.61944 -14664314.67644  21009853.0114   21009854.4634
  -4893424.97544  -3813062.54244  23607113.2014   23607115.3884
  -7197811.41444  -5608678.84844  23608156.3394   23608159.6594
 -22832297.91744 -17791382.67744  20951638.0844   20951639.9194
 -23263389.96544 -18127301.95844  20636234.9644   20636236.5884
 95  5 31  2  5 30.0000000  0  6G26G 6G22G21G23G17
 -10277934.43744  -8008770.44044  22091677.1674   22091677.5464
 -18754893.78144 -14614195.35244  21022092.4764   21022093.8284
  -4893874.31544  -3813412.68144  23607028.0374   23607030.4074
  -7283272.62144  -5675271.95744  23591892.9134   23591896.0104
 -22869788.45644 -17820596.07344  20944504.1214   20944506.0294
 -23273307.89444 -18135030.21044  20634347.5194   20634349.2604
 95  5 31  2  6  0.0000000  0  6G26G 6G22G21G23G17
 -10267923.76444  -8000969.91744  22093582.1294   22093582.7304
 -18690092.41244 -14563700.82744  21034423.8804   21034425.3344
  -4893811.98944  -3813364.14344  23607039.0304   23607042.2094
  -7368492.37544  -5741676.90744  23575676.9554   23575680.4354
 -22906836.49544 -17849464.64844  20937453.7484   20937455.6084
 -23282998.49044 -18142581.31744  20632503.5334   20632505.2564
 95  5 31  2  6 30.0000000  0  6G26G 6G22G21G23G17
 -10257357.63844  -7992736.56044  22095592.5504   22095593.4374
 -18624870.14444 -14512878.31444  21046835.4434   21046836.6444
  -4893276.86344  -3812947.18444  23607140.9984   23607144.3704
  -7453514.60044  -5807927.94844  23559498.0924   23559502.2704
 -22943487.62844 -17878023.95444  20930479.5514   20930481.2224
 -23292512.10544 -18149994.52244  20630693.1584   20630695.0094
 95  5 31  2  7  0.0000000  0  6G26G 6G22G21G23G17
 -10246210.50844  -7984050.47644  22097714.2754   22097714.3224
 -18559206.12144 -14461711.57744  21059330.8494   21059332.0054
  -4892252.48344  -3812148.97844  23607336.2904   23607339.7684
  -7538321.07244  -5874010.86744  23543359.5404   23543363.3624
 -22979730.93744 -17906265.48644  20923582.6494   20923584.5634
 -23301832.57244 -18157257.22244  20628919.4824   20628921.1084
 95  5 31  2  7 30.0000000  0  6G26G 6G22G21G23G17
 -10234518.97544  -7974940.18444  22099938.5704   22099939.2194
 -18493115.18844 -14410212.21544  21071907.4404   21071908.7444
  -4890776.08144  -3810998.56044  23607616.7124   23607621.5204
  -7622946.79744  -5939952.96544  23527256.1144   23527258.3614
 -23015603.78344 -17934218.32944  20916756.5644   20916758.3924
 -23310978.31444 -18164383.77244  20627178.9574   20627180.6894
 95  5 31  2  8  0.0000000  0  7G 6G26G22G28G21G23G17
 -18426532.36944 -14358329.54844  21084577.9934   21084579.6184
 -10222231.96944  -7965365.88544  22102277.1034   22102277.5484
  -4888787.86444  -3809449.34144  23607994.9234   23607999.0824
        -0.92414        -0.78514  24899661.173    24899671.077
  -7707331.54444  -6005707.26844  23511198.7554   23511202.5574
 -23051048.05544 -17961837.21044  20910011.6604   20910013.5574
 -23319872.11044 -18171314.00444  20625486.4074   20625488.1794
 95  5 31  2  8 30.0000000  0  7G26G 6G22G28G21G23G17
 -10209339.41744  -7955319.74544  22104730.2834   22104731.4194
 -18359442.33344 -14306051.64544  21097344.7884   21097346.4714
  -4886257.91244  -3807477.97944  23608476.1334   23608480.3254
   -107274.319 4    -83590.338 4  24879245.387    24879264.756
  -7791461.66744  -6071263.15344  23495189.8504   23495192.9774
 -23086045.51944 -17989107.94844  20903351.8534   20903353.5484
 -23328496.41244 -18178034.24044  20623845.5794   20623847.2544
 95  5 31  2  9  0.0000000  0  7G26G 6G22G28G21G23G17
 -10195877.20344  -7944829.70844  22107292.3934   22107292.9154
 -18291871.62944 -14253399.19944  21110203.0954   21110204.4404
  -4883208.97444  -3805102.19944  23609056.6394   23609060.2684
   -214485.075 4   -167131.128 4  24858840.618    24858854.519
  -7875358.99544  -6136637.66044  23479224.7274   23479227.0644
 -23120622.64944 -18016051.16144  20896772.0284   20896773.7694
 -23336877.18844 -18184564.71544  20622250.9554   20622252.5754
 95  5 31  2  9 30.0000000  0  7G26G 6G22G28G21G23G17
 -10181927.51644  -7933959.81744  22109947.0064   22109947.5164
 -18223918.87044 -14200449.03044  21123134.3184   21123135.8214
  -4879712.32244  -3802377.57144  23609721.7294   23609724.7254
   -321719.890 4   -250690.798 4  24838438.156    24838449.215
  -7959099.90244  -6201890.27744  23463289.5064   23463291.5454
 -23154864.63344 -18042733.20744  20890256.0264   20890257.6094
 -23345110.90444 -18190980.59944  20620684.0604   20620685.6464
 95  5 31  2 10  0.0000000  0  7G26G 6G22G28G21G23G17
 -10167405.33444  -7922643.83044  22112709.8884   22112710.7324
 -18155525.11544 -14147155.22944  21136149.3334   21136150.4104
  -4875685.31844  -3799239.69544  23610488.9554   23610492.1694
   -428903.538 4   -334210.506 4  24818040.141    24818048.198
  -8042617.51244  -6266968.89344  23447396.4254   23447398.9034
 -23188703.35944 -18069101.03544  20883816.6474   20883818.1144
 -23353141.07044 -18197237.87344  20619155.8424   20619157.6654
 95  5 31  2 10 30.0000000  0  7G26G 6G22G28G21G23G17
 -10152317.38944  -7910886.98444  22115581.3654   22115581.9464
 -18086709.18444 -14093532.44744  21149244.1584   21149245.6894
  -4871124.39544  -3795685.73644  23611358.0064   23611359.1134
   -536032.853 4   -417687.752 4  24797651.571    24797658.500
  -8125918.46244  -6331878.66344  23431544.6434   23431547.7374
 -23222144.53044 -18095159.08744  20877452.9354   20877454.5284
 -23360964.89944 -18203334.36544  20617666.6464   20617668.4374
 95  5 31  2 11  0.0000000  0  7G26G22G 6G28G21G23G17
 -10136649.39744  -7898678.15344  22118562.7614   22118563.7474
  -4866024.02744  -3791711.45544  23612329.4664   23612329.9254
 -18017450.95344 -14039565.03844  21162423.5564   21162425.0064
   -643087.894 4   -501107.177 4  24777278.319    24777287.594
  -8208996.27044  -6396614.54644  23415735.1534   23415737.1814
 -23255183.41544 -18120903.66344  20871165.7464   20871167.4184
 -23368553.58044 -18209247.62744  20616222.8594   20616224.5554
 95  5 31  2 11 30.0000000  0  7G26G22G 6G28G23G17G21
 -10120396.61644  -7886013.64144  22121655.7014   22121656.3314
  -4860405.53944  -3787333.44944  23613397.9094   23613400.1014
 -17947750.58044 -13985253.11244  21175687.3144   21175688.7804
   -750079.898 4   -584477.433 4  24756916.362    24756936.757
 -23287826.39344 -18146339.72044  20864954.0914   20864955.4354
 -23375922.41044 -18214989.57044  20614820.7554   20614822.3894
  -8291877.33644  -6461197.16044  23399962.6934   23399966.1414
 95  5 31  2 12  0.0000000  0  7G26G22G 6G28G21G23G17
 -10103547.07544  -7872884.12244  22124861.8044   22124862.9104
  -4854277.71844  -3782558.56344  23614563.4994   23614566.5254
 -17877575.70744 -13930571.41844  21189041.2164   21189042.6194
   -856987.528 4   -667782.235 4  24736576.001    24736575.398
  -8374549.93444  -6525617.31244  23384230.9484   23384232.5474
 -23320045.00344 -18171445.09644  20858822.8454   20858824.6484
 -23383039.84244 -18220535.62044  20613466.3134   20613467.8844
 95  5 31  2 12 30.0000000  0  6G26G22G 6G21G23G17
 -10086118.63344  -7859303.51644  22128178.3984   22128178.8804
  -4847690.23944  -3777425.49544  23615817.0564   23615818.6854
 -17806954.24644 -13875541.73744  21202479.9434   21202481.3244
  -8457031.20344  -6589888.36944  23368534.9284   23368537.3284
 -23351860.86144 -18196236.66244  20852768.7534   20852770.1814
 -23389943.72044 -18225915.26644  20612152.6994   20612154.3624
 95  5 31  2 13  0.0000000  0  6G26G22G 6G21G23G17
 -10068069.56044  -7845239.29344  22131613.3964   22131613.8104
  -4840629.82344  -3771923.89944  23617160.5504   23617162.9814
 -17735850.55244 -13820136.30344  21216010.3714   21216011.7144
  -8539293.65544  -6653988.93544  23352879.8164   23352884.5334
 -23383246.40644 -18220692.91744  20846796.2414   20846797.6544
 -23396634.33944 -18231128.73744  20610879.1394   20610880.9714
 95  5 31  2 13 30.0000000  0  6G22G26G 6G21G23G17
  -4833072.02044  -3766034.72944  23618597.9784   23618599.7314
 -10049375.00244  -7830672.10444  22135170.5814   22135171.2334
 -17664255.26244 -13764347.80444  21229634.9354   21229635.8974
  -8621298.44544  -6717888.70744  23337274.9194   23337278.7644
 -23414169.43344 -18244788.76744  20840911.5664   20840913.2094
 -23403100.84944 -18236167.57844  20609648.5914   20609650.4954
 95  5 31  2 14  0.0000000  0  6G22G26G 6G21G23G17
  -4825044.02344  -3759779.14644  23620126.1724   23620128.5414
 -10030083.20744  -7815639.53944  22138841.6184   22138842.2534
 -17592216.50844 -13708213.73644  21243343.5534   21243344.8094
  -8703069.93844  -6781606.68144  23321714.5514   23321717.7964
 -23444673.53244 -18268558.17444  20835106.9494   20835108.6794
 -23409367.95844 -18241051.04144  20608456.3294   20608457.7514
 95  5 31  2 14 30.0000000  0  6G22G26G 6G21G23G17
  -4816541.16144  -3753153.59044  23621744.3714   23621745.1624
 -10010217.95544  -7800160.11044  22142621.4584   22142622.4174
 -17519756.34844 -13651751.30244  21257132.2734   21257133.6334
  -8784627.54644  -6845157.97644  23306194.8464   23306198.8054
 -23474797.71344 -18292031.53744  20829374.2594   20829375.8294
 -23415449.73144 -18245790.08944  20607298.9254   20607300.3564
 95  5 31  2 15  0.0000000  0  6G22G26G 6G21G23G17
  -4807544.53244  -3746143.24144  23623456.1034   23623459.6854
  -9989801.36344  -7784251.08144  22146506.9044   22146507.3574
 -17446870.94644 -13594957.52244  21271001.9774   21271003.5654
  -8865978.01044  -6908547.88144  23290714.3114   23290718.0284
 -23504550.15844 -18315215.24044  20823712.8634   20823714.3604
 -23421316.83344 -18250361.86244  20606182.4504   20606183.8854
 95  5 31  2 15 30.0000000  0  6G22G26G 6G21G23G17
  -4798028.50244  -3738728.16344  23625267.5314   23625269.6674
  -9968827.16544  -7767907.54644  22150498.5374   22150498.9164
 -17373550.40444 -13537824.67944  21284954.3954   21284956.0704
  -8947102.17644  -6971761.46044  23275277.6574   23275280.6974
 -23533919.02344 -18338100.06544  20818123.8794   20818125.5894
 -23426931.79044 -18254737.15544  20605114.2744   20605115.7254
 95  5 31  2 16  0.0000000  0  7G22G26G 6G28G23G17G21
  -4788021.98244  -3730930.91444  23627171.6984   23627173.2564
  -9947310.15344  -7751141.03544  22154592.9354   22154593.5544
 -17299804.36544 -13480360.27444  21298987.6684   21298989.1324
        -0.04814         0.50014  24574351.392    24574348.415
 -23562936.94744 -18360711.41344  20812602.0734   20812603.9244
 -23432317.01344 -18258933.43744  20604089.4564   20604090.9004
  -9028030.27744  -7034822.24844  23259877.4904   23259879.8284
 95  5 31  2 16 30.0000000  0  7G22G26G 6G28G21G23G17
  -4777560.39244  -3722779.05744  23629162.0164   23629165.2284
  -9925256.74444  -7733956.56544  22158789.7034   22158790.0554
 -17225659.98444 -13422585.47344  21313096.6914   21313098.3664
   -106249.161 4    -82790.943 4  24554132.657    24554129.740
  -9108774.56444  -7097739.82444  23244511.7814   23244514.6664
 -23591620.49044 -18383062.21744  20807144.0134   20807145.5284
 -23437508.80444 -18262978.99144  20603101.1164   20603102.7894
 95  5 31  2 17  0.0000000  0  7G22G26G 6G28G23G17G21
  -4766623.70744  -3714256.96744  23631243.3034   23631246.4894
  -9902612.06944  -7716311.36144  22163098.6364   22163099.5804
 -17151097.85444 -13364485.14544  21327285.5454   21327287.1814
   -212407.276 4   -165511.555 4  24533930.645    24533928.647
 -23619912.39244 -18405107.83944  20801759.9994   20801761.6144
 -23442482.77444 -18266854.81244  20602154.8334   20602156.4944
  -9189280.51044  -7160471.67444  23229192.2894   23229194.8374
 95  5 31  2 17 30.0000000  0  7G22G26G 6G28G23G17G21
  -4755254.46544  -3705397.82544  23633407.8424   23633409.6394
  -9879397.65844  -7698222.21244  22167516.1624   22167516.2874
 -17076150.47544 -13306084.61644  21341547.4214   21341549.1894
   -318504.324 4   -248184.654 4  24513742.499    24513739.713
 -23647834.60444 -18426865.40144  20796446.7524   20796448.3474
 -23447294.09544 -18270603.89544  20601239.1754   20601240.6774
  -9269564.18144  -7223030.33644  23213914.8704   23213917.1524
 95  5 31  2 18  0.0000000  0  7G22G26G 6G28G23G17G21
  -4743474.77844  -3696218.88144  23635648.2554   23635651.3714
  -9855636.88844  -7679707.31944  22172037.4804   22172038.4564
 -17000830.93344 -13247394.09644  21355880.3194   21355882.0894
   -424554.703 4   -330821.303 4  24493561.343    24493558.519
 -23675395.57944 -18448341.47844  20791201.9274   20791203.5334
 -23451958.85244 -18274238.77544  20600351.5254   20600353.0304
  -9349635.04444  -7285423.16244  23198678.3764   23198680.6064
 95  5 31  2 18 30.0000000  0  7G22G26G 6G28G23G17G21
  -4731243.84744  -3686688.30444  23637975.7304   23637978.9484
  -9831319.79944  -7660758.94344  22176664.9904   22176665.7154
 -16925119.84544 -13188398.48744  21370287.5874   21370289.5444
   -530532.754 4   -413401.508 4  24473392.674    24473390.968
 -23702555.54244 -18469505.07144  20786033.5834   20786035.0824
 -23456439.28344 -18277730.02644  20599499.0034   20599500.8174
  -9429459.06544  -7347623.62944  23183487.5454   23183490.6404
 95  5 31  2 19  0.0000000  0  7G22G26G 6G28G23G17G21
  -4718502.11444  -3676759.71644  23640400.7704   23640402.3534
  -9806428.31044  -7641362.97644  22181401.6954   22181402.2304
 -16848960.80244 -13129053.79744  21384780.2794   21384781.7974
   -636397.154 4   -495893.359 4  24453246.207    24453245.852
 -23729277.62144 -18490327.44944  20780948.3984   20780949.7934
 -23460688.85244 -18281041.39244  20598690.3294   20598692.0574
  -9509014.91944  -7409615.14344  23168348.2074   23168351.7354
 95  5 31  2 19 30.0000000  0  7G22G26G 6G28G23G17G21
  -4705271.87744  -3666450.45344  23642917.6764   23642920.8174
  -9781007.90144  -7621554.86044  22186239.3264   22186239.4964
 -16772373.88444 -13069375.70644  21399354.5654   21399356.0554
   -742177.744 4   -578319.770 4  24433117.754    24433114.849
 -23755602.86944 -18510840.60944  20775938.7154   20775940.4064
 -23464727.61444 -18284188.49844  20597921.5164   20597923.3034
  -9588351.76444  -7471436.01344  23153250.2254   23153253.6634
 95  5 31  2 20  0.0000000  0  7G22G26G 6G28G23G17G21
  -4691529.62844  -3655742.21344  23645533.5094   23645536.6444
  -9755038.95444  -7601319.31744  22191180.9674   22191181.3424
 -16695345.52644 -13009353.65544  21414012.3554   21414013.9284
   -847857.140 4   -660667.256 4  24413006.945    24413004.021
 -23781516.18344 -18531032.77644  20771007.5274   20771009.1994
 -23468533.28544 -18287153.96944  20597197.4714   20597199.0564
  -9667469.07644  -7533085.81244  23138195.2024   23138198.4134
 95  5 31  2 20 30.0000000  0  7G22G26G 6G28G23G17G21
  -4677274.77644  -3644634.57744  23648246.7534   23648248.4344
  -9728519.23844  -7580654.61344  22196227.3924   22196227.8864
 -16617879.02144 -12948990.18244  21428753.7224   21428755.3584
   -953437.335 4   -742937.559 4  24392914.757    24392914.199
 -23807029.48144 -18550913.23944  20766152.7744   20766154.3604
 -23472115.34944 -18289945.20044  20596516.1114   20596517.7444
  -9746381.77144  -7594576.18444  23123178.4324   23123181.7504
 95  5 31  2 21  0.0000000  0  7G22G26G 6G28G23G17G21
  -4662520.01844  -3633137.38744  23651054.3324   23651055.8654
  -9701434.05644  -7559549.27844  22201381.3604   22201381.7504
 -16539971.51444 -12888283.06944  21443579.2564   21443580.8294
  -1058907.612 4   -825122.162 4  24372844.314    24372843.537
 -23832143.51444 -18570482.60344  20761373.6984   20761375.2064
 -23475472.56844 -18292561.22044  20595876.9784   20595878.6924
  -9825084.38944  -7655902.84044  23108202.1674   23108204.7144
 95  5 31  2 21 30.0000000  0  7G22G26G 6G28G23G17G21
  -4647286.56144  -3621267.18544  23653952.9224   23653955.5394
  -9673787.07544  -7538006.17244  22206642.9914   22206643.2904
 -16461647.37344 -12827251.33144  21458483.8444   21458485.4924
  -1164269.420 4   -907222.189 4  24352795.340    24352794.182
 -23856866.44044 -18589747.20644  20756668.9904   20756670.6744
 -23478607.29344 -18295003.85844  20595280.3184   20595282.0404
  -9903561.16644  -7717053.51544  23093268.4974   23093270.8274
 95  5 31  2 22  0.0000000  0  7G22G26G 6G28G23G17G21
  -4631602.35744  -3609045.74944  23656937.2484   23656940.6954
  -9645606.58344  -7516047.34544  22212004.4424   22212005.4014
 -16382927.18044 -12765910.98844  21473463.8324   21473465.1004
  -1269540.665 4   -989251.695 4  24332762.139    24332763.030
 -23881223.57444 -18608726.76944  20752034.0154   20752035.6214
 -23481536.41444 -18297286.27844  20594722.9384   20594724.6664
  -9981824.09744  -7778037.56844  23078375.8514   23078377.6734
 95  5 31  2 22 30.0000000  0  7G22G26G 6G28G23G17G21
  -4615463.64044  -3596470.18844  23660008.3554   23660012.6824
  -9616873.17744  -7493657.68544  22217472.8954   22217473.4954
 -16303796.76144 -12704250.97044  21488521.8084   21488523.3624
  -1374694.671 4  -1071189.902 4  24312752.590    24312752.711
 -23905193.48544 -18627404.59044  20747472.6044   20747474.2204
 -23484218.09444 -18299375.89444  20594212.9484   20594214.6764
 -10059846.62544  -7838834.29544  23063528.5974   23063529.6074
 95  5 31  2 23  0.0000000  0  7G22G26G 6G28G23G17G21
  -4598880.21144  -3583548.04344  23663163.8624   23663167.3014
  -9587581.37544  -7470832.90844  22223046.7854   22223047.4344
 -16224265.97544 -12642278.96244  21503656.2724   21503657.9334
  -1479727.525 4  -1153033.574 4  24292765.581    24292764.993
 -23928778.92044 -18645782.83344  20742984.6464   20742985.9464
 -23486645.63244 -18301267.48244  20593750.6534   20593752.5284
 -10137617.07744  -7899434.60244  23048729.2464   23048731.1344
 95  5 31  2 23 30.0000000  0  7G22G26G 6G23G17G28G21
  -4581856.91144  -3570283.20144  23666403.5764   23666406.8854
  -9557737.79144  -7447578.16844  22228725.9274   22228726.3034
 -16144346.84644 -12580004.35544  21518864.6044   21518866.2564
 -23951990.75044 -18663869.96744  20738567.2154   20738568.8894
 -23488826.00944 -18302966.47844  20593335.8044   20593337.8734
  -1584647.530 4  -1234789.436 4  24272800.718    24272798.848
 -10215159.58244  -7959857.27844  23033973.3794   23033976.2674
 95  5 31  2 24  0.0000000  0  7G22G26G 6G23G17G28G21
  -4564386.95044  -3556670.28844  23669727.5314   23669730.8074
  -9527303.79244  -7423863.35844  22234517.3834   22234517.7004
 -16064007.42544 -12517402.24044  21534152.7204   21534153.9154
 -23974805.62444 -18681647.77744  20734225.8104   20734227.6014
 -23490744.84244 -18304461.67844  20592970.8274   20592972.5364
  -1689433.193 4  -1316440.610 4  24252860.553    24252859.005
 -10292475.13344  -8020103.11344  23019260.8944   23019264.0754
 95  5 31  2 24 30.0000000  0  7G22G26G 6G23G17G28G21
  -4546485.51744  -3542721.14244  23673133.3584   23673136.3734
  -9496284.51544  -7399692.50044  22240420.2794   22240420.6974
 -15983272.94944 -12454492.28944  21549515.4104   21549517.0854
 -23997238.61144 -18699128.01544  20729956.9754   20729958.7534
 -23492441.50544 -18305783.76444  20592647.8734   20592649.7504
  -1794094.308 4  -1397994.708 4  24232944.941    24232941.914
 -10369574.47844  -8080180.48144  23004589.2544   23004591.4574
 95  5 31  2 25  0.0000000  0  7G22G26G 6G23G17G28G21
  -4528136.80644  -3528423.50544  23676625.4674   23676627.8254
  -9464682.06544  -7375067.22144  22246433.7894   22246434.5134
 -15902146.06644 -12391276.56244  21564953.5624   21564955.2684
 -24019291.57344 -18716312.12644  20725760.4424   20725762.1304
 -23493941.48844 -18306952.59244  20592362.5054   20592364.3774
  -1898626.628 4  -1479448.396 4  24213053.436    24213049.461
 -10446448.84644  -8140082.54844  22989960.3084   22989962.7284
 95  5 31  2 25 30.0000000  0  7G22G26G 6G23G17G28G21
  -4509316.34744  -3513758.23944  23680206.8424   23680210.6694
  -9432484.32344  -7349978.07144  22252561.0114   22252561.4784
 -15820600.68244 -12327734.73944  21580470.9294   21580472.8254
 -24040936.06644 -18733177.94744  20721641.7174   20721643.1884
 -23495241.27644 -18307965.41644  20592115.2684   20592116.9254
  -2003009.966 4  -1560786.000 4  24193188.629    24193185.460
 -10523079.19144  -8199794.47744  22975377.7824   22975380.1784
 95  5 31  2 26  0.0000000  0  7G22G26G 6G23G17G28G21
  -4490042.39244  -3498739.59344  23683874.5534   23683878.3884
  -9399717.18144  -7324445.24244  22258796.0614   22258797.0564
 -15738660.25544 -12263885.08344  21596063.8294   21596065.8444
 -24062192.29744 -18749741.23244  20717596.5474   20717598.0744
 -23496368.20944 -18308843.54944  20591900.7094   20591902.3704
  -2107270.071 4  -1642027.615 4  24173348.151    24173345.775
 -10599464.63644  -8259315.56444  22960841.5854   22960845.5564
 95  5 31  2 26 30.0000000  0  7G22G26G 6G23G17G28G21
  -4470287.26144  -3483346.02944  23687634.3284   23687637.8484
  -9366386.84144  -7298473.54044  22265138.6974   22265139.8054
 -15656325.50744 -12199728.18044  21611731.5124   21611733.2804
 -24083047.49144 -18765992.02844  20713628.1284   20713629.6714
 -23497299.69644 -18309569.38244  20591723.6874   20591725.4654
  -2211398.655 4  -1723166.734 4  24153533.441    24153531.452
 -10675586.18544  -8318631.01344  22946356.4584   22946358.7764
 95  5 31  2 27  0.0000000  0  7G22G26G 6G23G17G28G21
  -4450027.78444  -3467559.47744  23691489.0294   23691493.9284
  -9332479.04544  -7272051.88244  22271591.0784   22271591.6474
 -15573570.96244 -12135244.15844  21627479.2934   21627480.9614
 -24103485.45944 -18781917.70644  20709738.6274   20709740.2134
 -23497996.47644 -18310112.32044  20591590.9264   20591592.6254
  -2315386.824 4  -1804196.452 4  24133745.109    24133744.437
 -10751436.75344  -8377735.32244  22931922.9604   22931925.8774
 95  5 31  2 27 30.0000000  0  7G22G26G 6G23G17G28G21
  -4429326.90244  -3451428.93044  23695429.1834   23695432.3904
  -9298041.18544  -7245217.18544  22278144.4884   22278145.4354
 -15490435.80444 -12070463.54444  21643299.0864   21643300.8254
 -24123560.37744 -18797560.48844  20705918.4984   20705920.2464
 -23498491.71044 -18310498.20944  20591496.8224   20591498.3524
  -2419285.448 4  -1885156.403 4  24113973.704    24113973.018
 -10827069.80644  -8436670.13344  22917530.2684   22917533.4674
 95  5 31  2 28  0.0000000  0  7G22G26G 6G23G17G28G21
  -4408167.57644  -3434941.19444  23699455.5554   23699459.2004
  -9263055.54144  -7217955.65344  22284802.3074   22284802.7564
 -15406898.03544 -12005369.20344  21659196.1384   21659197.9004
 -24143250.49144 -18812903.41744  20702171.6144   20702173.4534
 -23498736.38544 -18310688.86344  20591450.0694   20591451.7534
  -2523061.703 4  -1966020.998 4  24094225.303    24094225.282
 -10902461.50044  -8495416.86544  22903183.7104   22903186.7924
 95  5 31  2 28 30.0000000  0  7G22G26G23G 6G17G28G21
  -4386563.79044  -3418107.09544  23703566.4294   23703569.9744
  -9227549.71644  -7190288.77644  22291558.5574   22291559.4254
 -24162574.91544 -18827961.39244  20698494.3424   20698495.8224
 -15322977.70044 -11939976.77044  21675165.7504   21675167.7224
 -23498739.25644 -18310691.09944  20591449.3144   20591451.0514
  -2626716.364 4  -2046790.841 4  24074500.611    24074499.697
 -10977635.55644  -8553993.99744  22888878.6144   22888881.6164
 95  5 31  2 29  0.0000000  0  7G22G26G 6G23G17G28G21
  -4364525.85844  -3400934.71344  23707760.0664   23707764.1274
  -9191521.54444  -7162214.87944  22298414.4044   22298415.8684
 -15238672.92244 -11874284.77144  21691208.4584   21691209.9724
 -24181534.86044 -18842735.36344  20694886.4014   20694887.9784
 -23498507.59344 -18310510.57444  20591493.4524   20591495.1254
  -2730233.706 4  -2127453.675 4  24054801.424    24054800.473
 -11052580.35844  -8612392.50444  22874617.2094   22874619.2384
 95  5 31  2 29 30.0000000  0  7G22G26G23G 6G17G28G21
  -4342067.14944  -3383434.46744  23712034.9534   23712038.1354
  -9154974.77644  -7133736.87144  22305369.4824   22305370.0074
 -24200119.93444 -18857217.23544  20691349.8174   20691351.5844
 -15153986.09144 -11808295.05844  21707323.9634   21707325.7384
 -23498051.70544 -18310155.31844  20591580.3184   20591582.1084
  -2833597.740 4  -2207997.086 4  24035132.146    24035130.247
 -11127292.07644  -8670609.40444  22860399.9364   22860401.8564
 95  5 31  2 30  0.0000000  0  7G22G26G23G 6G17G28G21
  -4319183.25744  -3365602.90244  23716389.6944   23716390.7394
  -9117931.36144  -7104871.86944  22312418.4094   22312419.5594
 -24218329.88844 -18871406.80544  20687884.5954   20687886.1964
 -15068936.40444 -11742022.60844  21723508.2994   21723509.9694
 -23497392.06344 -18309641.29644  20591705.7184   20591707.3774
  -2936809.863 4  -2288422.074 4  24015491.900    24015488.968
 -11201779.36544  -8728651.40044  22846225.7254   22846227.1714
 95  5 31  2 30 30.0000000  0  7G22G26G23G 6G17G28G21
  -4295879.72244  -3347444.34044  23720824.3614   23720827.6024
  -9080401.49544  -7075627.82744  22319560.1604   22319560.5264
 -24236190.16544 -18885323.89544  20684485.9924   20684487.4654
 -14983547.86544 -11675486.10444  21739757.5504   21739758.8384
 -23496565.34244 -18308997.10044  20591862.9574   20591864.8514
  -3039892.222 4  -2368745.993 4  23995876.581    23995874.217
 -11276058.28444  -8786531.01244  22832090.9884   22832093.3004
 95  5 31  2 31  0.0000000  0  7G22G26G23G 6G17G28G21
  -4272124.82844  -3328934.04944  23725344.0654   23725346.0904
  -9042330.29944  -7045961.95044  22326804.7964   22326805.1064
 -24253663.56544 -18898939.51944  20681160.7734   20681162.3914
 -14897773.08844 -11608648.65544  21756079.4814   21756081.3514
 -23495537.39144 -18308196.10544  20592058.7714   20592060.4654
  -3142810.614 4  -2448942.100 4  23976292.193    23976289.547
 -11350085.66344  -8844214.64844  22818003.8314   22818006.2094
 95  5 31  2 31 30.0000000  0  7G22G26G23G 6G17G28G21
  -4247923.86044  -3310076.18044  23729950.0444   23729951.9374
  -9003727.61844  -7015881.93544  22334150.3184   22334151.2874
 -24270759.16744 -18912260.75944  20677907.6104   20677909.3444
 -14811631.83344 -11541525.61244  21772471.7724   21772473.4664
 -23494310.46344 -18307240.06344  20592292.0014   20592293.7344
  -3245585.574 4  -2529026.472 4  23956734.051    23956732.659
 -11423879.98244  -8901716.67244  22803961.1164   22803963.7384
 95  5 31  2 32  0.0000000  0  7G22G26G23G 6G17G28G21
  -4223260.09144  -3290857.68444  23734643.0804   23734644.6304
  -8964578.50244  -6985376.14544  22341600.4314   22341601.0024
 -24287484.13944 -18925293.19144  20674725.0264   20674726.5164
 -14725131.31444 -11474122.62044  21788932.3584   21788933.8604
 -23492865.56644 -18306114.16444  20592567.2834   20592568.9444
  -3348215.157 4  -2608997.559 4  23937204.830    23937203.316
 -11497433.52444  -8959031.08744  22789964.4534   22789966.9634
 95  5 31  2 32 30.0000000  0  7G22G26G23G 6G17G28G21
  -4198076.68744  -3271234.28744  23739434.6054   23739436.8434
  -8924789.05944  -6954371.37944  22349172.4964   22349172.8704
 -24303778.16044 -18937989.82244  20671624.3494   20671625.7614
 -14638195.71544 -11406380.60844  21805475.7164   21805477.2934
 -23491118.81944 -18304753.04844  20592899.6884   20592901.2514
  -3450631.234 4  -2688802.253 4  23917715.521    23917714.132
 -11570679.93644  -9016106.18744  22776026.5194   22776028.8544
 95  5 31  2 33  0.0000000  0  7G22G26G23G 6G17G28G21
  -4172443.10744  -3251260.11644  23744312.3114   23744316.7174
  -8884403.30244  -6922901.95844  22356856.8444   22356858.1624
 -24319683.51844 -18950383.59744  20668597.4234   20668599.0754
 -14550873.62244 -11338337.45444  21822092.6424   21822094.4324
 -23489110.12644 -18303187.81644  20593281.9164   20593283.6064
  -3552878.432 4  -2768475.369 4  23898258.268    23898257.231
 -11643671.33844  -9072982.56344  22762135.8734   22762138.4694
 95  5 31  2 33 30.0000000  0  7G22G26G23G 6G17G28G21
  -4146393.33644  -3230961.64344  23749270.0424   23749273.7384
  -8843450.51044  -6890990.70244  22364650.5354   22364651.1024
 -24335230.58044 -18962498.18844  20665639.0714   20665640.5674
 -14463197.16244 -11270018.15944  21838776.6824   21838778.5894
 -23486862.53844 -18301436.44044  20593709.5064   20593711.1054
  -3654978.335 4  -2848033.683 4  23878829.297    23878827.371
 -11716436.95144  -9129683.00444  22748288.7144   22748291.5834
 95  5 31  2 34  0.0000000  0  7G22G26G23G 6G17G28G21
  -4119967.14444  -3210369.82644  23754298.2524   23754301.4574
  -8801966.48244  -6858665.48944  22372544.6634   22372545.1114
 -24350461.23144 -18974366.22044  20662740.6384   20662741.9284
 -14375181.10844 -11201434.23744  21855525.3194   21855527.4194
 -23484410.86144 -18299526.04244  20594176.3714   20594178.0204
  -3756948.941 4  -2927491.271 4  23859424.531    23859422.089
 -11788999.84744  -9186225.48844  22734480.7674   22734483.7764
 95  5 31  2 34 30.0000000  0  7G22G26G23G 6G17G28G21
  -4093157.66444  -3189479.34944  23759400.5804   23759404.4384
  -8759958.53444  -6825932.01844  22380538.0804   22380538.7274
 -24365354.70944 -18985971.52644  20659906.7524   20659908.1734
 -14286801.56544 -11132567.08344  21872343.7794   21872345.9494
 -23481744.37644 -18297448.26544  20594683.6974   20594685.2074
  -3858766.309 4  -3006829.434 4  23840049.757    23840046.795
 -11861339.14844  -9242593.73544  22720715.1994   22720718.2624
 95  5 31  2 35  0.0000000  0  7G22G26G23G 6G17G28G21
  -4065912.47244  -3168249.37644  23764585.3194   23764588.6894
  -8717400.55844  -6792769.97244  22388636.7764   22388637.6434
 -24379853.78644 -18997269.50844  20657147.6184   20657149.0404
 -14198019.85644 -11063386.57144  21889238.1974   21889239.9644
 -23478826.08444 -18295174.27644  20595238.9354   20595240.6694
  -3960372.694 4  -3086003.203 4  23820714.437    23820711.925
 -11933404.87244  -9298748.79744  22707001.5964   22707004.3844
 95  5 31  2 35 30.0000000  0  7G22G26G23G 6G17G28G21
  -4038263.22244  -3146704.53844  23769846.6304   23769849.6724
  -8674354.62344  -6759227.68544  22396827.9004   22396828.1314
 -24393989.02644 -19008283.97844  20654457.6274   20654459.0564
 -14108884.93644 -10993930.83544  21906200.4144   21906202.6894
 -23475692.71144 -18292732.69644  20595834.9644   20595836.7244
  -4061801.570 4  -3165038.629 4  23801413.111    23801410.314
 -12005242.53344  -9354726.16244  22693331.3914   22693334.1784
 95  5 31  2 36  0.0000000  0  7G22G26G23G 6G17G28G21
  -4010210.49144  -3124845.29544  23775184.8534   23775187.8984
  -8630849.30444  -6725327.44244  22405106.5904   22405107.3124
 -24407764.29444 -19019017.95544  20651836.2504   20651837.8354
 -14019425.34044 -10924222.09944  21923223.7664   21923225.3504
 -23472348.57144 -18290126.89444  20596471.4264   20596473.2824
  -4163065.655 4  -3243945.662 4  23782143.272    23782141.260
 -12076870.93844  -9410540.46744  22679700.3434   22679703.7094
 95  5 31  2 36 30.0000000  0  8G22G26G23G 6G17G28G 1G21
  -3981750.90044  -3102669.04744  23780600.2454   23780603.4164
  -8586876.10244  -6691062.61444  22413474.7114   22413475.7084
 -24421164.05544 -19029459.32744  20649286.4704   20649287.7004
 -13929660.68044 -10854275.65344  21940305.5324   21940308.0014
 -23468793.01344 -18287356.34844  20597148.1004   20597149.9804
  -4264168.402 4  -3322727.018 4  23762903.594    23762902.154
         0.05454                  25180095.5274
 -12148295.49644  -9466195.92244  22666108.3774   22666111.2844
 95  5 31  2 37  0.0000000  0  8G22G26G23G 6G17G28G 1G21
  -3952872.32044  -3080166.29644  23786096.0794   23786097.1024
  -8542403.45144  -6656408.59644  22421937.6034   22421938.2174
 -24434172.69644 -19039595.92744  20646811.0154   20646812.4914
 -13839574.56244 -10784078.71344  21957448.2674   21957450.1284
 -23465010.62144 -18284409.05144  20597867.7924   20597869.6644
  -4365095.879 4  -3401371.765 4  23743697.740    23743696.414
   -109591.16344                  25159243.1544
 -12219496.72344  -9521677.34444  22652559.7694   22652562.2184
 95  5 31  2 37 30.0000000  0  8G22G26G23G 6G17G28G 1G21
  -3923505.25644  -3057282.90444  23791684.7174   23791686.5974
  -8497350.64544  -6621302.52044  22430511.2474   22430511.5534
 -24446722.37844 -19049374.89544  20644422.9184   20644424.2434
 -13749088.72344 -10713570.29344  21974667.3304   21974669.2614
 -23460909.92544 -18281213.71744  20598648.1104   20598650.0964
  -4465770.832 4  -3479819.746 4  23724540.040    23724539.077
   -219214.69944   -170815.57444  25138383.1344
 -12290390.78744  -9576919.40744  22639069.1594   22639070.8864
 95  5 31  2 38  0.0000000  0  8G22G26G23G 6G17G28G 1G21
  -3893810.11444  -3034143.85244  23797334.3914   23797337.5214
  -8451853.64644  -6585850.32744  22439168.5054   22439168.8944
 -24458990.51244 -19058934.47344  20642088.1334   20642089.7454
 -13658345.78644 -10642861.56344  21991935.1364   21991937.6544
 -23456654.67044 -18277897.94244  20599457.8954   20599459.4294
  -4566348.922 4  -3558192.239 4  23705400.622    23705399.539
   -329022.72144   -256380.23344  25117485.2974   25117489.8734
 -12361123.94244  -9632036.12344  22625608.9984   22625611.7134
 95  5 31  2 38 30.0000000  0  8G22G26G23G 6G17G28G 1G21
  -3863627.75944  -3010625.17044  23803078.7484   23803082.6094
  -8405722.40644  -6549903.90744  22447946.7564   22447947.9014
 -24470812.15844 -19068146.14144  20639838.5804   20639840.1714
 -13567155.48144 -10571804.22244  22009287.9234   22009289.9794
 -23452087.22144 -18274338.89344  20600327.0744   20600328.6394
  -4666653.493 4  -3636351.629 4  23686313.557    23686312.600
   -438829.35344                  25096589.2724
 -12431510.25144  -9686882.56944  22612215.1774   22612217.8334
 95  5 31  2 39  0.0000000  0  8G22G26G23G 6G17G28G 1G21
  -3832998.96644  -2986758.57444  23808907.6724   23808910.0674
  -8359008.69444  -6513503.61644  22456836.3304   22456836.6444
 -24482235.67844 -19077047.58244  20637664.9414   20637666.2954
 -13475554.66444 -10500426.99044  22026719.6724   22026721.6394
 -23447247.63144 -18270567.78444  20601248.1684   20601249.9104
  -4766722.609 4  -3714327.524 4  23667271.215    23667269.941
   -548669.62044                  25075688.6814
 -12501586.34044  -9741487.28044  22598879.8724   22598882.8074
 95  5 31  2 39 30.0000000  0  8G22G26G23G 6G17G28G 1G21
  -3801995.17944  -2962599.81644  23814806.9064   23814809.1424
  -8311788.91844  -6476708.99344  22465822.0044   22465822.5724
 -24493340.34844 -19085700.57144  20635551.6994   20635553.3504
 -13383627.23444 -10428795.27844  22044212.6584   22044215.2234
 -23442203.05444 -18266636.95044  20602208.0864   20602209.6524
  -4866630.258 4  -3792177.592 4  23648259.864    23648257.720
   -658598.40244   -513192.21444  25054768.7884
 -12571427.45944  -9795908.89444  22585589.2804   22585592.1484
 95  5 31  2 40  0.0000000  0  8G22G26G23G 6G17G28G 1G21
  -3770652.69644  -2938177.13244  23820771.9574   23820774.9914
  -8264096.17144  -6439545.83044  22474897.8564   22474897.7094
 -24504162.32144 -19094133.27544  20633492.3064   20633493.8394
 -13291414.30744 -10356941.05644  22061759.9564   22061762.0934
 -23437001.98344 -18262584.15744  20603197.8074   20603199.2214
  -4966411.404 4  -3869929.072 4  23629271.462    23629269.484
   -768643.67244   -598941.67844  25033828.1994
 -12641068.05244  -9850174.26344  22572336.7724   22572339.1204
 95  5 31  2 40 30.0000000  0  8G22G26G23G 6G17G28G 1G21
  -3738854.12944  -2913399.07144  23826822.0674   23826826.1474
  -8215837.31444  -6401941.52744  22484081.7804   22484081.5674
 -24514577.03944 -19102248.63844  20631510.5004   20631512.0234
 -13198813.87444 -10284784.90344  22079381.1604   22079383.4454
 -23431527.39444 -18258318.22544  20604239.7124   20604241.1594
  -5065947.227 4  -3947489.421 4  23610329.250    23610328.312
   -878702.53944   -684701.77744  25012884.8844
 -12710396.16444  -9904196.13444  22559143.9864   22559146.2284
 95  5 31  2 41  0.0000000  0  8G22G26G23G 6G17G28G 1G21
  -3706572.09644  -2888244.25744  23832965.2054   23832968.5934
  -8167003.39444  -6363889.12644  22493374.0154   22493375.1024
 -24524562.99944 -19110029.90944  20629610.2584   20629611.8544
 -13105812.11444 -10212316.03944  22097079.2474   22097081.3014
 -23425750.21844 -18253816.51244  20605339.0244   20605340.1344
  -5165210.565 4  -4024837.487 4  23591440.676    23591438.730
   -988762.70644                  24991940.9254
 -12779401.91644  -9957966.82344  22546013.2794   22546015.6294
 95  5 31  2 41 30.0000000  0  8G22G26G23G 6G17G28G 1G21
  -3673883.01144  -2862772.27644  23839186.3414   23839190.3174
  -8117662.22944  -6325441.46844  22502762.7144   22502763.7764
 -24534199.83844 -19117539.13544  20627776.3314   20627778.0834
 -13012485.57944 -10139594.08244  22114838.0454   22114839.8454
 -23419752.99444 -18249143.34544  20606480.2374   20606481.5544
  -5264269.399 4  -4102026.181 4  23572590.312    23572588.315
  -1098894.90744   -856280.03944  24970983.9354
 -12848165.59944 -10011548.88044  22532927.9414   22532930.2294
 95  5 31  2 42  0.0000000  0  8G22G26G23G 6G17G28G 1G21
  -3640790.35044  -2836985.82944  23845483.8254   23845488.0134
  -8067825.62644  -6286607.74644  22512246.3534   22512247.9514
 -24543486.49344 -19124775.48144  20626009.2594   20626010.6344
 -12918839.01744 -10066622.76944  22132658.7374   22132660.5944
 -23413553.75544 -18244312.77344  20607659.7814   20607661.4344
  -5363120.691 4  -4179053.120 4  23553779.621    23553777.742
  -1209115.74944                  24950009.1744
 -12916705.88944 -10064956.87544  22519885.4454   22519887.3284
 95  5 31  2 42 30.0000000  0  8G22G26G23G 6G17G28G 1G21
  -3607245.66344  -2810847.11644  23851866.3394   23851869.0254
  -8017460.08744  -6247361.87144  22521830.6604   22521831.6484
 -24552377.74044 -19131703.71444  20624317.3994   20624318.9414
 -12824835.09744  -9993372.99244  22150547.1304   22150549.0684
 -23407105.89844 -18239288.48244  20608886.7584   20608888.5734
  -5461723.601 4  -4255886.534 4  23535015.478    23535015.000
  -1319364.20944  -1028074.09644  24929028.3154
 -12984986.37144 -10118162.40444  22506891.8724   22506893.8974
 95  5 31  2 43  0.0000000  0  8G22G26G23G 6G17G28G 1G21
  -3573341.01744  -2784427.98344  23858318.2894   23858321.6324
  -7966639.35544  -6207761.30844  22531502.2304   22531502.6224
 -24560955.76544 -19138387.87644  20622684.9694   20622686.2964
 -12730564.01744  -9919915.01944  22168485.9174   22168487.6914
 -23400480.76344 -18234126.05444  20610147.4164   20610149.0854
  -5560160.431 4  -4332590.547 4  23516282.976    23516283.474
  -1429695.97944  -1114046.80944  24908033.6424
 -13053086.20144 -10171227.13544  22493932.3784   22493934.9894
 95  5 31  2 43 30.0000000  0  8G22G26G23G 6G17G28G 1G21
  -3539067.63144  -2757721.47644  23864840.7864   23864844.2724
  -7915340.56744  -6167788.22344  22541264.1524   22541264.6794
 -24569203.15944 -19144814.40644  20621115.4284   20621117.0554
 -12636009.29644  -9846236.04444  22186479.8944   22186481.7964
 -23393648.59444 -18228802.29844  20611447.7274   20611449.4034
  -5658412.021 4  -4409150.195 4  23497587.556    23497586.562
  -1540089.98544  -1200067.99544  24887027.1834   24887029.7584
 -13120976.43144 -10224128.56844  22481012.7454   22481015.9034
 95  5 31  2 44  0.0000000  0  8G22G26G23G 6G17G28G 1G21
  -3504419.22244  -2730722.74844  23871434.1454   23871436.1734
  -7863569.62644  -6127447.24844  22551115.2694   22551116.4084
 -24577117.35644 -19150981.30844  20619609.5244   20619610.7884
 -12541156.75844  -9772324.99344  22204529.7854   22204531.3334
 -23386580.36644 -18223294.59644  20612792.5084   20612794.1804
  -5756468.325 4  -4485557.665 4  23478928.518    23478927.208
  -1650540.99544  -1286133.58544  24866008.4364
 -13188642.02844 -10276854.97944  22468136.8464   22468139.3384
 95  5 31  2 44 30.0000000  0  8G22G26G23G 6G17G28G 1G21
  -3469372.91544  -2703413.96844  23878102.9974   23878106.2114
  -7811291.31844  -6086710.91644  22561063.7454   22561064.1294
 -24584675.29144 -19156870.60444  20618171.1274   20618172.4374
 -12445975.06044  -9698157.45744  22222642.0474   22222643.8844
 -23379217.87144 -18217557.59444  20614193.7674   20614195.3214
  -5854295.060 4  -4561786.260 4  23460312.578    23460311.156
  -1761025.47344  -1372225.33944  24844983.0994   24844986.7764
 -13256036.00744 -10329369.74044  22455312.5034   22455314.4604
 95  5 31  2 45  0.0000000  0  8G22G26G23G 6G17G28G 1G21
  -3433949.07944  -2675811.01144  23884843.7154   23884847.7274
  -7758499.55744  -6045574.47544  22571109.4874   22571110.5134
 -24591880.05444 -19162484.70344  20616800.1474   20616801.6334
 -12350460.57044  -9623730.60744  22240817.4644   22240819.4264
 -23371549.93044 -18211582.58344  20615652.8184   20615654.4114
  -5951881.199 4  -4637827.365 4  23441742.548    23441740.056
  -1871576.84944  -1458369.11444  24823945.7394   24823948.7994
 -13323147.78844 -10381664.59844  22442541.3334   22442543.6734
 95  5 31  2 45 30.0000000  0  8G22G26G23G 6G17G28G 1G21
  -3398160.95244  -2647924.21144  23891654.1694   23891656.3944
  -7705217.05344  -6004055.64844  22581248.9584   22581250.3104
 -24598750.91744 -19167838.61944  20615492.6754   20615494.2694
 -12254627.64644  -9549055.60944  22259054.3824   22259056.5214
 -23363597.44644 -18205385.85244  20617166.3524   20617167.7454
  -6049240.547 4  -4713691.738 4  23423215.020    23423214.160
  -1982220.08044  -1544584.48844  24802891.5594   24802899.1394
 -13389997.94544 -10433755.56644  22429820.6284   22429823.1144
 95  5 31  2 46  0.0000000  0  8G22G26G23G 6G17G28G 1G21
  -3362004.31744  -2619750.26144  23898534.3044   23898539.0544
  -7651448.72844  -5962158.25744  22591480.7654   22591481.1094
 -24605275.28944 -19172922.54144  20614251.1764   20614252.6334
 -12158475.82344  -9474132.11144  22277351.0334   22277352.7194
 -23355369.27444 -18198974.29544  20618732.0144   20618733.4934
  -6146368.220 4  -4789375.640 4  23404732.657    23404731.625
  -2092939.06944  -1630858.91344  24781822.5394   24781823.1364
 -13456593.92744 -10485648.48944  22417146.9894   22417149.3474
 95  5 31  2 46 30.0000000  0  8G22G26G23G 6G17G28G 1G21
  -3325474.70244  -2591285.66244  23905486.3214   23905488.4284
  -7597167.11044  -5919860.88644  22601810.0224   22601810.9034
 -24611411.46444 -19177703.97244  20613083.4104   20613085.0404
 -12061990.50544  -9398948.76844  22295711.8824   22295713.9164
 -23346860.23044 -18192343.86144  20620351.4754   20620352.7834
  -6243243.245 4  -4864862.630 4  23386298.005    23386296.784
  -2203701.42744  -1717167.10744  24760744.5014   24760744.9444
 -13522915.51144 -10537327.62544  22404526.6224   22404529.2334
 95  5 31  2 47  0.0000000  0  8G22G26G23G 6G17G28G 1G21
  -3288602.53144  -2562554.14744  23912502.2734   23912505.3364
  -7542403.28644  -5877187.77044  22612231.4594   22612232.7284
 -24617183.80644 -19182201.89944  20611984.9154   20611986.3324
 -11965194.55344  -9323523.35844  22314131.3224   22314133.0854
 -23338131.91944 -18185542.56144  20622012.0034   20622013.4804
  -6339893.215 4  -4940174.262 4  23367905.524    23367904.376
  -2314506.54244  -1803508.67244  24739658.6004   24739662.9224
 -13588997.38844 -10588819.99844  22391952.0014   22391953.8984
 95  5 31  2 47 30.0000000  0  8G22G26G23G 6G17G28G 1G21
  -3251320.74744  -2533503.45244  23919597.3324   23919600.1294
  -7487105.54044  -5834098.63044  22622753.9244   22622754.4744
 -24622535.24944 -19186371.85144  20610966.7124   20610968.0644
 -11868023.63344  -9247805.75944  22332622.2334   22332624.3444
 -23329158.47044 -18178550.25944  20623719.7494   20623721.2854
  -6436264.297 4  -5015268.595 4  23349566.590    23349566.046
  -2425268.38844  -1889816.49444  24718581.0654   24718585.8854
 -13654798.72244 -10640093.74344  22379430.0804   22379432.9094
 95  5 31  2 48  0.0000000  0  8G22G26G23G 6G17G28G 1G21
  -3213641.82244  -2504143.26944  23926767.1424   23926770.6614
  -7431282.40244  -5790600.08044  22633376.8214   22633376.6944
 -24627479.10744 -19190224.21044  20610025.9024   20610027.4784
 -11770497.17444  -9171811.13744  22351181.3934   22351182.3404
 -23319967.27444 -18171388.28844  20625468.7494   20625470.6424
  -6532364.168 4  -5090151.605 4  23331280.236    23331278.463
  -2536002.85044  -1976102.99844  24697509.1244   24697512.7404
 -13720325.88644 -10691153.81844  22366960.5204   22366963.3234
 95  5 31  2 48 30.0000000  0  8G22G26G23G 6G17G28G 1G21
  -3175560.51144  -2474469.57044  23934013.7254   23934017.0294
  -7374933.45744  -5746691.81244  22644099.6094   22644100.3054
 -24632028.40644 -19193769.11744  20609160.4164   20609161.7574
 -11672623.60344  -9095546.02344  22369806.0574   22369807.7434
 -23310555.50144 -18164054.44044  20627259.5224   20627261.4194
  -6628188.765 4  -5164820.100 4  23313045.443    23313043.290
  -2646714.92144  -2062372.07644  24676440.9604   24676446.1664
 -13785570.30444 -10741993.57144  22354545.5044   22354547.7144
 95  5 31  2 49  0.0000000  0  8G22G26G23G 6G17G28G 1G21
  -3137135.37744  -2444527.94844  23941325.8614   23941329.0504
  -7318138.63744  -5702436.11244  22654907.3784   22654907.3274
 -24636273.07044 -19197076.64044  20608352.4024   20608353.6814
 -11574485.16144  -9019074.52144  22388481.1554   22388482.9614
 -23300993.80944 -18156603.77244  20629079.1904   20629080.9914
  -6723807.182 4  -5239327.935 4  23294850.011    23294848.255
  -2757481.34344  -2148683.47744  24655362.3904   24655367.1054
 -13850608.20044 -10792672.41144  22342169.2414   22342171.6134
 95  5 31  2 49 30.0000000  0  8G22G26G23G 6G17G28G 1G21
  -3098340.74344  -2414298.40644  23948707.7544   23948709.9014
  -7260874.55744  -5657814.75644  22665804.8104   22665805.6284
 -24640198.13544 -19200135.13144  20607605.7184   20607607.0924
 -11476084.90944  -8942399.00344  22407205.6784   22407207.8754
 -23291232.21244 -18148997.33344  20630936.6934   20630938.5754
  -6819196.534 4  -5313657.286 4  23276697.670    23276695.707
  -2868301.72944  -2235036.89944  24634274.5294   24634281.2774
 -13915417.90744 -10843173.44844  22329835.9034   22329838.2794
 95  5 31  2 50  0.0000000  0  8G22G26G23G 6G17G28G 1G21
  -3059181.04244  -2383784.38744  23956159.5694   23956163.7824
  -7203143.80344  -5612829.76144  22676790.0844   22676790.2494
 -24643807.67444 -19202947.76544  20606918.7924   20606920.0764
 -11377442.75844  -8865534.99944  22425977.4664   22425979.1264
 -23281231.55644 -18141204.61144  20632840.0284   20632841.7284
  -6914348.845 4  -5387801.942 4  23258590.196    23258589.003
  -2979171.93344  -2321429.18344  24613176.2954   24613179.5534
 -13979991.10544 -10893490.18344  22317548.0504   22317550.8784
 95  5 31  2 50 30.0000000  0  8G22G26G23G 6G17G28G 1G21
  -3019634.53444  -2352968.96544  23963684.6364   23963689.2504
  -7144915.67744  -5567457.18344  22687870.7114   22687870.9004
 -24647079.79544 -19205497.46044  20606296.0324   20606297.3594
 -11278519.28744  -8788451.79944  22444801.6794   22444804.0464
 -23270939.80544 -18133185.06944  20634798.5524   20634799.9274
  -7009228.766 4  -5461734.339 4  23240536.068    23240534.092
  -3090048.88444  -2407826.73244  24592077.9964   24592081.3094
 -14044296.30244 -10943598.10444  22305311.4064   22305313.7664
 95  5 31  2 51  0.0000000  0  8G22G26G23G 6G17G28G 1G21
  -2979719.39844  -2321866.30344  23971281.7584   23971285.3804
  -7086195.77944  -5521701.40644  22699044.8194   22699046.0134
 -24650015.96344 -19207785.38344  20605737.1494   20605738.7434
 -11179315.22744  -8711149.94544  22463679.6414   22463681.6644
 -23260352.03644 -18124934.85444  20636813.1974   20636814.7844
  -7103835.524 4  -5535453.868 4  23222532.368    23222530.974
  -3200923.25144  -2494222.25944  24570978.8764   24570984.7234
 -14108336.32144 -10993499.37444  22293124.4354   22293127.0454
 95  5 31  2 51 30.0000000  0  8G22G26G23G 6G17G28G 1G21
  -2939441.62144  -2290481.05244  23978946.4224   23978949.6424
  -7026988.68544  -5475566.01244  22710311.5944   22710311.6804
 -24652627.14444 -19209820.06644  20605240.2734   20605241.6104
 -11079828.59844  -8633627.92744  22482610.9864   22482612.9054
 -23249469.73544 -18116455.13844  20638883.9764   20638885.5314
  -7198171.312 4  -5608962.262 4  23204580.225    23204579.174
  -3311792.13444  -2580613.50544  24549881.0874   24549887.3284
 -14172116.71444 -11043198.33244  22280987.7294   22280989.7304
 95  5 31  2 52  0.0000000  0  8G22G26G23G 6G17G28G 1G21
  -2898805.39244  -2258816.47844  23986678.6724   23986682.2534
  -6967313.44944  -5429065.82444  22721667.5424   22721667.5354
 -24654912.66744 -19211600.98844  20604805.4874   20604806.8724
 -10980044.83444  -8555874.36944  22501599.4624   22501601.1274
 -23238319.64844 -18107766.75244  20641005.8354   20641007.3204
  -7292235.351 4  -5682258.887 4  23186680.714    23186679.400
  -3422641.95844  -2666989.90344  24528787.1854   24528788.1854
 -14235635.05444 -11092693.11144  22268900.6264   22268903.0094
 95  5 31  2 52 30.0000000  0  8G22G26G23G 6G17G28G 1G21
  -2857829.37144  -2226887.15344  23994475.9244   23994480.6034
  -6907200.69944  -5382224.73744  22733106.3624   22733107.4974
 -24656896.43244 -19213146.77544  20604428.1224   20604429.7564
 -10879984.65344  -8477905.38444  22520640.4034   22520642.3604
 -23226950.55544 -18098907.71244  20643169.2184   20643170.7674
  -7386057.123 4  -5755366.737 4  23168827.727    23168825.833
  -3533512.03444  -2753382.07444  24507688.9294   24507691.0954
 -14298909.69844 -11141998.00044  22256859.6584   22256862.2474
 95  5 31  2 53  0.0000000  0  8G22G26G23G 6G17G28G 1G21
  -2816474.89844  -2194662.92944  24002346.3494   24002349.9744
  -6846634.68044  -5335030.43644  22744631.6624   22744632.2034
 -24658549.30144 -19214434.71944  20604113.3274   20604114.6784
 -10779626.44744  -8399704.20744  22539737.6124   22539739.9554
 -23215346.94244 -18089865.93144  20645377.3014   20645378.7894
  -7479613.937 4  -5828268.129 4  23151024.507    23151022.225
  -3644381.03544  -2839773.42944  24486590.6894   24486593.0074
 -14361914.27144 -11191092.46644  22244870.2924   22244872.6204
 95  5 31  2 53 30.0000000  0  8G22G26G23G 6G17G28G 1G21
  -2774718.05044  -2162125.19644  24010291.7714   24010295.5364
  -6785599.90144  -5287470.87644  22756245.9544   22756247.6904
 -24659854.39744 -19215451.66844  20603864.9194   20603866.3114
 -10678953.99644  -8321258.16744  22558894.9954   22558897.4734
 -23203497.52044 -18080632.61044  20647632.0484   20647633.7164
  -7572886.639 4  -5900948.128 4  23133275.135    23133272.916
  -3755239.64544  -2926156.67044  24465495.2264   24465497.0474
 -14424626.87744 -11239959.41344  22232936.4594   22232938.7904
 95  5 31  2 54  0.0000000  0  8G22G26G23G 6G17G28G 1G21
  -2732593.39244  -2129300.79644  24018307.8754   24018313.2114
  -6724110.42344  -5239556.99044  22767947.5224   22767948.1864
 -24660813.42244 -19216198.95344  20603682.4894   20603684.0704
 -10577990.40844  -8242585.24644  22578107.2464   22578110.3114
 -23191408.77544 -18071212.79644  20649932.6164   20649934.0714
  -7665885.371 4  -5973414.660 4  23115577.772    23115576.325
  -3866107.06444  -3012546.77844  24444398.1314   24444401.3344
 -14487059.25444 -11288607.94544  22221056.2364   22221058.6714
 95  5 31  2 54 30.0000000  0  8G22G26G23G 6G17G28G 1G21
  -2690121.66244  -2096206.00644  24026389.9824   24026393.4474
  -6662165.51144  -5191288.22444  22779735.3744   22779735.4634
 -24661436.59144 -19216684.53144  20603563.9864   20603565.2134
 -10476757.02444  -8163702.10044  22597371.9224   22597374.1134
 -23179067.56244 -18061596.25944  20652281.1664   20652282.8534
  -7758617.058 4  -6045673.107 4  23097932.016    23097930.161
  -3976990.98944  -3098949.71944  24423298.6024   24423300.5774
 -14549231.36044 -11337053.69744  22209225.0934   22209227.5144
 95  5 31  2 55  0.0000000  0  8G22G26G23G 6G17G28G 1G21
  -2647350.79244  -2062878.07244  24034529.0684   24034532.2984
  -6599779.15744  -5142675.49344  22791606.6184   22791606.9764
 -24661748.39444 -19216927.48144  20603504.5564   20603506.2214
 -10375279.65844  -8084628.85544  22616682.2254   22616684.5034
 -23166489.69544 -18051795.31144  20654674.7894   20654676.1544
  -7851097.089 4  -6117735.422 4  23080333.365    23080331.478
  -4087902.46444  -3185374.13644  24402191.4814   24402196.5024
 -14611182.44844 -11385327.22444  22197436.1854   22197438.4214
 95  5 31  2 55 30.0000000  0  8G22G26G23G 6G17G28G 1G21
  -2604266.09844  -2029305.63744  24042727.9314   24042730.7354
  -6536905.89844  -5093683.33344  22803571.1784   22803572.1584
 -24661703.10144 -19216892.18144  20603513.3474   20603514.9584
 -10273517.36844  -8005333.60944  22636047.3694   22636048.7364
 -23153636.28344 -18041779.65844  20657120.4364   20657122.1064
  -7943277.797 4  -6189564.512 4  23062791.350    23062790.608
  -4198797.03944  -3271785.43644  24381090.1364   24381093.2784
 -14672886.90944 -11433408.60044  22185694.2964   22185696.1894
 95  5 31  2 56  0.0000000  0  8G22G26G23G 6G17G28G 1G21
  -2560857.08944  -1995480.44844  24050988.6374   24050990.4074
  -6473521.57644  -5044292.95944  22815632.6724   22815633.8044
 -24661275.92044 -19216559.30544  20603594.4244   20603595.8534
 -10171447.20644  -7925798.42244  22655470.1894   22655472.3784
 -23140493.41244 -18031538.45944  20659621.6764   20659623.1604
  -8035137.384 4  -6261143.414 4  23045310.859    23045310.312
  -4309655.29544  -3358168.39144  24359993.8684   24359997.5614
 -14734333.67144 -11481289.16344  22174001.1994   22174003.1624
 95  5 31  2 56 30.0000000  0  8G22G26G23G 6G17G28G 1G21
  -2517171.44144  -1961439.67944  24059301.7194   24059305.7064
  -6409679.91344  -4994546.22444  22827781.2824   22827782.2014
 -24660539.46044 -19215985.43144  20603734.5774   20603736.1484
 -10069128.50944  -7846069.58044  22674941.0614   22674942.5994
 -23127127.54244 -18021123.48744  20662164.7754   20662166.3184
  -8126732.974 4  -6332516.588 4  23027881.133    23027879.524
  -4420533.06344  -3444566.59744  24338893.9534   24338897.0874
 -14795571.31944 -11529006.77544  22162348.0714   22162350.4074
 95  5 31  2 57  0.0000000  0  8G22G26G23G 6G17G28G 1G21
  -2473170.11344  -1927152.97444  24067674.9294   24067677.3044
  -6345352.01144  -4944420.58444  22840022.9114   22840023.3744
 -24659454.32144 -19215139.86644  20603941.0644   20603942.6404
  -9966521.69044  -7766116.23444  22694466.6884   22694468.8144
 -23113513.37944 -18010515.04144  20664755.5244   20664757.1304
  -8218018.966 4  -6403648.501 4  23010510.186    23010508.526
  -4531396.10644  -3530953.28044  24317797.7584   24317798.8804
 -14856542.38644 -11576516.67344  22150745.4904   22150747.4144
 95  5 31  2 57 30.0000000  0  8G22G26G23G 6G17G28G 1G21
  -2428859.93744  -1892625.57544  24076106.5864   24076110.4224
  -6280578.42044  -4893947.65044  22852348.5694   22852349.0304
 -24658045.06344 -19214041.73944  20604209.0874   20604210.6014
  -9863658.36144  -7685963.00644  22714041.0714   22714043.0824
 -23099677.86544 -17999734.11044  20667388.5734   20667389.9194
  -8309019.746 4  -6474558.195 4  22993193.210    22993192.003
  -4642274.56044  -3617351.95144  24296697.7584   24296700.8624
 -14917262.88944 -11623831.33344  22139191.0054   22139193.0564
 95  5 31  2 58  0.0000000  0  8G22G26G23G 6G17G28G 1G21
  -2384154.56344  -1857790.25744  24084613.6994   24084616.9154
  -6215286.51144  -4843070.84944  22864773.0684   22864773.6074
 -24656252.55044 -19212644.96844  20604550.2594   20604551.9394
  -9760479.64444  -7605564.01944  22733675.3844   22733677.2934
 -23085531.98444 -17988711.33344  20670080.2424   20670081.6964
  -8399661.986 4  -6545188.500 4  22975944.564    22975943.251
  -4753088.38144  -3703700.30144  24275610.0464   24275613.6104
 -14977657.00944 -11670891.66344  22127698.5514   22127700.5034
 95  5 31  2 58 30.0000000  0  8G22G26G23G 6G17G28G 1G21
  -2339199.20744  -1822760.14644  24093167.8514   24093172.0384
  -6149637.04844  -4791915.43144  22877266.1574   22877267.3764
 -24654234.00644 -19211072.07444  20604934.3964   20604935.9994
  -9657148.76844  -7525046.46544  22753338.5334   22753339.9194
 -23071208.96844 -17977550.52944  20672805.7524   20672807.1334
  -8490089.501 4  -6615651.463 4  22958736.745    22958734.940
  -4863966.40144  -3790098.67044  24254511.6814   24254514.8784
 -15037870.62044 -11717811.32744  22116240.2914   22116242.1324
 95  5 31  2 59  0.0000000  0  8G22G26G23G 6G17G28G 1G21
  -2293905.32444  -1787466.25844  24101787.1514   24101792.7224
  -6083551.55844  -4740420.24644  22889841.4434   22889842.3874
 -24651895.43444 -19209249.80444  20605379.5264   20605380.9324
  -9553579.82444  -7444343.42844  22773047.3784   22773049.1844
 -23056623.84044 -17966185.48244  20675581.3264   20675582.6304
  -8580214.403 4  -6685878.647 4  22941586.776    22941584.987
  -4974816.28744  -3876475.14544  24233417.2804   24233419.5514
 -15097840.81944 -11764541.32944  22104828.2584   22104830.4654
 95  5 31  2 59 30.0000000  0  8G22G26G23G 6G17G28G 1G21
  -2248227.31244  -1751873.04244  24110479.8024   24110482.8384
  -6016983.49144  -4688549.02744  22902509.0434   22902510.6534
 -24649205.74144 -19207153.92844  20605891.2944   20605892.6644
  -9449737.77844  -7363427.57544  22792807.6184   22792809.3264
 -23041722.66644 -17954574.17144  20678417.0024   20678418.2964
  -8669996.232 4  -6755838.494 4  22924501.316    22924500.133
  -5085579.89844  -3962784.36744  24212340.5894   24212345.0634
 -15157547.99944 -11811066.37144  22093466.1844   22093468.0484
 95  5 31  3  0  0.0000000  0  8G22G26G23G 6G17G28G 1G21
  -2202234.15944  -1716034.20844  24119232.8724   24119235.9414
  -5949985.92244  -4636343.13644  22915258.5824   22915259.8054
 -24646222.13144 -19204829.03444  20606459.1584   20606460.5744
  -9345667.88144  -7282334.14944  22812611.7144   22812613.9334
 -23026552.72244 -17942753.43144  20681303.4934   20681305.1814
  -8759482.268 4  -6825567.870 4  22907472.491    22907471.494
  -5196296.06744  -4049056.59944  24191270.9694   24191274.1814
 -15217035.34344 -11857420.09144  22082145.6644   22082148.0744
 95  5 31  3  0 30.0000000  0  8G22G26G23G 6G17G28G 1G21
  -2155935.21944  -1679957.15544  24128043.5164   24128044.9054
  -5882582.79744  -4583821.22644  22928084.4864   22928085.6394
 -24642938.69444 -19202270.50144  20607084.0534   20607085.1534
  -9241369.56744  -7201062.77444  22832457.9614   22832460.1744
 -23011135.24944 -17930739.81544  20684237.4454   20684238.8114
  -8848673.374 4  -6895067.419 4  22890500.155    22890499.027
  -5306982.80544  -4135305.93244  24170209.1654   24170208.5504
 -15276296.34344 -11903597.46244  22070868.6174   22070870.5164
 95  5 31  3  1  0.0000000  0  8G22G26G23G 6G17G28G 1G21
  -2109300.38644  -1643618.31744  24136918.3314   24136921.5354
  -5814736.21844  -4530953.76644  22940995.2534   22940995.2314
 -24639314.31444 -19199446.30044  20607773.6994   20607775.1924
  -9136800.82744  -7119580.66244  22852356.3994   22852358.7984
 -22995430.76844 -17918502.55644  20687225.9424   20687227.4244
  -8937529.773 4  -6964306.156 4  22873591.134    22873590.435
  -5417606.45744  -4221506.08444  24149157.1014   24149160.2834
 -15335291.56244 -11949567.75144  22059642.2654   22059644.1814
 95  5 31  3  1 30.0000000  0  8G22G26G23G 6G17G28G 1G21
  -2062390.55444  -1607065.21744  24145843.7004   24145845.7744
  -5746494.55944  -4477778.45244  22953981.6924   22953982.0344
 -24635387.81744 -19196386.69044  20608520.7364   20608522.4454
  -9032001.32144  -7037918.70744  22872299.3774   22872301.7294
 -22979464.44244 -17906061.26444  20690264.4754   20690265.9034
  -9026085.036 4  -7033310.241 4  22856739.996    22856739.051
  -5528204.09944  -4307685.97944  24128110.5484   24128114.5954
 -15394032.98644 -11995340.27844  22048464.1144   22048466.0954
 95  5 31  3  2  0.0000000  0  8G22G26G23G 6G17G28G 1G21
  -2015203.24244  -1570295.94144  24154822.9604   24154826.1194
  -5677853.31244  -4424291.78544  22967043.2454   22967045.1074
 -24631147.15744 -19193082.27844  20609327.7364   20609329.2024
  -8926966.07144  -6956073.09044  22892287.1604   22892290.4604
 -22963236.86844 -17893416.39844  20693352.4144   20693353.8194
  -9114331.248 4  -7102073.507 4  22839947.069    22839946.151
  -5638784.91044  -4393852.74944  24107068.2134   24107072.2034
 -15452497.52744 -12040897.05744  22037338.8134   22037340.7504
 95  5 31  3  2 30.0000000  0  7G26G23G 6G17G28G 1G21
  -5608811.08844  -4370492.66444  22980181.9094   22980182.5734
 -24626600.64844 -19189539.53644  20610192.9304   20610194.4944
  -8821715.08244  -6874059.40344  22912315.1664   22912317.4774
 -22946754.54044 -17880573.02544  20696488.5984   20696490.0164
  -9202276.002 4  -7170601.869 4  22823211.466    22823210.901
  -5749356.89544  -4480012.65544  24086026.6364   24086030.6914
 -15510697.92144 -12086248.00144  22026263.5914   22026265.6084
 95  5 31  3  3  0.0000000  0  7G26G23G 6G17G28G 1G21
  -5539346.28844  -4316364.26144  22993400.8914   22993401.7514
 -24621738.60744 -19185750.92844  20611118.1774   20611119.6934
  -8716239.53344  -6791870.68744  22932386.8984   22932389.3914
 -22930004.19844 -17867520.80744  20699676.3314   20699677.7854
  -9289903.665 4  -7238883.152 4  22806536.685    22806535.918
  -5859894.30144  -4566145.60444  24064992.3104   24064997.7014
 -15568618.39744 -12131380.80844  22015241.7134   22015243.9604
 95  5 31  3  3 30.0000000  0  7G26G23G 6G17G28G 1G21
  -5469377.75044  -4261843.31944  23006715.4334   23006716.8064
 -24616486.29044 -19181658.21244  20612117.4064   20612119.0034
  -8610447.61344  -6709435.43744  22952519.0264   22952521.1344
 -22912930.83744 -17854216.88444  20702925.0194   20702926.7234
  -9377130.931 4  -7306852.412 4  22789938.201    22789937.060
  -5970321.10244  -4652192.36044  24043977.9734   24043980.2774
 -15626177.07244 -12176231.71544  22004288.7094   22004291.1034
 95  5 31  3  4  0.0000000  0  7G26G23G 6G17G28G 1G21
  -5398965.84244  -4206976.90644  23020114.3664   23020115.4084
 -24610911.42644 -19177314.16244  20613178.4374   20613179.6624
  -8504409.19644  -6626808.14344  22972697.5324   22972700.5884
 -22895619.37344 -17840727.42444  20706219.1894   20706220.9384
  -9464024.085 4  -7374561.334 4  22773402.867    22773401.782
  -6080702.51544  -4738203.77144  24022973.9544   24022977.2244
 -15683468.76144 -12220874.58844  21993386.5474   21993388.6964
 95  5 31  3  4 30.0000000  0  7G26G23G 6G17G28G 1G21
  -5328119.78044  -4151772.17444  23033595.6194   23033596.5034
 -24605011.19344 -19172716.57344  20614301.2894   20614302.7044
  -8398123.72844  -6543988.32444  22992922.7934   22992924.7664
 -22878070.81544 -17827053.21544  20709558.6384   20709560.1994
  -9550573.781 4  -7442002.626 4  22756932.838    22756931.620
  -6191025.77744  -4824169.86844  24001979.3244   24001984.7584
 -15740495.10644 -12265310.67344  21982534.7644   21982536.8824
 95  5 31  3  5  0.0000000  0  7G26G23G 6G17G28G 1G21
  -5256850.20044  -4096237.44444  23047157.5544   23047158.3834
 -24598787.62044 -19167867.03844  20615485.4284   20615487.0414
  -8291592.18844  -6460976.75344  23013195.5944   23013197.3604
 -22860292.10044 -17813199.66444  20712941.8104   20712943.3104
  -9636777.060 4  -7509173.987 4  22740529.051    22740527.431
  -6301293.78644  -4910092.88144  23980995.6164   23980998.4544
 -15797264.39144 -12309546.45944  21971732.0044   21971733.9784
 95  5 31  3  5 30.0000000  0  7G26G23G 6G17G28G 1G21
  -5185127.26544  -4040349.44144  23060805.6344   23060807.1234
 -24592230.27644 -19162757.41944  20616733.5604   20616734.8754
  -8184805.73644  -6377766.56344  23033515.9934   23033517.9774
 -22842249.88244 -17799140.79144  20716375.3164   20716376.5184
  -9722612.679 4  -7576058.853 4  22724195.072    22724193.632
  -6411483.15144  -4995954.62444  23960027.7444   23960031.1784
 -15853768.88144 -12353575.91344  21960979.3594   21960981.5024
 95  5 31  3  6  0.0000000  0  7G26G23G 6G17G28G 1G21
  -5112989.28244  -3984138.04444  23074533.5604   23074534.5324
 -24585376.67944 -19157416.94744  20618037.4574   20618038.5944
  -8077828.94644  -6294408.05644  23053873.1044   23053875.2934
 -22823953.70544 -17784884.03144  20719857.1134   20719858.5084
  -9808116.446 4  -7642685.129 4  22707924.206    22707922.907
  -6521629.36344  -5081782.76044  23939067.1984   23939071.5314
 -15910040.49344 -12397423.90844  21950271.1584   21950273.0734
 95  5 31  3  6 30.0000000  0  7G26G23G 6G17G28G 1G21
  -5040443.63744  -3927608.97544  23088338.9604   23088339.6994
 -24578228.67444 -19151847.06744  20619397.7374   20619399.4014
  -7970671.53944  -6210908.81444  23074264.6404   23074267.7484
 -22805390.80744 -17770419.42944  20723389.2644   20723390.7884
  -9893283.615 4  -7709049.133 4  22691716.952    22691716.154
  -6631720.09744  -5167567.64544  23918117.6884   23918120.8134
 -15966048.16544 -12441066.22544  21939613.2634   21939615.3974
 95  5 31  3  7  0.0000000  0  7G26G23G 6G17G28G 1G21
  -4967467.59644  -3870744.53544  23102225.6244   23102226.3454
 -24570776.82744 -19146040.42844  20620815.9104   20620817.4614
  -7863316.35644  -6127255.44844  23094693.9374   23094695.4014
 -22786535.22944 -17755726.76544  20726977.4664   20726978.9614
  -9978101.442 4  -7775140.941 4  22675577.328    22675576.136
  -6741732.69844  -5253291.67144  23897183.0964   23897185.6964
 -16021783.53344 -12484496.36844  21929007.1254   21929009.2014
 95  5 31  3  7 30.0000000  0  7G26G23G 6G17G28G 1G21
  -4894113.89744  -3813585.81844  23116183.8634   23116185.4554
 -24563059.92244 -19140027.25144  20622284.1754   20622285.6864
  -7755799.60344  -6043476.16944  23115153.8534   23115155.0084
 -22767424.75644 -17740835.48544  20730613.7734   20730615.3854
 -10062610.542 4  -7840992.157 4  22659495.811    22659494.671
  -6851704.90444  -5338984.18144  23876256.5254   23876259.7114
 -16077285.59844 -12527744.73544  21918445.3054   21918447.5484
 95  5 31  3  8  0.0000000  0  7G26G23G 6G17G28G 1G21
  -4820335.44344  -3756096.12344  23130223.8984   23130224.6904
 -24555008.04744 -19133753.05844  20623816.5134   20623818.0204
  -7648049.22044  -5959514.86244  23135657.5394   23135659.5574
 -22747998.38744 -17725698.05144  20734310.5294   20734312.2334
 -10146740.401 4  -7906547.870 4  22643486.431    22643485.432
  -6961566.91544  -5424590.86244  23855350.0484   23855352.9384
 -16132483.83544 -12570756.31744  21907941.7294   21907943.6214
 95  5 31  3  8 30.0000000  0  7G26G23G 6G17G28G 1G21
  -4746145.74844  -3698285.96744  23144341.8284   23144343.2554
 -24546634.14344 -19127227.93444  20625409.9104   20625411.5094
  -7540057.56244  -5875365.51444  23156208.6334   23156210.0414
 -22728275.46944 -17710329.53544  20738063.8754   20738065.4914
 -10230495.906 4  -7971811.888 4  22627548.033    22627547.028
  -7071318.24444  -5510111.27444  23834465.1714   23834469.5394
 -16187405.84144 -12613552.66544  21897490.2554   21897492.1884
 95  5 31  3  9  0.0000000  0  7G26G23G 6G17G28G 1G21
  -4671547.65444  -3640157.58944  23158537.3484   23158538.2564
 -24537943.54844 -19120456.03644  20627063.6754   20627065.0264
  -7431818.05044  -5791023.05744  23176804.9374   23176806.3904
 -22708255.67044 -17694729.68744  20741873.3464   20741874.9844
 -10313874.511 4  -8036782.213 4  22611681.454    22611680.429
  -7180966.48844  -5595551.39044  23813598.9944   23813601.8454
 -16242077.63444 -12656154.05544  21887086.8634   21887088.8074
 95  5 31  3  9 30.0000000  0  7G26G 6G23G17G28G 1G21
  -4596582.44544  -3581743.14444  23172802.4194   23172803.0664
  -7323385.10844  -5706529.91544  23197439.7174   23197441.1504
 -24528975.56444 -19113467.98844  20628770.2914   20628771.5284
 -22687985.88544 -17678935.04644  20745730.7944   20745732.1854
 -10396907.578 4  -8101483.293 4  22595881.021    22595879.838
  -7290553.00744  -5680943.41344  23792746.6794   23792749.6664
 -16296532.28244 -12698586.20944  21876724.0764   21876726.2954
 95  5 31  3 10  0.0000000  0  7G26G23G 6G17G28G 1G21
  -4521242.31644  -3523036.54244  23187139.4314   23187139.5554
 -24519742.08444 -19106273.06144  20630527.5504   20630528.9554
  -7214771.96944  -5621896.31844  23218107.8124   23218110.4574
 -22667477.34744 -17662954.36744  20749633.4644   20749634.6814
 -10479591.858 4  -8165912.589 4  22580146.955    22580145.324
  -7400068.08844  -5766279.71244  23771905.5564   23771907.8634
 -16350769.31144 -12740848.79544  21866402.9884   21866405.1474
 95  5 31  3 10 30.0000000  0  7G26G 6G23G17G28G 1G21
  -4445540.93744  -3464048.45844  23201544.7764   23201545.5194
  -7105989.18044  -5537130.51944  23238808.3404   23238810.9204
 -24510246.30044 -19098873.73844  20632334.3494   20632335.8644
 -22646742.65644 -17646797.47144  20753579.0914   20753580.1534
 -10561934.646 4  -8230075.797 4  22564477.122    22564476.288
  -7509521.92344  -5851568.29144  23751077.6294   23751080.4164
 -16404790.25744 -12782943.02544  21856123.5134   21856125.3654
 95  5 31  3 11  0.0000000  0  7G26G23G 6G17G28G 1G21
  -4369453.29544  -3404759.40644  23216023.3624   23216025.3484
 -24500460.54544 -19091248.46444  20634196.6204   20634198.0594
  -6997016.02644  -5452216.38944  23259545.1714   23259548.1994
 -22625749.55044 -17630439.20544  20757573.8414   20757575.1524
 -10643903.160 4  -8293947.373 4  22548878.693    22548878.273
  -7618888.75044  -5936789.13444  23730265.3224   23730268.2704
 -16458545.12644 -12824829.93644  21845894.4224   21845896.3214
 95  5 31  3 11 30.0000000  0  7G26G 6G23G17G28G 1G21
  -4292971.35944  -3345163.11644  23230577.6324   23230579.2934
  -6887858.36844  -5367158.49144  23280317.7664   23280319.5564
 -24490378.96744 -19083392.67844  20636114.9784   20636116.3324
 -22604501.13944 -17613881.99644  20761617.1024   20761618.8974
 -10725488.976 4  -8357520.739 4  22533353.547    22533352.790
  -7728164.26744  -6021938.78044  23709470.3394   23709473.4084
 -16512011.05444 -12866491.64644  21835720.1094   21835721.7694
 95  5 31  3 12  0.0000000  0  7G26G23G 6G17G28G 1G21
  -4216070.00844  -3285239.99944  23245211.7854   23245212.3704
 -24479961.81544 -19075275.41144  20638097.2174   20638098.9114
  -6778468.55644  -5281919.69044  23301133.2944   23301135.9304
 -22582957.71844 -17597094.90944  20765716.7224   20765718.4334
 -10806661.297 4  -8420771.907 4  22517907.296    22517906.525
  -7837317.89944  -6106993.46744  23688699.4684   23688703.5894
 -16565153.40144 -12907901.22344  21825607.2614   21825608.8694
 95  5 31  3 12 30.0000000  0  7G26G 6G23G17G28G 1G21
  -4138813.05644  -3225039.76544  23259913.1684   23259913.9604
  -6668910.22644  -5196549.60544  23321981.2224   23321983.5044
 -24469264.80944 -19066940.07644  20640132.8214   20640134.2544
 -22561157.56644 -17580107.76744  20769865.1934   20769866.8594
 -10887477.917 4  -8483745.906 4  22502528.399    22502527.732
  -7946419.60944  -6192007.70444  23667937.6134   23667940.3484
 -16618032.69344 -12949105.85544  21815544.4714   21815546.2374
 95  5 31  3 13  0.0000000  0  7G26G23G 6G17G28G 1G21
  -4061195.29444  -3164558.39644  23274683.1334   23274683.5364
 -24458304.19344 -19058399.32944  20642218.6814   20642220.1224
  -6559201.19544  -5111062.07744  23342858.0764   23342860.3164
 -22539098.04544 -17562918.51944  20774062.9234   20774064.2914
 -10967947.523 4  -8546449.506 4  22487215.364    22487214.601
  -8055467.54844  -6276980.04644  23647187.0754   23647188.1194
 -16670678.97844 -12990128.89944  21805526.3604   21805528.4484
 95  5 31  3 13 30.0000000  0  7G26G 6G23G17G28G 1G21
  -3983191.94744  -3103776.58444  23289526.5454   23289527.2334
  -6449325.13844  -5025444.40744  23363767.1654   23363768.8684
 -24447052.06344 -19049631.43044  20644359.6854   20644361.2484
 -22516762.40644 -17545514.12344  20778313.4354   20778314.7914
 -11048050.277 4  -8608867.233 4  22471972.639    22471971.586
  -8164435.75244  -6361890.25344  23626450.3644   23626452.6864
 -16723088.35144 -13030967.34044  21795553.3284   21795555.2684
 95  5 31  3 14  0.0000000  0  7G26G23G 6G17G28G 1G21
  -3904783.68644  -3042679.25944  23304447.4224   23304448.6134
 -24435474.94244 -19040610.28944  20646563.0454   20646564.4154
  -6339237.18644  -4939661.59644  23384716.1764   23384716.8954
 -22494103.83444 -17527858.09344  20782625.2434   20782626.3904
 -11127743.652 4  -8670965.958 4  22456807.299    22456806.506
  -8273270.63944  -6446696.56744  23605740.7054   23605744.2944
 -16775232.32844 -13071598.98644  21785630.4354   21785632.6194
 95  5 31  3 14 30.0000000  0  7G26G23G 6G17G28G 1G21
  -3825994.80344  -2981285.33644  23319440.9354   23319441.5384
 -24423607.40744 -19031362.84844  20648821.3874   20648822.7874
  -6228974.71744  -4853742.79144  23405698.5324   23405701.5224
 -22471146.32944 -17509969.11744  20786993.7894   20786995.2894
 -11207047.831 4  -8732761.418 4  22441716.088    22441715.488
  -8381980.39744  -6531405.39844  23585052.9174   23585055.3514
 -16827148.80944 -13112053.35144  21775751.0244   21775752.9164
 95  5 31  3 15  0.0000000  0  7G26G23G 6G17G28G 1G21
  -3746808.88444  -2919582.02144  23334509.4244   23334509.8874
 -24411424.05144 -19021869.31844  20651139.5334   20651141.1874
  -6118507.35544  -4767664.33544  23426719.8404   23426723.4664
 -22447895.50544 -17491851.58944  20791418.1794   20791419.8364
 -11285937.997 4  -8794234.272 4  22426703.857    22426702.763
  -8490537.28944  -6615995.09344  23564394.9494   23564398.1254
 -16878811.41844 -13152309.88844  21765919.8614   21765921.9704
 95  5 31  3 15 30.0000000  0  7G26G23G 6G17G28G 1G21
  -3667221.91844  -2857566.20244  23349654.2244   23349653.7894
 -24398914.67344 -19012121.74744  20653519.8374   20653521.5254
  -6007823.42344  -4681417.13644  23447782.1964   23447784.9004
 -22424343.43644 -17473499.31844  20795900.2964   20795901.5394
 -11364391.601 4  -8855366.951 4  22411774.517    22411773.657
  -8598928.72044  -6700455.88644  23543769.9464   23543773.7464
 -16930184.23244 -13192340.60744  21756143.8884   21756145.9914
 95  5 31  3 16  0.0000000  0  8G 9G26G23G 6G17G28G 1G21
        -1.22154                  24930306.4784
  -3587276.77244  -2795271.32144  23364867.5934   23364868.2174
 -24386122.06244 -19002153.47044  20655954.2534   20655955.7214
  -5896964.72644  -4595033.75544  23468877.7304   23468880.8104
 -22400519.76044 -17454935.40844  20800433.5474   20800434.7254
 -11442447.299 4  -8916189.586 4  22396921.075    22396920.022
  -8707184.00444  -6784810.57344  23523169.6284   23523173.2684
 -16981298.61244 -13232169.96744  21746416.8564   21746418.9054
 95  5 31  3 16 30.0000000  0  8G 9G26G23G 6G17G28G 1G21
    -60774.71744    -47355.80644  24918741.6114
  -3506968.40144  -2732693.39544  23380149.9504   23380149.6264
 -24373055.96444 -18991972.09144  20658440.7154   20658442.1414
  -5785954.21844  -4508532.07444  23490002.6484   23490004.4584
 -22376443.08344 -17436174.36144  20805015.3064   20805016.9834
 -11520120.171 4  -8976713.899 4  22382140.796    22382139.060
  -8815331.15944  -6869081.00244  23502589.6694   23502592.8474
 -17032165.43544 -13271806.43844  21736737.4014   21736739.3724
 95  5 31  3 17  0.0000000  0  8G 9G26G23G 6G17G28G 1G21
   -121411.17344                  24907202.3374
  -3426325.82944  -2669855.02644  23395495.4214   23395495.9254
 -24359742.00944 -18981597.57744  20660974.3844   20660975.7734
  -5674813.49344  -4421928.91944  23511152.4654   23511154.0884
 -22352136.83444 -17417234.42744  20809640.6714   20809642.0014
 -11597427.675 4  -9036953.497 4  22367429.801    22367428.264
  -8923393.87444  -6953285.65444  23482025.7474   23482028.2824
 -17082791.67844 -13311255.44744  21727103.6024   21727105.5204
 95  5 31  3 17 30.0000000  0  8G 9G26G23G 6G17G28G 1G21
   -181889.09544                  24895694.6824
  -3345317.24244  -2606731.48044  23410910.3474   23410912.3124
 -24346151.24244 -18971007.36344  20663560.4754   20663561.8674
  -5563516.32244  -4335203.85044  23532331.4514   23532333.0974
 -22327538.12744 -17398066.60144  20814321.6294   20814322.9094
 -11674328.102 4  -9096875.898 4  22352795.961    22352794.712
  -9031332.50944  -7037393.61344  23461485.5944   23461488.8094
 -17133148.55544 -13350494.55544  21717520.9344   21717523.4304
 95  5 31  3 18  0.0000000  0  8G 9G26G23G 6G17G28G 1G21
   -242235.64844                  24884210.6004
  -3263959.55744  -2543335.88244  23426392.4224   23426393.7784
 -24332283.38444 -18960201.23844  20666199.5274   20666200.9864
  -5452057.06644  -4248352.48044  23553540.6034   23553542.4534
 -22302648.75044 -17378672.28044  20819057.9484   20819059.2634
 -11750821.616 4  -9156481.225 4  22338239.880    22338238.703
  -9139147.71144  -7121405.40344  23440969.1834   23440972.4854
 -17183249.34344 -13389534.10044  21707986.7564   21707989.0224
 95  5 31  3 18 30.0000000  0  8G 9G26G23G 6G17G28G 1G21
   -302483.57744                  24872745.9754
  -3182282.06144  -2479691.07644  23441935.3754   23441935.8554
 -24318156.13144 -18949192.97744  20668887.8334   20668889.3474
  -5340451.28244  -4161386.89444  23574779.2594   23574782.3284
 -22277483.68144 -17359063.14044  20823846.8164   20823848.2594
 -11826912.093 4  -9215772.491 4  22323760.165    22323759.095
  -9246849.17944  -7205328.56144  23420474.1864   23420476.7154
 -17233111.29344 -13428387.54544  21698498.6704   21698500.8164
 95  5 31  3 19  0.0000000  0  8G 9G26G23G 6G17G28G 1G21
   -362648.17344                  24861296.0444
  -3100308.08444  -2415815.26344  23457534.6034   23457535.9334
 -24303785.42844 -18937995.01844  20671622.3104   20671623.9434
  -5228716.56944  -4074320.91044  23596042.0944   23596043.6564
 -22252047.87844 -17339243.02944  20828686.8734   20828688.3564
 -11902609.829 4  -9274757.726 4  22309355.251    22309354.138
  -9354435.64544  -7289162.11544  23400000.8424   23400003.4644
 -17282746.79144 -13467064.53244  21689053.2074   21689055.4284
 95  5 31  3 19 30.0000000  0  8G 9G26G23G 6G17G28G 1G21
   -422696.88444                  24849869.3524
  -3018005.30444  -2351683.25644  23473195.3254   23473195.8834
 -24289140.22044 -18926583.16244  20674409.2304   20674410.9214
  -5116825.36944  -3987132.95444  23617333.8384   23617334.7154
 -22226305.26144 -17319183.84044  20833585.5324   20833587.0434
 -11977888.092 4  -9333416.096 4  22295030.200    22295028.951
  -9461884.89844  -7372888.73744  23379553.8194   23379556.6954
 -17332131.57044 -13505546.17444  21679655.6474   21679657.9554
 95  5 31  3 20  0.0000000  0  8G 9G26G23G 6G17G28G 1G21
   -482582.06944   -376036.66544  24838473.3324
  -2935345.76344  -2287273.23544  23488925.6384   23488926.2664
 -24274200.75444 -18914942.01044  20677252.4504   20677253.8634
  -5004762.48344  -3899811.24544  23638658.5834   23638660.7934
 -22200243.70344 -17298876.12944  20838544.6554   20838546.0944
 -12052725.778 4  -9391731.160 4  22280788.815    22280787.888
  -9569172.12344  -7456489.13144  23359137.5664   23359139.7174
 -17381237.92444 -13543810.85144  21670311.1884   21670313.2794
 95  5 31  3 20 30.0000000  0  8G 9G26G23G 6G17G28G 1G21
   -542267.98044   -422545.16744  24827116.6394   24827117.5604
  -2852314.01444  -2222573.17044  23504726.3034   23504726.2224
 -24258978.70744 -18903080.66644  20680149.0864   20680150.4964
  -4892546.72444  -3812370.40144  23660012.8524   23660015.1414
 -22173868.70944 -17278324.18844  20843563.8914   20843565.2634
 -12127126.439 4  -9449705.687 4  22266630.950    22266629.960
  -9676311.90444  -7539974.61044  23338749.9454   23338752.8064
 -17430056.89544 -13581851.59644  21661020.9664   21661023.2414
 95  5 31  3 21  0.0000000  0  8G 9G26G23G 6G17G28G 1G21
   -601740.43944   -468887.32544  24815799.3234   24815800.5094
  -2768916.51644  -2157588.12744  23520596.1854   23520596.8594
 -24243494.65444 -18891015.16344  20683095.4124   20683096.8024
  -4780193.20344  -3724822.22644  23681392.9124   23681395.5454
 -22147206.50544 -17257548.45144  20848637.4704   20848638.8564
 -12201103.709 4  -9507350.294 4  22252553.772    22252552.609
  -9783332.03844  -7623366.85844  23318383.9074   23318387.0864
 -17478593.92744 -13619672.64344  21651784.7384   21651786.7134
 95  5 31  3 21 30.0000000  0  8G 9G26G23G 6G17G28G 1G21
   -660983.89044   -515051.01444  24804525.9044   24804528.9684
  -2685156.98344  -2092320.99244  23536534.7864   23536535.6254
 -24227738.35544 -18878737.52144  20686093.8194   20686095.0244
  -4667692.86944  -3637159.67544  23702801.1384   23702802.4934
 -22120256.77044 -17236548.66144  20853765.5804   20853766.9734
 -12274644.411 4  -9564654.720 4  22238559.319    22238558.292
  -9890221.99944  -7706657.66844  23298043.9254   23298047.1464
 -17526849.41444 -13657274.29244  21642602.0164   21642603.9154
 95  5 31  3 22  0.0000000  0  8G 9G26G23G 6G17G28G 1G21
   -719995.04044   -561033.65544  24793295.8964   24793298.1864
  -2601057.36244  -2026788.84544  23552539.1274   23552539.0334
 -24211707.29244 -18866245.77944  20689144.2714   20689145.8684
  -4555047.09744  -3549383.76744  23724236.4924   23724237.7954
 -22093043.39244 -17215343.43244  20858944.6864   20858946.2244
 -12347747.179 4  -9621617.900 4  22224648.365    22224647.075
  -9996975.23644  -7789841.94444  23277729.3394   23277732.4284
 -17574827.19844 -13694659.55044  21633472.1474   21633474.1574
 95  5 31  3 22 30.0000000  0  8G 9G26G23G 6G17G28G 1G21
   -778774.81344   -606836.07144  24782110.2934   24782111.0714
  -2516614.96944  -1960989.57244  23568607.6584   23568607.7564
 -24195383.64544 -18853526.05344  20692250.7624   20692252.1564
  -4442233.08144  -3461476.77544  23745703.9264   23745706.7944
 -22065552.06044 -17193921.62244  20864176.0264   20864177.2094
 -12420396.809 4  -9678227.977 4  22210823.723    22210822.456
 -10103566.21344  -7872899.77644  23257445.6764   23257449.7274
 -17622520.22244 -13731822.94344  21624396.5744   21624398.2984
 95  5 31  3 23  0.0000000  0  8G 9G26G23G 6G17G28G 1G21
   -837356.50044   -652484.11144  24770962.9414   24770964.8224
  -2431854.29944  -1894942.31544  23584736.5264   23584737.1924
 -24178765.03244 -18840576.47944  20695413.1034   20695414.3714
  -4329253.46544  -3373440.68344  23767202.8064   23767204.3914
 -22037783.47144 -17172283.75944  20869460.1164   20869461.3284
 -12492598.470 4  -9734489.003 4  22197084.136    22197082.985
 -10209976.42244  -7955816.76744  23237196.2344   23237199.2544
 -17669960.16744 -13768789.13144  21615368.8194   21615370.7864
 95  5 31  3 23 30.0000000  0  8G 9G26G23G 6G17G28G 1G21
   -895758.37244   -697992.01444  24759849.2044   24759851.4714
  -2346781.31644  -1828651.70444  23600925.6124   23600927.2794
 -24161850.52344 -18827396.33744  20698631.7454   20698633.2804
  -4216129.89144  -3285292.45044  23788730.5124   23788732.2174
 -22009728.34244 -17150422.62044  20874798.8874   20874800.0814
 -12564356.737 4  -9790404.533 4  22183428.967    22183427.735
 -10316195.89844  -8038585.14444  23216983.3474   23216986.3304
 -17717160.05744 -13805568.27544  21606387.1254   21606388.9184
 95  5 31  3 24  0.0000000  0  8G 9G26G23G 6G17G28G 1G21
   -954006.00944   -743379.75344  24748764.6114   24748765.3124
  -2261404.48144  -1762124.35644  23617172.7384   23617172.7424
 -24144672.99944 -18814011.25044  20701900.4484   20701901.9624
  -4102900.50344  -3197061.69644  23810276.7664   23810280.0404
 -21981404.52844 -17128352.11044  20880188.8124   20880190.0494
 -12635693.747 4  -9845991.805 4  22169853.921    22169852.888
 -10422253.61544  -8121227.48544  23196801.8794   23196804.6384
 -17764134.22044 -13842171.52144  21597448.3244   21597450.0474
 95  5 31  3 24 30.0000000  0  8G 9G26G23G 6G17G28G 1G21
  -1012129.88644   -788671.02544  24737704.3004   24737706.8494
  -2175724.01944  -1695360.35844  23633477.1134   23633475.8304
 -24127261.11644 -18800443.54344  20705213.9514   20705215.1234
  -3989604.57844  -3108779.19544  23831836.7514   23831838.9664
 -21952810.26844 -17106070.86344  20885629.7614   20885631.1724
 -12706625.874 4  -9901263.580 4  22156355.718    22156354.801
 -10528169.19444  -8203759.07844  23176647.3944   23176650.8194
 -17810906.63444 -13878617.52344  21588547.6164   21588549.5644
 95  5 31  3 25  0.0000000  0  8G 9G26G23G 6G17G28G 1G21
  -1070127.95144   -833864.33744  24726667.3684   24726669.1724
  -2089750.83944  -1628368.26944  23649837.2384   23649836.6354
 -24109624.52244 -18786700.73944  20708570.0244   20708571.1244
  -3876253.37744  -3020453.59144  23853406.6724   23853408.3534
 -21923949.14344 -17083581.67544  20891122.1284   20891123.4134
 -12777149.746 4  -9956217.242 4  22142935.308    22142934.638
 -10633962.98744  -8286195.77044  23156513.9494   23156517.9884
 -17857474.83044 -13914904.41144  21579686.0454   21579688.0524
 95  5 31  3 25 30.0000000  0  8G 9G26G23G 6G17G28G 1G21
  -1127946.72244   -878917.93544  24715664.8994   24715666.7994
  -2003433.81544  -1561108.26544  23666262.7384   23666263.6684
 -24091720.20044 -18772749.31744  20711977.2154   20711978.3534
  -3762795.21144  -2932044.63244  23874997.2194   23875000.8824
 -21894778.73244 -17060851.49344  20896672.9044   20896673.9514
 -12847214.697 4 -10010813.302 4  22129602.389    22129601.504
 -10739593.77744  -8368505.44844  23136413.3104   23136416.2954
 -17903766.60544 -13950975.92244  21570877.0144   21570878.6824
 95  5 31  3 26  0.0000000  0  8G 9G26G23G 6G17G28G 1G21
  -1185584.41244   -923830.38444  24704697.1804   24704699.5094
  -1916771.13244  -1493578.96444  23682754.5774   23682755.2474
 -24073551.28144 -18758591.71244  20715434.6474   20715435.6224
  -3649199.92444  -2843528.85544  23896612.7674   23896615.8834
 -21865302.32144 -17037882.86844  20902282.1704   20902283.7234
 -12916817.743 4 -10065049.428 4  22116357.733    22116356.451
 -10845062.13244  -8450688.55044  23116343.5934   23116347.0794
 -17949775.75044 -13986827.18744  21562121.5024   21562123.5834
 95  5 31  3 26 30.0000000  0  8G 9G26G23G 6G17G28G 1G21
  -1243033.89244   -968596.17044  24693765.0244   24693767.5754
  -1829781.36744  -1425794.75544  23699306.5764   23699307.8824
 -24055120.57844 -18744230.11444  20718941.7844   20718942.7614
  -3535438.80544  -2754883.85844  23918262.4524   23918263.4654
 -21835512.20644 -17014669.79744  20907951.1834   20907952.8934
 -12985954.380 4 -10118922.135 4  22103201.292    22103200.428
 -10950352.49544  -8532732.96344  23096307.5024   23096310.6694
 -17995501.47044 -14022457.61644  21553420.1214   21553422.3344
 95  5 31  3 27  0.0000000  0  8G 9G26G23G 6G17G28G 1G21
  -1300310.22544  -1013227.11544  24682865.5084   24682868.5554
  -1742503.81444  -1357786.28344  23715916.1114   23715916.4684
 -24036456.40544 -18729686.59844  20722493.4284   20722494.8604
  -3421530.56144  -2666124.20944  23939938.0534   23939939.8984
 -21805454.72744 -16991248.38844  20913670.9134   20913672.4344
 -13054655.960 4 -10172455.851 4  22090127.931    22090126.888
 -11055486.78844  -8614655.76144  23076300.6884   23076303.8554
 -18040966.88444 -14057885.22244  21544768.5844   21544770.4894
 95  5 31  3 27 30.0000000  0  8G 9G26G23G 6G17G28G 1G21
  -1357366.93244  -1057686.88244  24672007.8084   24672008.2234
  -1654884.04544  -1289511.12744  23732589.5354   23732591.8824
 -24017521.35744 -18714932.01144  20726096.6034   20726098.0004
  -3307443.17844  -2577224.97844  23961647.6694   23961649.3724
 -21775088.96244 -16967586.75344  20919449.2234   20919450.4954
 -13122883.158 4 -10225619.903 4  22077144.835    22077143.682
 -11160403.86044  -8696409.28344  23056335.4634   23056338.6394
 -18086128.98544 -14093076.44744  21536174.7324   21536176.5984
 95  5 31  3 28  0.0000000  0  8G 9G26G23G 6G17G28G 1G21
  -1414181.00944  -1101957.56044  24661197.6054   24661199.5584
  -1566929.98744  -1220975.51844  23749326.8444   23749328.1474
 -23998321.25344 -18699970.88644  20729750.2494   20729751.6914
  -3193195.48844  -2488200.82044  23983388.6154   23983390.6084
 -21744400.58944 -16943673.74144  20925288.9234   20925290.2464
 -13190627.588 4 -10278407.768 4  22064253.328    22064252.398
 -11265094.68144  -8777986.50744  23036413.9724   23036416.6734
 -18131000.75144 -14128041.44044  21527635.6604   21527638.0854
 95  5 31  3 28 30.0000000  0  8G 9G26G23G 6G17G28G 1G21
  -1470769.58544  -1146052.52444  24650427.1264   24650428.5894
  -1478688.02444  -1152215.55544  23766119.2814   23766120.1054
 -23978884.08244 -18684825.03544  20733449.0494   20733450.4084
  -3078858.50244  -2399107.06544  24005145.9074   24005148.6264
 -21713421.04844 -16919533.85344  20931184.0224   20931185.5124
 -13257914.957 4 -10330839.487 4  22051449.255    22051447.897
 -11369582.87944  -8859405.85744  23016530.7194   23016532.5244
 -18175616.62244 -14162807.04044  21519145.6624   21519147.7314
 95  5 31  3 29  0.0000000  0  8G 9G26G23G 6G17G28G 1G21
  -1527129.94144  -1189969.68444  24639702.3174   24639706.6644
  -1390158.76544  -1083231.74044  23782966.2494   23782967.0094
 -23959213.18744 -18669497.05844  20737192.3874   20737193.5344
  -2964468.66744  -2309972.13144  24026913.7774   24026916.5984
 -21682165.94244 -16895179.23044  20937131.6924   20937133.1204
 -13324752.803 4 -10382920.928 4  22038730.094    22038729.195
 -11473880.11344  -8940676.39544  22996683.5814   22996686.3844
 -18219995.65944 -14197388.09744  21510700.6744   21510702.2494
 95  5 31  3 29 30.0000000  0  8G 9G26G23G 6G17G28G 1G21
  -1583227.81644  -1233682.30844  24629027.7524   24629030.8684
  -1301319.43644  -1014006.32644  23799870.9434   23799871.6494
 -23939289.14144 -18653971.81944  20740983.8164   20740985.0064
  -2850000.79044  -2220776.38944  24048695.7124   24048697.0174
 -21650592.26844 -16870576.36944  20943140.3904   20943141.7514
 -13391106.528 4 -10434625.134 4  22026103.492    22026102.476
 -11577958.59944  -9021776.47944  22976878.1864   22976880.8354
 -18264122.64344 -14231772.74544  21502303.6204   21502305.1284
 95  5 31  3 30  0.0000000  0  8G 9G26G23G 6G17G28G 1G21
  -1639063.56244  -1277190.64644  24618403.0004   24618406.8854
  -1212184.00944   -944550.16144  23816832.6184   23816832.5204
 -23919096.48344 -18638237.27544  20744826.4784   20744827.7204
  -2735443.35844  -2131510.85944  24070494.5204   24070498.7104
 -21618706.81044 -16845730.54844  20949207.9664   20949209.1294
 -13456973.238 4 -10485949.838 4  22013569.463    22013568.611
 -11681829.38144  -9102714.70444  22957112.0984   22957114.8444
 -18308007.41444 -14265968.65844  21493952.5834   21493954.5074
 95  5 31  3 30 30.0000000  0  8G 9G26G23G 6G17G28G 1G21
  -1694675.56844  -1320524.71044  24607819.9724   24607821.3854
  -1122756.44844   -874866.33744  23833850.1954   23833849.8834
 -23898653.37044 -18622307.57144  20748716.5514   20748717.5144
  -2620799.47344  -2042177.97744  24092311.0854   24092313.9284
 -21586542.02844 -16820667.07244  20955328.1924   20955329.5014
 -13522376.095 4 -10536913.099 4  22001123.753    22001123.046
 -11785520.65344  -9183513.06444  22937379.6974   22937382.3404
 -18351673.28244 -14299994.01344  21485643.2914   21485645.1184
 95  5 31  3 31  0.0000000  0  8G 9G26G23G 6G17G28G 1G21
  -1750134.55544  -1363739.51344  24597267.6904   24597270.7524
  -1033080.47744   -804988.98444  23850914.8274   23850916.5464
 -23878019.99744 -18606229.61544  20752642.9204   20752644.1054
  -2506102.10544  -1952803.39444  24114136.6794   24114139.8644
 -21554152.69144 -16795428.62244  20961491.9404   20961493.2014
 -13587368.598 4 -10587556.606 4  21988756.140    21988755.175
 -11889089.54844  -9264216.05944  22917671.4324   22917673.9594
 -18395177.81644 -14333893.64044  21477364.7224   21477366.4354
 95  5 31  3 31 30.0000000  0  8G 9G26G23G 6G17G28G 1G21
  -1805397.50944  -1406801.56444  24586750.3644   24586754.6494
   -943100.72944   -734874.90444  23868037.1754   23868038.2814
 -23857127.44544 -18589949.70044  20756618.6454   20756619.8814
  -2391290.06544  -1863339.48344  24135985.6324   24135985.6364
 -21521472.60544 -16769963.62244  20967711.0294   20967712.3864
 -13651882.641 4 -10637827.282 4  21976479.694    21976478.442
 -11992477.47144  -9344778.05244  22897996.8344   22897999.2484
 -18438445.93644 -14367609.06644  21469131.0124   21469132.7084
 95  5 31  3 32  0.0000000  0  8G 9G26G23G 6G17G28G 1G21
  -1860459.97044  -1449707.39244  24576271.8044   24576272.6664
   -852811.10244   -664519.35744  23885219.0954   23885218.7534
 -23835961.24244 -18573456.55244  20760646.3514   20760647.7034
  -2276360.69544  -1773784.08044  24157856.2544   24157856.6614
 -21488486.87044 -16744260.44944  20973987.9174   20973989.1114
 -13715904.711 4 -10687714.600 4  21964296.619    21964295.473
 -12095672.52544  -9425189.74144  22878359.8884   22878363.1704
 -18481456.02444 -14401123.41944  21460946.2684   21460947.9104
 95  5 31  3 32 30.0000000  0  8G 9G26G23G 6G17G28G 1G21
  -1915352.87844  -1492481.06744  24565826.4154   24565826.9744
   -762252.48644   -593954.20344  23902451.7034   23902452.6194
 -23814573.70844 -18556790.93744  20764716.2984   20764717.5744
  -2161359.91844  -1684173.07944  24179739.6804
 -21455222.82744 -16718340.42144  20980317.8884   20980319.0804
 -13779465.289 4 -10737242.318 4  21952201.047    21952200.236
 -12198700.76144  -9505471.44844  22858753.8814   22858757.0754
 -18524225.23044 -14434450.06644  21452807.4934   21452809.2794
 95  5 31  3 33  0.0000000  0  8G 9G26G23G 6G17G28G 1G21
  -1970033.56144  -1535089.38944  24555421.3184   24555425.9824
   -671423.99544   -523178.77744  23919735.6244   23919736.6694
 -23792929.15844 -18539925.04544  20768834.8384   20768836.1844
  -2046277.31244                  24201640.8644
 -21421654.10644 -16692182.97444  20986705.6044   20986707.1624
 -13842533.502 4 -10786386.370 4  21940199.702    21940198.744
 -12301532.81644  -9585600.29444  22839186.2824   22839188.4014
 -18566713.86744 -14467558.09344  21444722.2654   21444724.2434
 95  5 31  3 33 30.0000000  0  8G 9G26G23G 6G17G28G 1G21
  -2024481.66344  -1577516.50844  24545060.4924   24545063.9274
   -580336.97944   -452201.88344  23937069.3724   23937068.9214
 -23771027.17144 -18522858.55344  20773002.9494   20773004.2464
  -1931127.73644                  24223554.0774
 -21387779.39744 -16665787.09144  20993151.9084   20993153.4884
 -13905112.052 4 -10835148.862 4  21928291.648    21928290.310
 -12404172.82444  -9665579.50344  22819654.2944   22819656.8804
 -18608913.87944 -14500441.20644  21436691.7484   21436694.0034
 95  5 31  3 34  0.0000000  0  8G 9G26G23G 6G17G28G 1G21
  -2078684.38244  -1619752.43344  24534745.8074   24534748.9474
   -488997.42844   -381028.24744  23954450.7084   23954451.5344
 -23748886.40644 -18505606.00544  20777216.1964   20777217.5584
  -1815922.09144                  24245476.1644
 -21353615.32144 -16639165.72544  20999653.1044   20999654.1954
 -13967213.487 4 -10883539.577 4  21916473.955    21916473.086
 -12506628.24544  -9745414.86544  22800157.8544   22800160.6714
 -18650840.70744 -14533111.44944  21428713.3274   21428715.4384
 95  5 31  3 34 30.0000000  0  8G 9G26G23G 6G17G28G 1G21
  -2132574.51044                  24524491.7294
   -397343.99444   -309610.01044  23971891.2634   23971891.6904
 -23726456.21444 -18488127.93044  20781484.3194   20781485.6984
  -1700611.63644                  24267417.5574
 -21319120.17244 -16612286.39944  21006217.4664   21006218.4034
 -14028783.366 4 -10931516.100 4  21904757.668    21904756.568
 -12608844.37244  -9825063.78544  22780706.6994   22780708.9474
 -18692444.72644 -14565530.15144  21420796.1224   21420798.4434
 95  5 31  3 35  0.0000000  0  6G26G17G28G 1G21G23
   -305422.23144   -237982.66044  23989383.4914   23989384.6064
 -21284339.54844 -16585184.61044  21012835.8004   21012837.1354
 -14089870.942 4 -10979116.787 4  21893133.239    21893131.889
 -12710873.62444  -9904567.06144  22761291.0434   22761293.6314
 -18733805.74544 -14597759.50344  21412925.4084   21412927.7034
 -23703791.21544 -18470466.88644  20785797.6454   20785798.9684
 95  5 31  3 35 30.0000000  0  6G26G23G17G28G 1G21
   -213264.99744   -166171.82644  24006920.5574   24006921.9424
 -23680947.40044 -18452666.50944  20790144.4364   20790145.8784
 -21249300.71144 -16557881.60744  21019503.3194   21019504.8394
 -14150509.900 4 -11026367.899 4  21881593.842    21881592.938
 -12812736.62644  -9983940.77544  22741906.9304   22741910.0874
 -18774973.43444 -14629838.20744  21405091.5834   21405093.5184
 95  5 31  3 36  0.0000000  0  7G26G22G23G17G28G 1G21
   -120849.65344    -94159.89244  24024506.9834   24024508.8194
        -0.05054         0.14754  24876405.1564   24876408.7384
 -23657902.27744 -18434709.26544  20794529.7984   20794531.1364
 -21213970.61144 -16530351.65044  21026226.6494   21026227.5284
 -14210660.257 4 -11073238.291 4  21870147.655    21870146.615
 -12914376.73444 -10063140.81844  22722565.6374   22722568.1004
 -18815925.43244 -14661748.83544  21397298.8294   21397300.6904
 95  5 31  3 36 30.0000000  0  6G26G17G23G28G 1G21
    -28090.41444    -21879.98944  24042158.5674   24042157.6894
 -21178238.66344 -16502508.57444  21033025.7234   21033027.1034
 -23634565.16644 -18416524.50244  20798970.6194   20798971.7484
 -14270219.900 4 -11119648.388 4  21858813.729    21858812.647
 -13015680.56644 -10142078.82244  22703288.2214   22703290.5694
 -18856568.35344 -14693418.62644  21389564.4964   21389566.6674
 95  5 31  3 37  0.0000000  0  7G 9G26G23G17G28G 1G21
         0.11354         0.76054  24473977.4764
     64937.81944     50609.53844  24059861.8734   24059863.1984
 -23610994.95144 -18398158.09344  20803455.9604   20803457.3434
 -21142167.52444 -16474401.18744  21039890.2294   21039891.5094
 -14329252.236 4 -11165647.591 4  21847580.382    21847579.084
 -13116706.42044 -10220800.21044  22684063.8344   22684066.6944
 -18896959.55844 -14724892.28344  21381878.6274   21381880.2114
 95  5 31  3 37 30.0000000  0  7G 9G26G17G23G28G 1G21
    -52251.24844    -40714.61244  24464034.3494   24464037.5404
    158178.36044    123264.49644  24077604.6424   24077605.3634
 -21105821.69344 -16446079.75244  21046806.8094   21046808.0504
 -23587239.01144 -18379646.96644  20807976.3734   20807977.6684
 -14387812.088 4 -11211278.632 4  21836436.563    21836435.583
 -13217493.66244 -10299335.66844  22664884.6564   22664887.0284
 -18937136.77444 -14756199.20144  21374233.2374   21374234.8534
 95  5 31  3 38  0.0000000  0  7G 9G26G23G17G28G 1G21
   -104224.11044    -81212.99244  24454143.2844   24454147.2644
    251668.28744    196113.78344  24095394.9554   24095396.2204
 -23563250.83344 -18360954.87044  20812541.3604   20812542.5354
 -21069173.09944 -16417522.40344  21053780.6844   21053781.9154
 -14445864.838 4 -11256514.535 4  21825389.343    21825388.372
 -13318023.51044 -10377670.56144  22645753.9994   22645756.6124
 -18977058.56544 -14787307.08744  21366636.0244   21366638.2034
 95  5 31  3 38 30.0000000  0  7G 9G26G23G17G28G 1G21
   -155934.75044   -121507.08644  24444304.0454   24444304.5054
    345403.20044    269153.94044  24113231.9334   24113233.1014
 -23539025.98344 -18342078.34544  20817151.1664   20817152.2324
 -21032227.37244 -16388733.52144  21060810.7964   21060812.3204
 -14503420.497 4 -11301363.093 4  21814437.011    21814436.122
 -13418330.83844 -10455832.05844  22626666.1404   22626667.9204
 -19016735.59044 -14818224.23944  21359085.9374   21359087.6774
 95  5 31  3 39  0.0000000  0  7G 9G26G23G17G28G 1G21
   -207360.59944   -161579.19844  24434518.2104   24434520.5634
    439405.50944    342402.50644  24131119.4634   24131120.2984
 -23514535.72044 -18322995.01044  20821811.6104   20821813.0094
 -20994966.01144 -16359698.69644  21067901.6824   21067902.9324
 -14560451.588 4 -11345802.892 4  21803584.491    21803583.493
 -13518400.23444 -10533808.15344  22607623.4664   22607626.4334
 -19056142.02344 -14848930.52444  21351587.2384   21351589.2024
 95  5 31  3 39 30.0000000  0  7G 9G26G23G17G28G 1G21
   -258548.41644   -201465.81144  24424777.1564   24424779.9444
    533626.89544    415821.74744  24149049.3934   24149048.8064
 -23489823.91144 -18303739.04944  20826513.8614   20826515.5534
 -20957405.60144 -16330430.84344  21075049.0654   21075050.5074
 -14616987.361 4 -11389856.724 4  21792826.038    21792824.882
 -13618263.54044 -10611623.66644  22588620.0064   22588622.8494
 -19095318.11944 -14879457.32944  21344131.9244   21344134.0674
 95  5 31  3 40  0.0000000  0  7G 9G26G23G17G28G 1G21
   -309484.76244   -241156.45844  24415084.9814   24415086.3654
    628076.51944    489418.87944  24167023.1474   24167022.1224
 -23464885.53644 -18284306.54744  20831259.6034   20831260.9024
 -20919520.97244 -16300910.34044  21082258.2634   21082259.7354
 -14673008.913 4 -11433509.878 4  21782165.534    21782164.544
 -13717918.35044 -10689276.69844  22569656.2444   22569658.7534
 -19134250.00044 -14909793.84544  21336723.4884   21336725.1504
 95  5 31  3 40 30.0000000  0  7G 9G26G23G17G28G 1G21
   -360174.82344   -280655.20644  24405438.2664   24405438.8044
    722742.07944    563184.24444  24185037.4644   24185037.0594
 -23439743.73844 -18264715.52344  20836043.9674   20836045.1154
 -20881331.84744 -16271152.58344  21089525.6024   21089526.8434
 -14728525.104 4 -11476769.235 4  21771601.259    21771599.908
 -13817352.91744 -10766758.11844  22550734.2484   22550737.0694
 -19172955.67444 -14939954.08744  21329358.3914   21329360.0374
 95  5 31  3 41  0.0000000  0  7G 9G26G23G17G28G 1G21
   -410584.80644   -319935.63744  24395845.2134   24395848.4224
    817663.88244    637149.26144  24203100.3894   24203101.7454
 -23414373.36344 -18244946.38744  20840871.8394   20840873.1744
 -20842811.21144 -16241136.51044  21096855.8564   21096857.1424
 -14783497.433 4 -11519604.809 4  21761140.142    21761139.135
 -13916507.83344 -10844021.62444  22531865.7594   22531868.0834
 -19211388.75644 -14969901.92544  21322044.6884   21322046.3174
 95  5 31  3 41 30.0000000  0  7G 9G26G23G17G28G 1G21
   -460704.44344   -358989.85844  24386308.3804   24386305.1804
    912845.64144    711316.86044  24221212.8664   24221215.3094
 -23388778.13044 -18225002.04144  20845742.2704   20845743.8314
 -20803969.73844 -16210870.42844  21104246.8814   21104248.4134
 -14837924.003 4 -11562015.114 4  21750783.013    21750781.941
 -14015375.69244 -10921061.44844  22513051.7414   22513054.3834
 -19249547.93444 -14999636.32344  21314783.2554   21314784.9404
 95  5 31  3 42  0.0000000  0  7G 9G26G23G17G28G 1G21
   -510490.49244   -397784.16144  24376834.3774   24376835.1544
   1008344.29344    785731.38444  24239386.1704   24239388.1374
 -23362923.01144 -18204855.19844  20850662.5544   20850663.9474
 -20764797.04044 -16180346.24544  21111701.5384   21111702.5064
 -14891770.811 4 -11603973.656 4  21740536.196    21740535.663
 -14113918.09244 -10997847.67044  22494300.0854   22494302.6994
 -19287402.00044 -15029132.97044  21307579.6904   21307581.2974
 95  5 31  3 42 30.0000000  0  7G 9G26G23G17G28G 1G21
   -560121.56644   -436457.68344  24367389.5474   24367390.0164
   1103974.45144    860248.36344  24257584.2744   24257585.3374
 -23336979.91444 -18184639.79444  20855599.3664   20855600.2754
 -20725480.39344 -16149709.89944  21119183.0074   21119184.1614
 -14945219.822 4 -11645622.228 4  21730365.335    21730364.509
 -14212303.12644 -11074511.28344  22475578.2904   22475580.0594
 -19325128.73244 -15058530.40144  21300400.7294   21300402.3204
 95  5 31  3 43  0.0000000  0  7G 9G26G23G17G28G 1G21
   -609511.94544   -474943.64444  24357991.3054   24357994.7134
   1199815.16044    934929.40244  24275821.2104   24275821.3974
 -23310854.09544 -18164282.00244  20860570.7254   20860571.7494
 -20685915.30244 -16118879.96244  21126711.9614   21126713.3954
 -14998185.942 4 -11686894.515 4  21720286.246    21720285.209
 -14310462.24544 -11150998.85844  22456898.5314   22456900.5014
 -19362635.96944 -15087756.80944  21293263.5634   21293264.9664
 95  5 31  3 43 30.0000000  0  7G 9G26G23G17G28G 1G21
   -658545.92744   -513151.89144  24348660.2644   24348661.0184
   1295950.60344   1009840.10244  24294114.2514   24294116.4194
 -23284449.24944 -18143706.78144  20865595.6054   20865596.7744
 -20645994.21044 -16087772.62144  21134308.8604   21134309.9944
 -15050569.059 4 -11727712.522 4  21710318.009    21710316.702
 -14408301.35944 -11227237.07344  22438280.6424   22438282.9244
 -19399838.44844 -15116745.73744  21286183.9304   21286185.5334
 95  5 31  3 44  0.0000000  0  7G 9G26G23G17G28G 1G21
   -707277.53744   -551124.52744  24339387.0044   24339387.8704
   1392325.69544   1084937.57644  24312454.1144   24312455.1434
 -23257803.35144 -18122943.73744  20870665.8284   20870667.1874
 -20605754.35844 -16056416.89144  21141966.1644   21141967.5374
 -15102419.367 4 -11768115.343 4  21700451.350    21700450.040
 -14505867.42444 -11303262.52944  22419714.7794   22419717.0954
 -19436788.72244 -15145538.14644  21279152.2444   21279153.8834
 95  5 31  3 44 30.0000000  0  7G 9G26G23G17G28G 1G21
   -755709.04744   -588863.35644  24330169.6994   24330169.1724
   1488910.33044   1160198.31244  24330833.9924   24330832.9974
 -23230917.36644 -18101993.61044  20875782.2864   20875783.7504
 -20565193.75144 -16024811.22844  21149684.5154   21149685.7074
 -15153741.398 4 -11808106.525 4  21690685.018    21690683.845
 -14603171.14144 -11379083.57444  22401197.5664   22401200.5444
 -19473492.73544 -15174138.65644  21272168.0034   21272169.1064
 95  5 31  3 45  0.0000000  0  7G 9G26G23G17G28G 1G21
   -803779.45944   -626320.75844  24321022.8364   24321025.3624
   1585751.28944   1235658.73544  24349261.2074   24349261.7904
 -23203745.94744 -18080821.07344  20880952.5004   20880953.9384
 -20524261.82944 -15992916.23744  21157473.5644   21157475.1384
 -15204475.669 4 -11847639.715 4  21681030.604    21681029.429
 -14700160.51444 -11454659.64844  22382740.9524   22382743.6574
 -19509912.01244 -15202517.29044  21265237.6864   21265239.0114
 95  5 31  3 45 30.0000000  0  7G 9G26G23G17G28G 1G21
   -851514.98444   -663517.18444  24311939.2224   24311940.5124
   1682802.44144   1311282.98144  24367730.1514   24367731.0684
 -23176335.19844 -18059462.04244  20886168.9894   20886170.1214
 -20483014.92444 -15960775.79444  21165322.5074   21165324.0804
 -15254657.074 4 -11886742.102 4  21671481.599    21671480.365
 -14796865.41944 -11530014.07744  22364339.0674   22364341.4734
 -19546094.10144 -15230711.09844  21258352.0784   21258353.8694
 95  5 31  3 46  0.0000000  0  7G 9G26G23G17G28G 1G21
   -899012.00144   -700527.73844  24302900.7074   24302901.1114
   1779965.68444   1386994.58544  24386220.0734   24386220.6994
 -23148778.82744 -18037989.53344  20891412.4834   20891413.8064
 -20441550.27044 -15928465.66844  21173213.1414   21173214.6824
 -15304380.687 4 -11925487.763 4  21662019.527    21662018.065
 -14893383.64444 -11605223.04144  22345971.9934   22345974.5284
 -19582123.36544 -15258785.82244  21251495.8004   21251497.5414
 95  5 31  3 46 30.0000000  0  7G 9G26G23G17G28G 1G21
   -946179.65444   -737281.67644  24293924.7154   24293928.1704
   1877315.12344   1462851.26444  24404745.1044   24404744.3914
 -23121009.98544 -18016351.46544  20896696.9054   20896698.0934
 -20399786.38244 -15895922.39644  21181160.6144   21181161.8104
 -15353558.926 4 -11963808.454 4  21652660.856    21652659.969
 -14989636.63344 -11680225.32744  22327656.0394   22327658.6304
 -19617913.95044 -15286674.55544  21244685.1654   21244686.9154
 95  5 31  3 47  0.0000000  0  8G 9G26G23G31G17G28G 1G21
   -992986.80244   -773754.68544  24285017.0624   24285019.0384
   1974886.56244   1538880.98344  24423312.6974   24423312.3464
 -23093006.12544 -17994530.26844  20902025.8244   20902027.0964
        -0.31754        -5.16854  24845109.8234   24845111.6984
 -20357678.30544 -15863110.90744  21189173.5294   21189174.5784
 -15402154.237 4 -12001674.920 4  21643413.236    21643412.658
 -15085591.60944 -11754995.40444  22309396.3494   22309398.6514
 -19653427.34144 -15314347.30044  21237927.1794   21237929.0704
 95  5 31  3 47 30.0000000  0  8G 9G26G23G31G17G28G 1G21
  -1039491.98644   -809992.37344  24276168.3804   24276169.5554
   2072637.44944   1615050.46844  24441914.0514   24441914.4274
 -23064821.39044 -17972568.13544  20907389.3354   20907390.6274
    -95836.26644    -74689.70844  24826872.1944   24826874.6054
 -20315265.35444 -15830061.84844  21197244.5494   21197245.8584
 -15450217.757 4 -12039127.003 4  21634267.165    21634266.544
 -15181293.81944 -11829568.50944  22291185.1584   22291187.4194
 -19688703.59544 -15341835.27044  21231214.2274   21231216.2484
 95  5 31  3 48  0.0000000  0  7G 9G26G23G17G28G 1G21
  -1085713.29344                  24267371.5934
   2170568.05944   1691360.01344  24460549.0464   24460551.5554
 -23036466.81044 -17950473.65344  20912784.9514   20912786.1744
 -20272538.75244 -15796768.38944  21205375.2854   21205376.3584
 -15497749.584 4 -12076164.770 4  21625222.515    21625221.456
 -15276731.76144 -11903935.69144  22273023.8014   22273025.9014
 -19723745.79444 -15369140.86544  21224545.8624   21224547.6464
 95  5 31  3 48 30.0000000  0  7G 9G26G23G17G28G 1G21
  -1131624.26744   -881783.39544  24258635.7764   24258636.7394
   2268714.02644   1767837.38444  24479225.5914   24479227.0844
 -23007920.27644 -17928229.58644  20918217.0544   20918218.1374
 -20229470.44744 -15763208.64944  21213570.5664   21213572.0024
 -15544715.867 4 -12112761.860 4  21616284.986    21616283.687
 -15371865.01944 -11978065.44944  22254920.1864   22254922.8634
 -19758531.54244 -15396246.63144  21217926.5994   21217928.3424
 95  5 31  3 49  0.0000000  0  8G 9G26G23G31G17G28G 1G21
  -1177186.92044   -917286.63044  24249965.7864
   2367102.72344   1844503.87144  24497948.1834   24497948.6914
 -22979164.54744 -17905822.51144  20923689.1284   20923690.3964
        -1.19354                  24772424.9934
 -20186035.14944 -15729362.96044  21221836.1424   21221837.5054
 -15591092.582 4 -12148899.541 4  21607459.730    21607458.420
 -15466651.94544 -12051925.34144  22236882.6914   22236885.4734
 -19793033.99444 -15423131.63644  21211361.0834   21211362.6384
 95  5 31  3 49 30.0000000  0  8G 9G26G23G31G17G28G 1G21
  -1222418.72344                  24241358.0324
   2465705.04444   1921336.81044  24516712.5624   24516715.4464
 -22950222.98544 -17883270.63244  20929196.4814   20929197.8124
    -94850.24644                  24754376.4314
 -20142275.12844 -15695264.23944  21230163.3364   21230164.6284
 -15636909.289 4 -12184600.843 4  21598741.209    21598740.021
 -15561106.67144 -12125526.38044  22218908.1494   22218910.6384
 -19827281.15344 -15449817.71744  21204844.0714   21204845.7574
 95  5 31  3 50  0.0000000  0  8G 9G26G23G31G17G28G 1G21
  -1267329.81044   -987523.87644  24232810.5844   24232812.2964
   2564481.32744   1998305.31544  24535508.9224   24535510.8784
 -22921122.42744 -17860594.86044  20934734.1424   20934735.4074
   -189478.32644                  24736368.2694
 -20098226.27644 -15660940.45144  21238545.4964   21238546.9134
 -15682192.983 4 -12219886.824 4  21590123.845    21590122.820
 -15655268.76044 -12198899.38144  22200989.9744   22200992.7584
 -19861293.47544 -15476320.81044  21198371.5684   21198373.1684
 95  5 31  3 50 30.0000000  0  8G 9G26G23G31G17G28G 1G21
  -1311903.81144  -1022245.15844  24224328.8724   24224329.2434
   2663428.62644   2075407.07944  24554338.4824   24554339.7824
 -22891842.06444 -17837778.97544  20940306.0404   20940307.1364
   -283871.50744   -221199.70544  24718405.5854
 -20053889.19044 -15626392.05844  21246982.9834   21246984.0054
 -15726938.400 4 -12254753.369 4  21581609.050    21581608.260
 -15749154.59844 -12272057.12344  22183123.7314   22183126.7924
 -19895059.05844 -15502631.63944  21191945.9884   21191947.6844
 95  5 31  3 51  0.0000000  0  8G 9G26G23G31G17G28G 1G21
  -1356108.77144  -1056693.74444  24215916.5314   24215916.9654
   2762569.06244   2152659.33044  24573203.7254   24573204.9974
 -22862337.95144 -17814788.73544  20945920.5184   20945921.7274
   -378006.35144   -294551.52544  24700492.9424
 -20009239.17444 -15591599.81844  21255479.2364   21255480.5474
 -15771115.498 4 -12289177.062 4  21573202.363    21573201.505
 -15842741.82644 -12344982.18044  22165314.7134   22165317.5854
 -19928552.07444 -15528730.07744  21185572.6184   21185574.2004
 95  5 31  3 51 30.0000000  0  8G 9G26G23G31G17G28G 1G21
  -1399984.32144  -1090889.33544  24207567.5514   24207569.9084
   2861890.90244   2230052.97544  24592104.2884   24592105.0304
 -22832610.10344 -17791624.15844  20951577.4554   20951578.6124
   -471899.88344                  24682622.1374
 -19964305.49744 -15556586.54344  21264029.7634   21264031.5464
 -15814741.082 4 -12323171.006 4  21564900.444    21564899.723
 -15936062.60044 -12417699.61544  22147556.8204   22147559.3054
 -19961803.41944 -15554640.19744  21179245.2324   21179246.9784
 95  5 31  3 52  0.0000000  0  8G 9G26G23G31G17G28G 1G21
  -1443544.15944  -1124832.04344  24199278.7414   24199279.5254
   2961391.41944   2307585.80144  24611038.3734   24611041.7984
 -22802658.58544 -17768285.29444  20957277.1424   20957278.3724
   -565545.97944                  24664803.0624
 -19919090.73244 -15521354.24544  21272634.0524   21272635.1484
 -15857812.925 4 -12356733.462 4  21556704.273    21556703.496
 -16029123.11944 -12490214.24544  22129847.7234   22129849.6654
 -19994826.91944 -15580372.77944  21172961.0164   21172962.5634
 95  5 31  3 52 30.0000000  0  8G 9G26G23G31G17G28G 1G21
  -1486813.20244  -1158548.07644  24191044.8894   24191043.9214
   3061071.09244   2385258.23444  24630007.0304   24630005.6004
 -22772484.67644 -17744773.14244  20963018.8714   20963020.0364
   -658944.34444   -513464.19944  24647030.9684   24647035.7794
 -19873594.28344 -15485902.45544  21281291.5824   21281292.7744
 -15900332.909 4 -12389865.894 4  21548613.028    21548612.353
 -16121910.08844 -12562515.73044  22112191.1394   22112192.6214
 -20027648.05744 -15605947.67544  21166715.4764   21166717.0154
 95  5 31  3 53  0.0000000  0  8G 9G26G23G31G17G28G 1G21
  -1529739.42744                  24182875.7434
   3160978.14244   2463107.86744  24649018.6164   24649017.4384
 -22742066.40944 -17721070.58344  20968807.5814   20968808.5064
   -752040.99344   -586007.04944  24629314.7804   24629317.9554
 -19827764.72644 -15450191.09044  21290012.4274   21290013.7734
 -15942256.591 4 -12422533.671 4  21540635.227    21540634.316
 -16214361.66744 -12634555.87644  22094598.1984   22094600.0024
 -20060234.07844 -15631339.36644  21160514.5614   21160516.0274
 95  5 31  3 53 30.0000000  0  8G 9G26G23G31G17G28G 1G21
  -1572333.12044  -1225186.72744  24174771.1344   24174771.6214
   3261085.93144   2541113.93144  24668068.1724   24668069.0124
 -22711438.35444 -17697204.55444  20974635.7334   20974636.5824
   -844848.22044   -658324.29144  24611656.6844
 -19781609.17844 -15414225.72444  21298795.9074   21298797.0274
 -15983600.522 4 -12454749.695 4  21532767.724    21532766.881
 -16306484.64544 -12706339.95644  22077067.3484   22077069.2534
 -20092599.17344 -15656558.90444  21154355.6344   21154356.8324
 95  5 31  3 54  0.0000000  0  8G 9G26G23G31G17G28G 1G21
  -1614615.85444  -1258134.20944  24166724.4374   24166726.0294
   3361333.57044   2619228.94644  24687144.8814   24687144.2804
 -22680653.37444 -17673216.25344  20980493.9804   20980495.1154
   -937407.92244                  24594039.5494
 -19735148.39244 -15378022.50744  21307636.9074   21307638.4554
 -16024402.797 4 -12486543.650 4  21525003.224    21525002.433
 -16398307.35044 -12777890.06344  22059594.1654   22059595.8464
 -20124774.47744 -15681630.54944  21148232.7214   21148234.3404
 95  5 31  3 54 30.0000000  0  8G 9G26G23G31G17G28G 1G21
  -1656560.04544  -1290817.87144  24158741.8434   24158745.0564
   3461719.46044   2697451.72744  24706247.7564   24706250.8584
 -22649723.54644 -17649115.07544  20986379.4584   20986381.0324
  -1029709.78344   -802372.13244  24576476.1124
 -19688367.07444 -15341569.51244  21316539.3404   21316540.5154
 -16064656.351 4 -12517910.025 4  21517343.401    21517342.449
 -16489820.20844 -12849198.72244  22042179.8554   22042181.9484
 -20156741.87144 -15706540.17844  21142149.2234   21142151.2244
 95  5 31  3 55  0.0000000  0  8G 9G26G23G31G17G28G 1G21
  -1698093.90144  -1323181.80944  24150838.1524   24150840.9544
   3562270.43644   2775803.13744  24725381.1874   24725383.0974
 -22618611.83144 -17624872.16144  20992299.8454   20992301.2554
  -1121702.47944   -874054.67044  24558972.0384   24558975.6334
 -19641221.25044 -15304832.49144  21325510.7114   21325511.7844
 -16104313.345 4 -12548811.555 4  21509797.056    21509795.783
 -16580977.73644 -12920230.50044  22024833.0854   22024834.9574
 -20188437.18244 -15731237.79544  21136117.9144   21136119.7034
 95  5 31  3 55 30.0000000  0  8G 9G26G23G31G17G28G 1G21
  -1739252.73544  -1355253.55344  24143006.6074   24143009.6674
   3662959.22144   2854261.91944  24744542.3374   24744542.9864
 -22587332.63144 -17600498.74044  20998252.0704   20998253.2044
  -1213418.31444   -945521.49344  24541516.9814   24541517.7024
 -19593740.56944 -15267834.56244  21334546.0474   21334547.1404
 -16143394.629 4 -12579264.479 4  21502359.907    21502358.839
 -16671806.23844 -12991005.89944  22007548.4734   22007550.9034
 -20219867.82844 -15755729.16644  21130137.2404   21130138.6844
 95  5 31  3 56  0.0000000  0  8G 9G26G23G31G17G28G 1G21
  -1780057.25844  -1387049.19344  24135241.4084   24135243.0394
   3763778.80344   2932822.66344  24763726.6204   24763726.4434
 -22555912.49944 -17576015.50444  21004231.1754   21004232.3564
  -1304877.19044  -1016788.18344  24524114.7844
 -19545957.27644 -15230600.81744  21343638.8354   21343640.1574
 -16181919.697 4 -12609283.996 4  21495028.556    21495027.710
 -16762335.94044 -13061548.45644  21990321.5354   21990323.7684
 -20251049.73744 -15780026.71544  21124203.3654   21124204.9054
 95  5 31  3 56 30.0000000  0  8G 9G26G23G31G17G28G 1G21
  -1820477.50644  -1418545.43444  24127550.1204   24127552.1354
   3864772.92944   3011519.38144  24782945.9124   24782949.3694
 -22524322.10944 -17551399.58844  21010242.6574   21010243.6204
  -1396041.82944                  24506765.4134
 -19497863.65444 -15193125.25744  21352790.6384   21352791.8594
 -16219857.754 4 -12638846.100 4  21487809.234    21487808.472
 -16852532.82244 -13131831.67944  21973157.9954   21973159.8234
 -20281959.81744 -15804112.46144  21118321.1724   21118322.8914
 95  5 31  3 57  0.0000000  0  8G 9G26G23G31G17G28G 1G21
  -1860503.13544  -1449734.11644  24119933.2664   24119933.4094
   3965973.09444   3090376.63144  24802204.2884   24802209.9464
 -22492520.15144 -17526618.81444  21016294.2224   21016295.4674
  -1486879.58544                  24489480.6614
 -19449441.87744 -15155393.98544  21362005.1544   21362006.0604
 -16257186.540 4 -12667933.453 4  21480705.792    21480705.055
 -16942370.48944 -13201834.99144  21956062.1304   21956063.7614
 -20312582.54344 -15827974.30544  21112493.8054   21112495.4344
 95  5 31  3 57 30.0000000  0  8G 9G26G23G31G17G28G 1G21
  -1900152.78744  -1480629.79944  24112387.7654   24112390.2004
   4067378.11144   3169393.52344  24821501.1084   24821502.3904
 -22460509.51844 -17501675.43444  21022385.7554   21022387.0384
  -1577407.36944                  24472257.1204
 -19400709.28844 -15117420.52944  21371278.6164   21371279.6384
 -16293921.584 4 -12696558.148 4  21473715.305    21473714.470
 -17031861.70644 -13271568.34344  21939032.6984   21939034.6314
 -20342944.30944 -15851632.81144  21106716.2514   21106717.7644
 95  5 31  3 58  0.0000000  0  8G 9G26G23G31G17G28G 1G21
  -1939462.06944  -1511260.31544  24104907.7134   24104908.0264
   4168917.07844   3248514.88144  24840821.5884   24840820.3434
 -22428337.36344 -17476606.22744  21028508.0214   21028509.1194
  -1667664.84344                  24455079.4814
 -19351719.01744 -15079246.27044  21380600.8644   21380602.2674
 -16330113.374 4 -12724759.526 4  21466828.392    21466827.292
 -17121049.90644 -13341065.57644  21922060.1844   21922062.5864
 -20373111.85344 -15875139.98244  21100975.5184   21100977.1784
 95  5 31  3 58 30.0000000  0  8G 9G26G23G31G17G28G 1G21
  -1978457.93144  -1541646.63644  24097487.1704   24097487.0204
   4270536.75444   3327699.04044  24860161.1624   24860161.7194
 -22396017.81644 -17451422.16144  21034658.2834   21034659.2104
  -1757670.18844                  24437955.5274
 -19302486.10244 -15040882.95644  21389969.5924   21389970.9254
 -16365788.452 4 -12752558.275 4  21460039.583    21460038.588
 -17209940.81344 -13410331.15244  21905145.1394   21905147.5284
 -20403126.83944 -15898528.28044  21095263.9304   21095265.6694
 95  5 31  3 59  0.0000000  0  8G 9G26G23G31G17G28G 1G21
  -2017043.01644  -1571712.87844  24090144.3154   24090144.5224
   4372321.82744   3407012.14944  24879529.3254   24879531.0304
 -22363446.03144 -17426041.52944  21040856.3314   21040857.5474
  -1847321.69544                  24420893.6034
 -19252890.93944 -15002237.35844  21399407.2774   21399408.6064
 -16400843.253 4 -12779873.695 4  21453368.809    21453368.004
 -17298437.80044 -13479289.78044  21888304.4604   21888306.3614
 -20432881.08444 -15921713.39244  21089601.7554   21089603.5424
 95  5 31  3 59 30.0000000  0  8G 9G26G23G31G17G28G 1G21
  -2055240.66244  -1601477.18544  24082874.9474   24082878.1094
   4474219.31344   3486412.86144  24898920.8664   24898922.7104
 -22330672.70344 -17400503.85444  21047092.9014   21047094.1844
  -1936667.83444                  24403888.5984
 -19202972.04344 -14963339.50044  21408906.8504   21408907.7344
 -16435312.014 4 -12806732.458 4  21446809.875    21446808.947
 -17386572.25044 -13547965.91244  21871533.1394   21871535.0714
 -20462412.47144 -15944724.85044  21083982.1914   21083983.8274
 95  5 31  4  0  0.0000000  0  7G 9G26G23G17G28G 1G21
  -2093120.29244  -1630993.72944  24075666.8734   24075668.5404
   4576165.70844   3565851.71244  24918319.1734   24918320.1204
 -22297774.41044 -17374868.81744  21053353.3074   21053354.4794
 -19152789.73544 -14924236.39644  21418456.0454   21418456.8184
 -16469255.531 4 -12833181.941 4  21440350.572    21440349.528
 -17474403.87344 -13616406.07744  21854819.5354   21854821.2514
 -20491779.16444 -15967607.97644  21078393.5304   21078395.3604
 95  5 31  4  0 30.0000000  0  7G 9G26G23G17G28G 1G21
  -2130600.58344  -1660199.07944  24068534.8404   24068536.2384
   4678269.00344   3645412.77444  24937748.8164   24937750.6414
 -22264667.97444 -17349071.59344  21059653.2004   21059654.3144
 -19102256.39344 -14884859.75744  21428072.1384   21428073.6564
 -16502586.117 4 -12859153.814 4  21434008.152    21434006.846
 -17561856.77544 -13684551.13844  21838177.3264   21838179.2364
 -20520883.63544 -15990286.76344  21072855.2604   21072856.8354
 95  5 31  4  1  0.0000000  0  7G 9G26G23G17G28G 1G21
  -2167679.04244  -1689091.29944  24061479.0824   24061479.3974
   4780543.24344   3725107.03644  24957212.8564   24957216.6674
 -22231373.36444 -17323127.74744  21065988.8434   21065989.9204
 -19051380.39744 -14845216.11944  21437753.3474   21437754.5354
 -16535308.091 4 -12884651.436 4  21427781.000    21427780.243
 -17648965.11044 -13752427.70944  21821601.4394   21821603.2644
 -20549715.81244 -16012753.36444  21067368.7364   21067370.2934
 95  5 31  4  1 30.0000000  0  8G 9G26G23G31G17G28G 1G21
  -2204357.84844  -1717672.11344  24054499.3494   24054499.6304
   4882973.75344   3804923.00544  24976703.6334   24976706.0014
 -22197908.92444 -17297051.56744  21072357.0284   21072358.1944
        -1.12954                  24336425.1374
 -19000187.10444 -14805325.23144  21447495.1454   21447496.2664
 -16567434.009 4 -12909684.610 4  21421667.276    21421666.876
 -17735742.46244 -13820046.37144  21805088.0654   21805089.7994
 -20578295.08344 -16035022.89444  21061930.3274   21061931.9034
 95  5 31  4  2  0.0000000  0  7G 9G26G23G17G28G 1G21
  -2240602.89144  -1745914.95744  24047601.8864   24047601.9754
   4985601.36144   3884892.74644  24996232.4644
 -22164230.40244 -17270808.56944  21078765.7324   21078766.9534
 -18948628.39444 -14765149.59444  21457306.6714   21457307.7694
 -16598921.895 4 -12934220.616 4  21415675.690    21415674.898
 -17822161.33544 -13887385.69544  21788642.9874   21788644.4994
 -20606585.98444 -16057067.74044  21056546.7664   21056548.4194
 95  5 31  4  2 30.0000000  0  7G 9G26G23G17G28G 1G21
  -2276478.31744  -1773869.74844  24040774.7314   24040776.2324
   5088340.21044                  25015783.6634
 -22130417.35244 -17244460.73244  21085199.9204   21085201.1714
 -18896773.07644 -14724742.85844  21467174.2984   21467175.4504
 -16629842.757 4 -12958314.786 4  21409791.624    21409790.804
 -17908298.83444 -13954505.77444  21772251.5704   21772253.2824
 -20634667.24344 -16078949.22944  21051203.3054   21051204.8204
 95  5 31  4  3  0.0000000  0  7G 9G26G23G17G28G 1G21
  -2311978.46144  -1801532.07944  24034019.4334   24034020.9184
   5191180.35044   4045084.34244  25035353.2344
 -22096480.93444 -17218016.76544  21091657.9634   21091658.9974
 -18844618.54444 -14684102.95844  21477099.1074   21477099.8104
 -16660194.847 4 -12981965.760 4  21404015.817    21404015.158
 -17994130.55344 -14021387.57244  21755918.4654   21755919.9614
 -20662551.03044 -16100676.83944  21045897.0994   21045898.3544
 95  5 31  4  3 30.0000000  0  7G 9G26G23G17G28G 1G21
  -2347079.96544  -1828883.83144  24027339.7244   24027339.2704
   5294139.30744   4125312.05044  25054945.3304
 -22062380.79544 -17191445.21244  21098147.4114   21098148.1734
 -18792137.58644 -14643208.69444  21487086.1034   21487087.2014
 -16689947.284 4 -13005149.463 4  21398354.145    21398353.220
 -18079597.07044 -14087984.79044  21739654.3404   21739656.3134
 -20690226.77344 -16122242.33844  21040630.5734   21040631.9784
 95  5 31  4  4  0.0000000  0  7G 9G26G23G17G28G 1G21
  -2381780.58544  -1855923.20344  24020736.0684   24020737.3204
   5397233.38444   4205645.15644  25074564.0224   25074567.0184
 -22028109.84544 -17164740.55444  21104669.0284   21104669.9824
 -18739310.63544 -14602044.83344  21497138.3274   21497139.5074
 -16719093.860 4 -13027861.057 4  21392807.678    21392806.931
 -18164683.61044 -14154285.91344  21723462.9184   21723464.6934
 -20717676.68244 -16143631.85844  21035407.0624   21035408.5044
 95  5 31  4  4 30.0000000  0  7G 9G26G23G17G28G 1G21
  -2416111.76644  -1882674.70944  24014203.6294   24014205.1344
   5500427.42744                  25094200.5634
 -21993701.98344 -17137929.19644  21111216.2134   21111217.3274
 -18686183.92044 -14560647.37844  21507248.1654   21507249.7064
 -16747673.253 4 -13050130.689 4  21387369.249    21387368.312
 -18249407.33244 -14220304.31144  21707340.7034   21707342.4364
 -20744927.90744 -16164866.54944  21030221.0684   21030222.6434
 95  5 31  4  5  0.0000000  0  6G 9G23G17G28G 1G21
  -2450000.77144  -1909081.64344  24007754.4744   24007753.7334
 -21959074.83944 -17110946.97844  21117805.4994   21117806.4204
 -18632698.49344 -14518970.40844  21517426.0174   21517427.3014
 -16775617.124 4 -13071905.106 4  21382051.616    21382050.754
 -18333698.28944 -14285985.49044  21691300.3974   21691302.5074
 -20771912.87244 -16185893.78144  21025086.0364   21025087.5034
 95  5 31  4  5 30.0000000  0  7G 9G23G31G17G28G 1G21
  -2483571.27644  -1935240.36644  24001366.5154   24001368.2954
 -21924340.86344 -17083881.50944  21124415.0294   21124416.2324
        -0.32554                  24204459.4124
 -18578980.64944 -14477112.35544  21527648.0254   21527649.3684
 -16803047.833 4 -13093279.662 4  21376831.640    21376830.703
 -18417704.85344 -14351445.07744  21675314.2554   21675315.7894
 -20798745.88844 -16206802.61644  21019979.7144   21019981.3354
 95  5 31  4  6  0.0000000  0  7G 9G23G31G17G28G 1G21
  -2516800.87744  -1961133.45844  23995042.6114   23995043.1804
 -21889482.71244 -17056719.29644  21131048.3064   21131049.2944
    -85351.97044                  24188216.9544
 -18525016.18244 -14435062.11444  21537917.2144   21537918.4194
 -16829942.774 4 -13114236.747 4  21371713.745    21371713.025
 -18501419.85744 -14416677.46744  21659384.0154   21659385.6654
 -20825396.22744 -16227569.11444  21014908.3784   21014909.8974
 95  5 31  4  6 30.0000000  0  7G 9G23G31G17G28G 1G21
  -2549554.47744  -1986655.67644  23988809.3584   23988810.3674
 -21854366.38144 -17029355.90044  21137730.7734   21137731.9004
   -170304.38844                  24172051.1404
 -18470684.26044 -14392725.54044  21548256.2654   21548257.4974
 -16856156.645 4 -13134663.127 4  21366725.228    21366724.592
 -18584700.56344 -14481571.43544  21643536.0014   21643537.7884
 -20851744.70644 -16248100.37244  21009894.4944   21009895.8934
 95  5 31  4  7  0.0000000  0  7G 9G23G31G17G28G 1G21
  -2581886.39444  -2011849.29444  23982657.7704   23982657.4244
 -21819051.67644 -17001837.92344  21144450.8654   21144451.7254
   -254895.45844                  24155954.5444
 -18416038.25144 -14350144.23744  21558655.2594   21558656.4754
 -16881740.451 4 -13154598.549 4  21361856.823    21361856.208
 -18667614.01144 -14546179.23044  21627758.1024   21627759.9584
 -20877849.73944 -16268441.94144  21004926.9864   21004928.6144
 95  5 31  4  7 30.0000000  0  7G 9G23G31G17G28G 1G21
  -2613820.35244  -2036732.80544  23976579.6524   23976581.4604
 -21783561.59444 -16974183.29644  21151204.3844   21151205.6584
   -339135.96444                  24139922.8574
 -18361093.11844 -14307329.86844  21569110.5244   21569112.0214
 -16906713.099 4 -13174057.745 4  21357104.794    21357103.930
 -18750161.16644 -14610501.60744  21612049.7244   21612051.7014
 -20903720.44944 -16288600.91944  21000003.7984   21000005.6124
 95  5 31  4  8  0.0000000  0  8G 9G26G23G31G17G28G 1G21
  -2645301.50344  -2061263.50544  23970589.9484   23970590.5164
         0.00454                  25232241.4984
 -21747846.86144 -16946353.59344  21158000.7514   21158001.7674
   -422956.57144                  24123970.8884
 -18305788.49544 -14264235.35744  21579634.8184   21579636.0914
 -16931015.657 4 -13192994.780 4  21352480.174    21352479.157
 -18832253.30044 -14674469.43844  21596428.1004   21596429.7724
 -20929303.48344 -16308535.73244  20995135.3584   20995137.0814
 95  5 31  4  8 30.0000000  0  8G 9G26G23G31G17G28G 1G21
  -2676384.50944  -2085483.96144  23964674.9804   23964675.1914
    104052.32244                  25252040.9314   25252040.4874
 -21711977.07244 -16918403.06344  21164826.8124   21164827.8854
   -506419.04544                  24108086.8304
 -18250171.00744 -14220897.05344  21590218.3644   21590219.6114
 -16954713.783 4 -13211460.842 4  21347970.768    21347969.696
 -18913936.75244 -14738118.82844  21580884.6024   21580886.2544
 -20954661.51444 -16328295.21144  20990310.0554   20990311.4624
 95  5 31  4  9  0.0000000  0  8G 9G26G23G31G17G28G 1G21
  -2707051.99744  -2109380.58644  23958838.0814   23958839.5094
    208185.42644    162222.46344  25271855.7214
 -21675941.68044 -16890323.51544  21171683.9674   21171684.9224
   -589528.51344                  24092272.1224
 -18194213.25844 -14177293.59344  21600867.1644   21600867.8624
 -16977805.380 4 -13229454.282 4  21343576.465    21343575.615
 -18995211.18144 -14801449.51344  21565418.2654   21565419.7954
 -20979779.45444 -16347867.60244  20985530.3604   20985531.6204
 95  5 31  4  9 30.0000000  0  8G 9G26G23G31G17G28G 1G21
  -2737324.08444  -2132969.12344  23953077.9544   23953077.4414
    312402.77444                  25291688.2674
 -21639766.25944 -16862134.88144  21178567.5064   21178568.6294
   -672303.95544                  24076519.4764
 -18137918.02644 -14133427.16544  21611579.5754   21611580.6754
 -17000311.140 4 -13246991.247 4  21339293.554    21339292.899
 -19076084.65444 -14864467.76544  21550028.5244   21550029.8984
 -21004694.85144 -16367282.16544  20980789.0654   20980790.5644
 95  5 31  4 10  0.0000000  0  8G 9G26G23G31G17G28G 1G21
  -2767181.94444  -2156234.92644  23947396.0774   23947395.2164
    416730.67444                  25311542.6514
 -21603452.57944 -16833838.52544  21185477.6364   21185478.7724
   -754727.69844                  24060836.7014
 -18081269.73344 -14089285.61844  21622359.0604   21622360.6594
 -17022223.714 4 -13264065.986 4  21335123.834    21335123.227
 -19156570.32944 -14927183.82944  21534712.5314   21534714.0344
 -21029419.36944 -16386547.98744  20976084.2774   20976085.6144
 95  5 31  4 10 30.0000000  0  8G 9G26G23G31G17G28G 1G21
  -2796600.03444  -2179158.09644  23941798.3544   23941799.0124
    521179.15144    406113.93744  25331418.8524
 -21566999.74344 -16805433.73044  21192414.5934   21192415.4504
   -836799.24444   -652049.76044  24045220.4144   24045223.2534
 -18024265.46744 -14044866.68744  21633206.9244   21633208.2974
 -17043535.433 4 -13280672.525 4  21331068.158    21331067.465
 -19236678.25044 -14989605.54144  21519468.5094   21519470.0984
 -21053944.24344 -16405658.24844  20971417.2514   20971418.5824
 95  5 31  4 11  0.0000000  0  7G 9G23G31G17G28G 1G21
  -2825580.76744  -2201740.41044  23936283.1784   23936284.4904
 -21530404.61444 -16776918.04144  21199378.5124   21199379.3874
   -918505.84144   -715717.22944  24029673.3394   24029673.7594
 -17966919.41744 -14000181.43544  21644119.5084   21644120.7774
 -17064240.550 4 -13296806.396 4  21327128.310    21327127.664
 -19316418.04844 -15051740.40644  21504294.3474   21504295.6214
 -21078270.67444 -16424613.87144  20966787.9154   20966789.5484
 95  5 31  4 11 30.0000000  0  7G 9G23G31G17G28G 1G21
  -2854197.86044  -2224039.41344  23930837.7264   23930836.7574
 -21493752.47444 -16748357.92044  21206353.1674   21206353.9794
   -999916.01644   -779153.69844  24014181.4614   24014181.0154
 -17909330.14444 -13955306.66344  21655078.3474   21655079.3564
 -17084417.066 4 -13312528.359 4  21323288.883    21323287.790
 -19395858.39444 -15113641.94244  21489177.3574   21489178.6654
 -21102466.01944 -16443467.34544  20962183.7624   20962185.1354
 95  5 31  4 12  0.0000000  0  7G 9G23G31G17G28G 1G21
  -2882289.87644  -2245929.22744  23925491.8494   23925492.2754
 -21456880.52144 -16719626.51744  21213369.9474   21213370.7064
  -1080873.34744   -842237.32344  23998776.0324   23998776.0564
 -17851378.65744 -13910149.64144  21666105.7174   21666107.0334
 -17103906.734 4 -13327715.107 4  21319579.945    21319579.226
 -19474842.55244 -15175188.00744  21474147.2174   21474148.8784
 -21126341.53144 -16462071.60844  20957640.2474   20957641.5244
 95  5 31  4 12 30.0000000  0  7G 9G23G31G17G28G 1G21
  -2909891.70944  -2267437.13244  23920239.7204   23920239.7934
 -21419798.98644 -16690731.80344  21220426.1364   21220427.1924
  -1161409.40044   -904992.68544  23983450.3174   23983449.7654
 -17793101.69344 -13864739.02044  21677196.0474   21677197.1574
 -17122729.508 4 -13342382.193 4  21315998.254    21315997.523
 -19553378.50844 -15236384.83644  21459202.3834   21459203.9404
 -21149905.11444 -16480432.81244  20953156.2724   20953157.5954
 95  5 31  4 13  0.0000000  0  7G 9G23G31G17G28G 1G21
  -2937097.02844  -2288636.07344  23915062.0124   23915062.7854
 -21382578.60244 -16661728.89844  21227508.7314   21227509.9144
  -1241617.35044   -967492.37944  23968187.3194   23968187.6914
 -17734584.82844 -13819141.47644  21688331.0154   21688332.4334
 -17140973.440 4 -13356598.229 4  21312526.538    21312525.911
 -19631552.44244 -15297299.57244  21444326.5744   21444328.1024
 -21173246.25744 -16498620.69744  20948714.4154   20948715.9984
 95  5 31  4 13 30.0000000  0  7G 9G23G31G17G28G 1G21
  -2963956.01544  -2309565.09644  23909951.6724   23909951.9734
 -21345275.30944 -16632661.39444  21234607.4624   21234608.4934
  -1321558.36344  -1029784.05444  23952973.6664   23952974.8364
 -17675877.07544 -13773395.18744  21699503.0244   21699503.9914
 -17158696.525 4 -13370408.411 4  21309153.965    21309153.098
 -19709410.50144 -15357968.16144  21429510.0734   21429511.7884
 -21196423.27344 -16516680.68844  20944304.0604   20944305.6304
 95  5 31  4 14  0.0000000  0  7G 9G23G31G17G28G 1G21
  -2990321.26644  -2330109.42344  23904934.2014   23904933.9174
 -21307742.18444 -16603414.79944  21241750.0264   21241750.7614
  -1401082.03044  -1091750.48344  23937841.1884   23937841.8864
 -17616824.34444 -13727380.07444  21710740.2504   21710741.6024
 -17175749.628 4 -13383696.523 4  21305908.664    21305907.903
 -19786809.91344 -15418279.35444  21414781.8734   21414783.3854
 -21219301.92144 -16534508.18544  20939950.4404   20939951.8634
 95  5 31  4 14 30.0000000  0  7G 9G23G31G17G28G 1G21
  -3016226.55444  -2350295.29444  23900004.2094   23900003.2514
 -21270027.60144 -16574026.80944  21248926.8364   21248927.5594
  -1480220.44444  -1153416.77644  23922780.7524   23922780.8884
 -17557427.37844 -13681096.72044  21722043.2744   21722044.2704
 -17192168.684 4 -13396490.576 4  21302784.088    21302783.411
 -19863782.26144 -15478257.76244  21400134.4754   21400135.8964
 -21241941.90244 -16552149.71644  20935642.2144   20935643.7694
 95  5 31  4 15  0.0000000  0  7G 9G23G31G17G28G 1G21
  -3041674.91644  -2370125.13344  23895161.5484   23895163.0124
 -21232178.00144 -16544533.61244  21256129.2854   21256130.3454
  -1558989.78444  -1214795.43444  23907791.2344   23907794.4224
 -17497702.33044 -13634557.72644  21733408.6824   21733409.7834
 -17207980.117 4 -13408811.155 4  21299775.528    21299774.781
 -19940356.68644 -15537926.09844  21385562.6494   21385564.2264
 -21264369.18744 -16569625.51944  20931374.4044   20931375.8964
 95  5 31  4 15 30.0000000  0  7G 9G23G31G17G28G 1G21
  -3066753.98144  -2389667.20344  23890389.4784   23890390.1134
 -21194306.36044 -16515023.23944  21263336.0704   21263337.0754
  -1637458.35244  -1275939.75144  23892860.7144   23892862.1374
 -17437733.70544 -13587828.92844  21744820.4334   21744821.4564
 -17223264.261 4 -13420720.863 4  21296866.981    21296866.287
 -20016603.77344 -15597339.36744  21371053.3244   21371055.0054
 -21286667.45544 -16587000.78444  20927131.1464   20927132.5954
 95  5 31  4 16  0.0000000  0  7G 9G23G31G17G28G 1G21
  -3091328.30344  -2408816.00544  23885713.3284   23885714.9924
 -21156266.34244 -16485381.65644  21270574.5874   21270575.3654
  -1715485.38544  -1336739.97944  23878011.3574   23878013.0104
 -17377385.50044 -13540804.33744  21756303.7404   21756305.1664
 -17237874.457 4 -13432105.416 4  21294086.815    21294085.983
 -20092383.19144 -15656388.22744  21356633.0594   21356634.5484
 -21308694.28644 -16604164.52044  20922939.7704   20922941.3594
 95  5 31  4 16 30.0000000  0  7G 9G23G31G17G28G 1G21
  -3115414.50744  -2427584.46144  23881129.2514   23881129.9524
 -21118059.09744 -16455609.76044  21277845.2944   21277846.2784
  -1793091.64144  -1397212.33244  23863242.2244   23863245.2824
 -17316667.28144 -13493491.42244  21767858.3734   21767859.4234
 -17251824.986 4 -13442975.933 4  21291432.070    21291431.233
 -20167712.84244 -15715086.62344  21342298.2224   21342299.8154
 -21330467.17344 -16621130.37144  20918796.1414   20918797.4694
 95  5 31  4 17  0.0000000  0  7G 9G23G31G17G28G 1G21
  -3139069.31844  -2446016.75344  23876627.8994   23876629.2764
 -21079717.11544 -16425732.86544  21285141.5394   21285142.3094
  -1870321.45344  -1457391.35444  23848546.0134   23848548.3544
 -17255653.90844 -13445948.51544  21779468.4434   21779469.7904
 -17265169.566 4 -13453374.280 4  21288892.678    21288892.128
 -20242659.73644 -15773486.78244  21328036.1934   21328037.5074
 -21352035.72544 -16637937.00944  20914691.9654   20914693.3964
 95  5 31  4 17 30.0000000  0  7G 9G23G31G17G28G 1G21
  -3162311.95244  -2464127.88944  23872205.1504   23872205.9744
 -21041215.59644 -16395731.65244  21292467.8404   21292468.6634
  -1947175.75644  -1517277.79044  23833922.3164   23833927.2624
 -17194353.14644 -13398181.65344  21791134.0504   21791134.8304
 -17277913.617 4 -13463304.684 4  21286467.504    21286466.894
 -20317221.93344 -15831587.18544  21313847.5124   21313848.8764
 -21373419.41144 -16654599.61144  20910622.7714   20910623.9154
 95  5 31  4 18  0.0000000  0  7G 9G23G31G17G28G 1G21
  -3185191.81944  -2481956.32244  23867850.4984   23867848.8644
 -21002587.17944 -16365631.56744  21299818.4904   21299819.9234
  -2023720.84344  -1576923.26644  23819355.6864   23819359.2374
 -17132820.96744 -13350234.50144  21802843.0884   21802844.2294
 -17290122.613 4 -13472818.171 4  21284144.164    21284143.486
 -20391472.70344 -15889444.92444  21299717.8804   21299719.4114
 -21394682.82044 -16671168.48444  20906576.6194   20906577.7344
 95  5 31  4 18 30.0000000  0  7G 9G23G31G17G28G 1G21
  -3207534.02044  -2499365.80144  23863599.6344   23863599.1864
 -20963681.43144 -16335315.38444  21307222.0744   21307223.0154
  -2099771.22244  -1636183.28644  23804883.5454   23804885.7774
 -17070881.98244 -13301970.35244  21814629.6574   21814630.5984
 -17301632.182 4 -13481786.647 4  21281953.887    21281953.141
 -20465241.86144 -15946927.38344  21285680.1194   21285681.7804
 -21415655.82344 -16687511.07044  20902585.4534   20902586.4724
 95  5 31  4 19  0.0000000  0  7G 9G23G31G17G28G 1G21
  -3229418.47344  -2516418.63944  23859435.0624   23859435.6364
 -20924602.92544 -16304864.58644  21314658.8294   21314659.3384
  -2175393.40544  -1695109.67944  23790494.3634   23790494.8134
 -17008609.91144 -13253446.66844  21826479.5974   21826481.1584
 -17312518.958 4 -13490269.829 4  21279882.078    21279881.363
 -20538582.30744 -16004075.77744  21271723.8264   21271725.4484
 -21436409.23144 -16703682.53744  20898636.0824   20898637.2404
 95  5 31  4 19 30.0000000  0  7G 9G23G31G17G28G 1G21
  -3250815.96544  -2533092.01344  23855363.8744   23855363.6764
 -20885361.60944 -16274286.92644  21322126.3334   21322126.9574
  -2250584.03844  -1753699.72344  23776185.3744   23776186.6004
 -16945965.57144 -13204632.90644  21838400.8164   21838401.2524
 -17322758.060 4 -13498248.332 4  21277933.742    21277933.080
 -20611448.57644 -16060854.67744  21257858.1224   21257859.7644
 -21456915.74744 -16719661.61944  20894733.8184   20894735.0234
 95  5 31  4 20  0.0000000  0  7G 9G23G31G17G28G 1G21
  -3271755.33744  -2549408.41944  23851378.5554   23851375.5954
 -20846024.31344 -16243634.47544  21329611.5794   21329612.2154
  -2325377.96644  -1811980.72544  23761954.1844   23761953.0334
 -16882975.24044 -13155549.53544  21850386.9364   21850387.6404
 -17332380.075 4 -13505745.982 4  21276102.677    21276102.168
 -20683873.11944 -16117289.36744  21244076.2394   21244077.7154
 -21477195.16944 -16735463.73744  20890874.9534   20890876.0194
 95  5 31  4 20 30.0000000  0  7G 9G23G31G17G28G 1G21
  -3292244.07144  -2565374.50444  23847479.1094   23847482.2414
 -20806606.72944 -16212919.45744  21337112.4714   21337113.3594
  -2399767.12044  -1869946.29844  23747797.0814   23747799.7204
 -16819641.66244 -13106198.69944  21862439.3454   21862440.6764
 -17341383.210 4 -13512761.388 4  21274389.548    21274388.795
 -20755847.94444 -16173373.61544  21230379.7144   21230381.2344
 -21497249.95844 -16751090.82044  20887058.6574   20887059.6834
 95  5 31  4 21  0.0000000  0  7G 9G23G31G17G28G 1G21
  -3312242.15644  -2580962.30944  23843674.4114   23843675.5244
 -20767071.25544 -16182112.56244  21344635.8454   21344637.1794
  -2473746.39444  -1927592.45944  23733720.6334   23733722.8014
 -16755945.75844 -13056565.51044  21874560.1244   21874561.2684
 -17349738.424 4 -13519271.909 4  21272799.511    21272798.877
 -20827345.98744 -16229086.32844  21216774.0724   21216775.6224
 -21517060.28044 -16766527.40244  20883288.9084   20883290.0864
 95  5 31  4 21 30.0000000  0  7G 9G23G31G17G28G 1G21
  -3331811.79444  -2596208.60044  23839950.0054   23839951.1604
 -20727465.06444 -16151250.57744  21352172.3114   21352173.5164
  -2547385.32944  -1984973.41944  23719706.4284   23719707.3964
 -16691973.65644 -13006717.10144  21886733.4454   21886734.7594
 -17357514.592 4 -13525331.241 4  21271319.882    21271319.011
 -20898453.44844 -16284494.68144  21203242.8984   21203244.4064
 -21536703.02344 -16781833.40044  20879550.9804   20879552.0934
 95  5 31  4 22  0.0000000  0  7G 9G23G31G17G28G 1G21
  -3350943.65644  -2611115.28344  23836309.3324   23836308.3164
 -20687752.12944 -16120305.42044  21359729.4364   21359730.5484
  -2620650.21044  -2042062.94044  23705765.5624   23705765.9504
 -16627732.77444 -12956659.26944  21898958.4264   21898959.6944
 -17364704.761 4 -13530933.940 4  21269951.588    21269950.763
 -20969175.53244 -16339602.74244  21189784.6534   21189785.9634
 -21556174.78844 -16797006.18544  20875845.5564   20875846.8894
 95  5 31  4 22 30.0000000  0  7G 9G23G31G17G28G 1G21
  -3369622.53744  -2625670.38544  23832755.6854   23832754.4794
 -20647903.76844 -16089254.73644  21367312.5804   21367313.6854
  -2693521.82144  -2098845.98744  23691897.7544   23691899.4114
 -16563229.82644 -12906397.20444  21911232.5944   21911233.2414
 -17371297.373 4 -13536071.017 4  21268696.746    21268696.125
 -21039503.15844 -16394403.45144  21176401.9684   21176402.9124
 -21575471.89744 -16812042.87044  20872173.1914   20872174.6834
 95  5 31  4 23  0.0000000  0  7G 9G23G31G17G28G 1G21
  -3387821.01844  -2639851.00744  23829291.7334   23829289.3654
 -20607892.11444 -16058076.80544  21374926.6444   21374927.4564
  -2765968.11444  -2155297.61044  23678111.1294   23678111.4994
 -16498440.48144 -12855911.98544  21923561.4764   21923562.4834
 -17377266.393 4 -13540722.173 4  21267561.046    21267560.399
 -21109400.36744 -16448868.77344  21163101.0704   21163102.1354
 -21594562.41844 -16826918.57444  20868540.3984   20868541.8674
 95  5 31  4 23 30.0000000  0  7G 9G23G31G17G28G 1G21
  -3405535.76444  -2653654.73544  23825920.3314   23825921.9384
 -20567701.17044 -16026759.15644  21382574.8004   21382575.2784
  -2837947.36944  -2211385.30744  23664413.3614   23664413.1264
 -16433344.53744 -12805187.87444  21935949.1084   21935949.9714
 -17382598.263 4 -13544876.836 4  21266546.192    21266545.690
 -21178851.03644 -16502986.13544  21149884.6894   21149885.7304
 -21613414.88844 -16841608.77144  20864952.9054   20864954.0674
 95  5 31  4 24  0.0000000  0  7G 9G23G31G17G28G 1G21
  -3422804.59244  -2667110.94644  23822635.3864   23822635.2124
 -20527387.49044 -15995345.87144  21390246.1934   21390246.9524
  -2909489.95944  -2267132.71544  23650800.5174   23650798.8544
 -16367973.12244 -12754249.11244  21948388.6164   21948389.9254
 -17387334.917 4 -13548567.711 4  21265644.817    21265644.327
 -21247891.02644 -16556783.48344  21136746.9284   21136747.9664
 -21632064.29644 -16856140.73144  20861404.1234   20861405.2744
 95  5 31  4 24 30.0000000  0  7G 9G23G31G17G28G 1G21
  -3439604.68444  -2680201.88944  23819437.7604   23819438.9644
 -20486945.31944 -15963832.47244  21397942.3024   21397943.1544
  -2980586.54044  -2322532.62644  23637270.7214   23637271.0484
 -16302299.57044 -12703074.91944  21960886.1404   21960886.6014
 -17391452.792 4 -13551776.424 4  21264861.221    21264860.799
 -21316487.85844 -16610235.50544  21123693.2724   21123694.7174
 -21650486.05944 -16870495.32444  20857898.2084   20857899.5624
 95  5 31  4 25  0.0000000  0  7G 9G23G31G17G28G 1G21
  -3455911.45744  -2692908.44544  23816335.0424   23816335.9304
 -20446356.00344 -15932204.41244  21405665.9024   21405666.7584
  -3051223.68944  -2377574.55744  23623829.4094   23623829.4394
 -16236281.54244 -12651632.32244  21973448.8914   21973450.0344
 -17394927.433 4 -13554483.910 4  21264200.129    21264199.516
 -21384610.90444 -16663318.34344  21110729.7474   21110730.7604
 -21668643.89144 -16884644.27144  20854442.9964   20854444.4024
 95  5 31  4 25 30.0000000  0  7G 9G23G31G17G28G 1G21
  -3471765.42244  -2705262.14844  23813318.0114   23813317.9054
 -20405660.85544 -15900493.88444  21413409.6124   21413410.7944
  -3121450.67144  -2432296.86144  23610466.6644   23610467.0234
 -16169964.28044 -12599956.54144  21986068.2784   21986069.6234
 -17397799.501 4 -13556721.861 4  21263653.497    21263652.859
 -21452311.14844 -16716071.73144  21097846.7794   21097848.1484
 -21686587.46844 -16898626.26144  20851028.5124   20851029.6494
 95  5 31  4 26  0.0000000  0  7G 9G23G31G17G28G 1G21
  -3487143.64044  -2717245.13544  23810391.3274   23810391.6064
 -20364840.50644 -15868685.81844  21421177.6924   21421178.2674
  -3191262.86744  -2486695.89644  23597179.6714   23597179.9824
 -16103324.45544 -12548029.39244  21998749.4354   21998750.2634
 -17400043.365 4 -13558470.314 4  21263226.523    21263225.973
 -21519559.71844 -16768473.17744  21085050.0254   21085051.0184
 -21704312.99844 -16912438.34644  20847655.5974   20847656.6934
 95  5 31  4 26 30.0000000  0  7G 9G23G31G17G28G 1G21
  -3502098.17444  -2728897.98444  23807546.2794   23807547.0914
 -20323939.93244 -15836815.24644  21428961.0424   21428961.4884
  -3260721.00544  -2540819.09844  23583961.8554   23583963.3734
 -16036408.77844 -12495887.28944  22011483.2304   22011484.2434
 -17401710.016 4 -13559768.987 4  21262909.292    21262908.768
 -21586394.77944 -16820552.42144  21072331.7454   21072333.0384
 -21721869.95244 -16926119.07544  20844314.6264   20844315.6564
 95  5 31  4 27  0.0000000  0  7G 9G23G31G17G28G 1G21
  -3516546.05544  -2740156.05644  23804795.6244   23804795.9934
 -20282882.23944 -15804822.24144  21436774.1634   21436774.8754
  -3329734.43244  -2594595.76344  23570830.2054   23570833.3804
 -15969136.35544 -12443467.21544  22024284.8614   22024285.6804
 -17402722.342 4 -13560557.801 4  21262716.631    21262716.186
 -21652734.56644 -16872245.73344  21059707.3424   21059708.8234
 -21739181.26344 -16939608.39644  20841020.3114   20841021.3874
 95  5 31  4 27 30.0000000  0  7G 9G23G31G17G28G 1G21
  -3530471.18844  -2751006.77444  23802146.4084   23802146.3624
 -20241659.86844 -15772700.89844  21444618.0264   21444618.7284
  -3398272.47844  -2648002.02544  23557787.6084   23557789.5134
 -15901510.59744 -12390771.79944  22037153.6424   22037154.4274
 -17403069.406 4 -13560828.230 4  21262650.595    21262649.924
 -21718560.56344 -16923538.68944  21047181.0774   21047182.4564
 -21756251.31444 -16952909.71944  20837771.9814   20837773.4274
 95  5 31  4 28  0.0000000  0  7G 9G23G31G17G28G 1G21
  -3543933.03744  -2761496.50444  23799584.2384   23799584.4324
 -20200343.26844 -15740506.11744  21452480.4654   21452481.0124
  -3466389.15944  -2701079.92044  23544825.9544   23544827.4374
 -15833588.80644 -12337845.71644  22050078.8554   22050079.6664
 -17402817.291 4 -13560631.765 4  21262698.619    21262698.133
 -21783930.96444 -16974476.63144  21034741.3224   21034742.5764
 -21773139.14144 -16966069.04544  20834557.9444   20834559.2814
 95  5 31  4 28 30.0000000  0  7G 9G23G31G17G28G 1G21
  -3556916.86844  -2771613.73444  23797113.5754   23797114.8304
 -20158924.16044 -15708231.46444  21460362.4924   21460362.9434
  -3534068.81244  -2753817.25444  23531946.2924   23531949.6074
 -15765372.06044 -12284689.80044  22063059.7744   22063061.2954
 -17401972.165 4 -13559973.202 4  21262859.321    21262858.778
 -21848852.05644 -17025064.46744  21022387.3964   21022388.6994
 -21789837.64644 -16979080.84544  20831380.2024   20831381.6034
 95  5 31  4 29  0.0000000  0  7G 9G23G31G17G28G 1G21
  -3569395.87844  -2781337.57844  23794739.6664   23794739.5644
 -20117376.32244 -15675856.52844  21468268.9204   21468269.5844
  -3601277.96744  -2806187.97044  23519158.0144   23519160.0214
 -15696845.92044 -12231292.82444  22076099.8474   22076100.5954
 -17400513.278 4 -13558836.395 4  21263136.829    21263136.446
 -21913322.23644 -17075300.94744  21010118.8854   21010120.1334
 -21806338.51044 -16991938.62344  20828240.4514   20828241.5734
 95  5 31  4 29 30.0000000  0  7G 9G23G31G17G28G 1G21
  -3581308.26644  -2790619.98244  23792472.3694   23792472.7674
 -20075615.68944 -15643315.79244  21476215.4634   21476216.2314
  -3667959.11544  -2858147.26344  23506467.8894   23506469.0134
 -15627947.50244 -12177605.74344  22089211.0044   22089212.4924
 -17398374.999 4 -13557170.178 4  21263543.711    21263543.091
 -21977284.78344 -17125141.87344  20997947.4194   20997948.8684
 -21822584.55644 -17004597.85644  20825149.0094   20825150.0834
 95  5 31  4 30  0.0000000  0  7G 9G23G31G17G28G 1G21
  -3592758.49344  -2799542.20644  23790293.8204   23790292.4074
 -20033735.06844 -15610681.54744  21484184.7484   21484185.7424
  -3734217.99244  -2909777.55044  23493858.7064   23493859.9534
 -15558773.20344 -12123703.68644  22102374.6104   22102375.9724
 -17395660.473 4 -13555054.951 4  21264060.475    21264059.523
 -22040856.16144 -17174677.99344  20985850.1844   20985851.5294
 -21838665.06844 -17017128.09844  20822089.0924   20822090.2854
 95  5 31  4 30 30.0000000  0  7G 9G23G31G17G28G 1G21
  -3603714.53544  -2808079.35044  23788208.9544   23788208.5924
 -19991702.23044 -15577928.69644  21492183.4614   21492184.0784
  -3800029.29744  -2961059.05944  23481335.0654   23481336.7014
 -15489308.22144 -12069575.11144  22115592.8864   22115594.0304
 -17392337.280 4 -13552465.441 4  21264692.837    21264692.006
 -22104008.46944 -17223887.55944  20973832.7054   20973834.0654
 -21854547.01344 -17029503.59944  20819066.6964   20819067.9584
 95  5 31  4 31  0.0000000  0  7G 9G23G31G17G28G 1G21
  -3614160.86444  -2816219.34144  23786221.1074   23786221.6404
 -19949504.09044 -15545047.01944  21500213.6994   21500214.3624
  -3865368.23744  -3011972.46144  23468901.7234   23468903.4174
 -15419533.43144 -12015205.12544  22128870.5994   22128871.7144
 -17388374.092 4 -13549377.226 4  21265447.012    21265446.526
 -22166705.41344 -17272742.29144  20961902.3084   20961903.1674
 -21870205.83544 -17041705.25944  20816086.8614   20816087.9044
 95  5 31  4 31 30.0000000  0  7G 9G23G31G17G28G 1G21
  -3624142.58344  -2823997.25244  23784320.5214   23784321.6204
 -19907195.96944 -15512079.63044  21508264.3854   21508264.8734
  -3930278.83344  -3062552.12644  23456550.0434   23456551.4484
 -15349495.86544 -11960630.38344  22142198.2394   22142199.7674
 -17383815.554 4 -13545825.100 4  21266314.462    21266314.081
 -22228975.82044 -17321264.65444  20950052.1634   20950053.0694
 -21885670.20444 -17053755.40244  20813144.2264   20813145.2694
 95  5 31  4 32  0.0000000  0  7G 9G23G31G17G28G 1G21
  -3633676.59544  -2831426.34244  23782507.3004   23782506.4174
 -19864826.30644 -15479064.29344  21516327.5064   21516327.8674
  -3994783.67344  -3112815.60644  23444275.7474   23444276.1154
 -15279218.67144 -11905868.93044  22155572.0414   22155572.6014
 -17378693.778 4 -13541834.093 4  21267289.030    21267288.682
 -22290840.88444 -17369471.16844  20938279.8944   20938280.8254
 -21900961.17744 -17065670.42744  20810234.1684   20810235.1414
 95  5 31  4 32 30.0000000  0  7G 9G23G31G17G28G 1G21
  -3642706.59344  -2838462.69544  23780788.9104   23780788.4914
 -19822348.16044 -15445964.40444  21524410.8144   21524411.1954
  -4058831.38244  -3162722.87044  23432086.9414   23432088.5164
 -15208638.49244 -11850871.38844  22169003.0694   22169003.4244
 -17372953.244 4 -13537360.937 4  21268381.369    21268380.953
 -22352230.22444 -17417306.99044  20926597.6474   20926598.6244
 -21916031.10744 -17077413.22944  20807366.4024   20807367.5834
 95  5 31  4 33  0.0000000  0  7G 9G23G31G17G28G 1G21
  -3651188.94044  -2845072.29444  23779174.4484   23779173.9984
 -19779715.73244 -15412744.31944  21532523.4684   21532524.1124
  -4122373.94444  -3212236.51744  23419995.5274   23419996.2954
 -15137695.64644 -11795591.24044  22182502.5664   22182503.7674
 -17366548.779 4 -13532370.442 4  21269600.138    21269599.412
 -22413091.96344 -17464731.69244  20915015.9974   20915016.9004
 -21930841.91244 -17088954.12344  20804547.9834   20804548.9754
 95  5 31  4 33 30.0000000  0  7G 9G23G31G17G28G 1G21
  -3659159.09144  -2851282.81444  23777657.4074   23777657.0754
 -19736970.93444 -15379436.67844  21540657.3864   21540657.9324
  -4185464.52344  -3261397.97944  23407989.6844   23407990.1054
 -15066428.57644 -11740058.48244  22196064.5654   22196065.0624
 -17359523.355 4 -13526896.082 4  21270936.876    21270936.234
 -22473468.67744 -17511778.45144  20903526.8374   20903527.6324
 -21945430.53544 -17100321.86744  20801772.0334   20801773.0684
 95  5 31  4 34  0.0000000  0  7G 9G23G31G17G28G 1G21
  -3666654.26344  -2857123.18344  23776231.3594   23776230.6624
 -19694143.62144 -15346064.72744  21548806.9694   21548807.9184
  -4248132.20044  -3310229.91944  23396064.1024   23396066.0574
 -14994863.72744 -11684293.69544  22209682.3724   22209682.8984
 -17351902.056 4 -13520957.401 4  21272387.155    21272386.785
 -22533393.62944 -17558473.19544  20892123.4304   20892124.2904
 -21959828.14744 -17111540.75544  20799032.1334   20799033.1674
 95  5 31  4 34 30.0000000  0  7G 9G23G31G17G28G 1G21
  -3673686.33344  -2862602.69344  23774893.5234   23774894.5264
 -19651236.20044 -15312630.35844  21556972.2484   21556972.7834
  -4310371.07644  -3358727.70044  23384220.1934   23384222.5384
 -14923008.94244 -11628302.97944  22223356.2404   22223356.9894
 -17343680.230 4 -13514550.777 4  21273951.809    21273951.222
 -22592863.33844 -17604813.20644  20880806.7774   20880807.5714
 -21974038.95244 -17122614.11344  20796328.0014   20796329.1964
 95  5 31  4 35  0.0000000  0  7G 9G23G31G17G28G 1G21
  -3680211.36244  -2867687.08444  23773651.3274   23773652.3374
 -19608208.70444 -15279102.42944  21565160.1494   21565160.9774
  -4372131.39544  -3406852.58544  23372468.0084   23372469.5294
 -14850837.08444 -11572065.19144  22237090.0974   22237090.9724
 -17334824.622 4 -13507650.306 4  21275637.105    21275636.505
 -22651849.70144 -17650776.58444  20869581.9864   20869582.7884
 -21988027.09844 -17133513.97044  20793665.9254   20793667.2974
 95  5 31  4 35 30.0000000  0  7G 9G23G31G17G28G 1G21
  -3686229.05644  -2872376.15944  23772507.1044   23772505.2714
 -19565059.10144 -15245479.36544  21573371.0964   21573371.5544
  -4433394.56644  -3454590.10744  23360810.2934   23360810.9434
 -14778351.48444 -11515582.89844  22250883.8664   22250885.1364
 -17325334.227 4 -13500255.185 4  21277443.006    21277442.491
 -22710345.18044 -17696357.45144  20858450.3824   20858451.5934
 -22001785.88244 -17144235.10644  20791047.6344   20791049.2484
 95  5 31  4 36  0.0000000  0  7G 9G23G31G17G28G 1G21
  -3691779.92644  -2876701.46444  23771449.5334   23771450.5924
 -19521809.96244 -15211778.73144  21581601.5054   21581601.7534
  -4494170.36844  -3501947.85944  23349245.4334   23349246.9804
 -14705580.49744 -11458878.23244  22264731.4244   22264732.8534
 -17315245.589 4 -13492393.904 4  21279362.710    21279362.114
 -22768385.27144 -17741583.47244  20847406.0414   20847407.1934
 -22015357.09844 -17154810.08044  20788465.3794   20788466.6034
 95  5 31  4 36 30.0000000  0  7G 9G23G31G17G28G 1G21
  -3696845.85444  -2880648.93944  23770486.1744   23770486.5154
 -19478443.72644 -15177986.83344  21589853.2184   21589853.6794
  -4554453.28344  -3548921.50344  23337773.0524   23337774.6734
 -14632514.11644 -11401943.42344  22278636.0234   22278636.8934
 -17304561.322 4 -13484068.498 4  21281395.795    21281395.417
 -22825960.64044 -17786447.37544  20836449.4334   20836450.4414
 -22028742.40144 -17165240.16944  20785918.4544   20785919.4854
 95  5 31  4 37  0.0000000  0  7G 9G23G31G17G28G 1G21
  -3701393.74844  -2884192.74544  23769620.2144   23769621.8314
 -19434922.83544 -15144074.44744  21598135.0014   21598135.8594
  -4614224.81944  -3595496.68544  23326399.0154   23326400.4044
 -14559130.35744 -11344761.28544  22292600.0224   22292601.3164
 -17293259.758 4 -13475262.087 4  21283546.571    21283545.960
 -22883047.02744 -17830930.24944  20825586.1494   20825587.2834
 -22041911.23744 -17175501.56144  20783412.4404   20783413.4764
 95  5 31  4 37 30.0000000  0  7G 9G23G31G17G28G 1G21
  -3705440.78444  -2887346.27644  23768850.5214   23768851.3144
 -19391261.33144 -15110052.51344  21606443.4554   21606444.1654
  -4673512.16344  -3641694.56044  23315117.6074   23315119.2334
 -14485434.05044 -11287335.63344  22306624.1454   22306624.9884
 -17281346.541 4 -13465979.057 4  21285813.504    21285812.722
 -22939640.70144 -17875029.18944  20814816.9494   20814818.0944
 -22054868.13344 -17185597.80544  20780946.7004   20780947.3564
 95  5 31  4 38  0.0000000  0  7G 9G23G31G17G28G 1G21
  -3708919.15944  -2890056.66644  23768188.4334   23768189.9614
 -19347408.13544 -15075881.16044  21614788.6094   21614789.3254
  -4732283.38144  -3687490.27444  23303933.8134   23303934.5564
 -14411364.99144 -11229619.48944  22320718.7434   22320719.5124
 -17268768.948 4 -13456178.341 4  21288206.866    21288206.291
 -22995698.91044 -17918710.88644  20804149.5354   20804150.6484
 -22067560.91444 -17195488.26244  20778531.4614   20778532.4234
 95  5 31  4 38 30.0000000  0  7G 9G23G31G17G28G 1G21
  -3711866.93044  -2892353.60844  23767627.4484   23767628.7324
 -19303428.03144 -15041610.94344  21623157.7654   21623158.4264
  -4790603.33044  -3732934.39044  23292836.7444   23292836.2344
 -14336983.07144 -11171659.57144  22334873.3774   22334874.7194
 -17255575.800 4 -13445897.968 4  21290717.602    21290716.893
 -23051264.66344 -17962008.85344  20793575.6454   20793576.5184
 -22080039.68744 -17205211.96844  20776156.7734   20776157.8374
 95  5 31  4 39  0.0000000  0  7G 9G23G31G17G28G 1G21
  -3714360.06144  -2894296.31844  23767153.6274   23767153.1364
 -19259404.07544 -15007306.58044  21631535.1714   21631536.5264
  -4848542.67044  -3778081.90744  23281810.1194   23281811.1394
 -14262365.62244 -11113516.11144  22349072.6204   22349073.6054
 -17241831.309 4 -13435187.983 4  21293333.050    21293332.626
 -23106401.72044 -18004972.76944  20783083.3854   20783084.4004
 -22092372.71644 -17214822.10944  20773809.6074   20773810.9814
 95  5 31  4 39 30.0000000  0  7G 9G23G31G17G28G 1G21
  -3716430.12444  -2895909.35344  23766759.6384   23766759.1624
 -19215368.90244 -14972993.47844  21639914.9754   21639915.8744
  -4906124.69444  -3822950.98644  23270852.5534   23270853.9704
 -14187537.57544 -11055208.55944  22363312.2534   22363313.1274
 -17227565.896 4 -13424072.086 4  21296047.751    21296047.183
 -23161143.73044 -18047628.86044  20772666.1354   20772667.3194
 -22104596.30344 -17224346.97144  20771483.5704   20771484.9644
 95  5 31  4 40  0.0000000  0  7G 9G23G31G17G28G 1G21
  -3717916.13644  -2897067.24444  23766475.9604   23766476.1364
 -19171162.36344 -14938546.84644  21648327.1014   21648327.9964
  -4963164.90144  -3867397.88144  23259998.2884   23259998.8164
 -14112350.01144 -10996620.84844  22377619.6514   22377621.0064
 -17212627.896 4 -13412432.081 4  21298890.217    21298889.741
 -23215346.32444 -18089864.62844  20762352.0024   20762352.7774
 -22116560.33844 -17233669.57044  20769206.9524   20769208.5904
 95  5 31  4 40 30.0000000  0  7G 9G23G31G17G28G 1G21
  -3718889.67844  -2897825.81244  23766290.3384   23766289.8714
 -19126845.30044 -14904014.03644  21656760.2844   21656761.0554
  -5019703.22744  -3911453.69844  23249239.0574   23249240.4324
 -14036868.54944 -10937804.14844  22391983.7974   22391984.2714
 -17197078.458 4 -13400315.635 4  21301849.379    21301848.881
 -23269057.47344 -18131717.45644  20752131.1664   20752131.9864
 -22128324.11644 -17242836.13544  20766968.6214   20766969.6844
 95  5 31  4 41  0.0000000  0  7G 9G23G31G17G28G 1G21
  -3719330.88244  -2898169.54444  23766207.0634   23766209.6464
 -19082387.78944 -14869371.82044  21665220.1594   21665220.8314
  -5075703.36444  -3955090.15244  23238581.8324   23238583.7474
 -13961065.81544 -10878737.08544  22406407.9674   22406409.1884
 -17180895.249 4 -13387705.344 4  21304928.906    21304928.440
 -23322259.69844 -18173173.72444  20742007.1264   20742007.7714
 -22139856.60944 -17251822.48044  20764773.8734   20764774.9454
 95  5 31  4 41 30.0000000  0  7G 9G23G31G17G28G 1G21
  -3719210.63144  -2898075.81344  23766230.1314   23766231.2014
 -19037769.56844 -14834604.39444  21673710.9314   21673711.5994
  -5131131.52944  -3998280.92244  23228034.7544   23228035.8664
 -13884916.41044 -10819399.89444  22420899.1154   22420899.6874
 -17164063.176 4 -13374589.464 4  21308132.041    21308131.422
 -23374940.91244 -18214223.99344  20731982.0294   20731982.9504
 -22151139.03144 -17260613.94344  20762626.6984   20762627.7264
 95  5 31  4 42  0.0000000  0  7G 9G23G31G17G28G 1G21
  -3718547.85344  -2897559.37644  23766356.2954   23766354.5244
 -18993025.85644 -14799739.13844  21682225.6354   21682226.2434
  -5186011.60944  -4041044.61244  23217592.1464   23217592.6774
 -13808443.42944 -10759810.57944  22435451.9284   22435452.4834
 -17146608.905 4 -13360988.737 4  21311453.540    21311452.679
 -23427122.74044 -18254885.12944  20722052.1994   20722053.2294
 -22162197.78644 -17269231.13344  20760522.4324   20760523.2094
 95  5 31  4 42 30.0000000  0  7G 9G23G31G17G28G 1G21
  -3717333.11744  -2896612.81344  23766587.5784   23766587.8484
 -18948163.43844 -14764781.36444  21690762.4894   21690763.0504
  -5240360.76344  -4083394.57144  23207248.9994   23207250.1114
 -13731649.80244 -10699971.40544  22450065.0614   22450064.9144
 -17128531.190 4 -13346902.224 4  21314893.406    21314892.826
 -23478797.80444 -18295151.38844  20712218.4794   20712219.4804
 -22173025.69644 -17277668.46444  20758461.8774   20758462.7014
 95  5 31  4 43  0.0000000  0  7G 9G23G31G17G28G 1G21
  -3715598.90044  -2895261.49744  23766917.2054   23766917.7854
 -18903207.15344 -14729750.48344  21699316.8814   21699317.8994
  -5294205.89344  -4125351.79644  23197003.3334   23197004.5374
 -13654574.67144 -10639912.87644  22464731.4264   22464732.4114
 -17109863.373 4 -13332355.894 4  21318445.808    21318445.331
 -23530004.47444 -18335052.66344  20702474.1224   20702475.1714
 -22183656.89644 -17285952.52444  20756438.5704   20756439.7004
 95  5 31  4 43 30.0000000  0  7G 9G23G31G17G28G 1G21
  -3713365.55944  -2893521.22044  23767342.0074   23767342.2334
 -18858164.24244 -14694652.10144  21707888.5854   21707889.1084
  -5347570.97644  -4166934.95144  23186847.6614   23186849.7234
 -13577234.82644 -10579648.08144  22479448.6374   22479449.9524
 -17090622.169 4 -13317362.766 4  21322107.267    21322106.881
 -23580750.65844 -18374595.12944  20692817.7264   20692818.7304
 -22194112.73744 -17294099.93144  20754449.0784   20754450.3664
 95  5 31  4 44  0.0000000  0  7G 9G23G31G17G28G 1G21
  -3710655.03844  -2891409.06644  23767857.4004   23767858.3204
 -18813045.50344 -14659494.61944  21716474.3234   21716474.9234
  -5400483.37244  -4208165.35444  23176778.9884   23176780.5234
 -13499648.23344 -10519191.03044  22494212.7674   22494214.5274
 -17070825.182 4 -13301936.551 4  21325874.546    21325874.060
 -23631046.29744 -18413786.52144  20683246.7004   20683247.8804
 -22204409.07844 -17302123.02844  20752489.9654   20752491.2074
 95  5 31  4 44 30.0000000  0  7G 9G23G31G17G28G 1G21
  -3707444.75644  -2888907.55944  23768468.6024   23768469.9484
 -18767804.59244 -14624241.95444  21725083.5534   21725084.1424
  -5452908.14344  -4249015.78644  23166802.5104   23166803.5304
 -13421783.06344 -10458516.91544  22509030.4204   22509031.2754
 -17050437.485 4 -13286050.036 4  21329754.324    21329753.789
 -23680846.05844 -18452591.50544  20673770.0514   20673771.0294
 -22214507.09844 -17309991.60544  20750568.5144   20750569.4724
 95  5 31  4 45  0.0000000  0  7G 9G23G31G17G28G 1G21
  -3703769.03944  -2886043.30344  23769168.5794   23769168.3234
 -18722458.22244 -14588907.10044  21733712.3184   21733712.9294
  -5504870.29344  -4289505.75144  23156915.2284   23156914.9744
 -13343655.83244 -10397638.58844  22523897.5374   22523898.2614
 -17029483.574 4 -13269722.333 4  21333741.604    21333741.066
 -23730167.19144 -18491023.53244  20664384.6344   20664385.3454
 -22224448.21144 -17317737.93244  20748676.8274   20748677.6824
 95  5 31  4 45 30.0000000  0  7G 9G23G31G17G28G 1G21
  -3699613.02144  -2882804.83844  23769959.7284   23769960.0014
 -18677015.14244 -14553496.89244  21742359.9014   21742361.2394
  -5556378.28744  -4329641.85944  23147113.6474   23147113.8924
 -13265240.38244 -10336535.64944  22538819.0684   22538820.5684
 -17007957.105 4 -13252948.476 4  21337838.074    21337837.464
 -23779002.35444 -18529076.88244  20655091.3274   20655092.2644
 -22234223.64544 -17325355.15844  20746816.5894   20746817.4624
 95  5 31  4 46  0.0000000  0  7G 9G23G31G17G28G 1G21
  -3694944.07744  -2879166.70744  23770847.1514   23770846.0564
 -18631479.29944 -14518014.39444  21751025.2404   21751026.2864
  -5607399.57744  -4369398.69644  23137405.0804   23137405.9194
 -13186524.84444 -10275198.90744  22553799.1534   22553800.5514
 -16985840.509 4 -13235714.770 4  21342046.706    21342046.110
 -23827327.71944 -18566732.99444  20645895.4754   20645896.4204
 -22243810.57944 -17332825.49544  20744992.1164   20744993.2854
 95  5 31  4 46 30.0000000  0  7G 9G23G31G17G28G 1G21
  -3689697.36444  -2875078.35344  23771845.5004   23771846.7324
 -18585789.66744 -14482412.03844  21759719.5264   21759720.1774
  -5657863.08644  -4408720.87544  23127801.1724   23127803.4014
 -13107456.35244 -10213587.13644  22568844.4224   22568845.4744
 -16963070.054 4 -13217971.567 4  21346379.825    21346379.134
 -23875081.36044 -18603943.60444  20636808.1444   20636809.0354
 -22253148.27744 -17340101.61744  20743215.1174   20743216.1274
 95  5 31  4 47  0.0000000  0  7G 9G23G31G17G28G 1G21
  -3683908.87544  -2870567.86144  23772946.8264   23772946.5064
 -18539995.50944 -14446728.24944  21768433.6154   21768434.3184
  -5707807.66344  -4447638.69644  23118296.5924   23118298.5984
 -13028074.15544 -10151730.90944  22583950.8324   22583952.6734
 -16939689.984 4 -13199753.342 4  21350828.686    21350828.296
 -23922317.86844 -18640751.25544  20627819.3454   20627820.1254
 -22262277.21044 -17347215.08844  20741477.8314   20741478.9954
 95  5 31  4 47 30.0000000  0  7G 9G23G31G17G28G 1G21
  -3677626.40944  -2865672.46144  23774143.3514   23774144.5454
 -18494158.87344 -14411011.39044  21777156.4454   21777156.9314
  -5757267.25644  -4486178.60344  23108884.7134   23108885.3974
 -12948436.31544 -10089675.47844  22599105.0624   22599106.9284
 -16915754.475 4 -13181102.299 4  21355383.631    21355383.296
 -23969091.59944 -18677198.29844  20618918.8374   20618919.6884
 -22271235.24444 -17354195.39644  20739773.3104   20739774.2994
